Darstellungsparameter: Aktuell verwendete Einstellungen:
Skalierung der Graphiken ... ?
xyx+y,   Skalierungsfaktor:      Skalierung: Modus: x, Faktor: 1
Darstellungszeitraum ... ?
Vom - - bis: - -   Zeitraum: 14.04.2020 - 13.05.2020
Min/Max/Avg-Anzeige ... ?
Zeige MMA aktuell
Zeige MMA Monat
Zeige MMA alles
Zeige --A aktuell
Zeige --A Monat
Zeige --A alles
Keine MMA-Anzeige
MMA:
Average (ber die Originaldaten)
MMA-Basis: 14.04.2020 - 13.05.2020
Quicknavigation für Darstellung... ?
Tage:      1T, 2T, 3T, 5T -1T -2T -3T -5T +1T +2T +3T +5T
Wochen: 1W, 2W, 3W -1W -2W -3W +1W +2W +3W
Monate: 1M, 3M, 6M -1M -3M -6M +1M +3M +6M
Jahre:    1J, 3J, 5J, 10J -1J -3J -5J -10J +1J +3J +5J +10J
Nutze für die Darstellung ... ?
Originaldaten oder Mittelwerte auf ...
Stundenbasis Tagesbasis Wochenbasis
Monatsbasis Jahresbasis      Datenbasis: Original-Daten
Darstellen als:
Statistik (Auto) Statistik J:M      Darstellung:
Zur Graphik,    zurück zur Übersicht aller Sensoren.
 
Tabellarische Datenbersicht: ?
 
Sensor: Nr:Datum:Temp:Abs-Feuchte:Windchill:Wind:
Aussen-T/F 1 14-04-2020 00:00:00 4.3 C 4.15 g/m*3 4.3 C 1.6 km/h
2 14-04-2020 00:05:00 4.2 C 4.12 g/m*3 4.2 C 3.2 km/h
3 14-04-2020 00:10:00 4.1 C 4.16 g/m*3 2.55 C 6.4 km/h
4 14-04-2020 00:15:00 4.2 C 4.19 g/m*3 2.17 C 8.1 km/h
5 14-04-2020 00:20:00 4.1 C 4.16 g/m*3 4.1 C 4.8 km/h
6 14-04-2020 00:25:00 4.1 C 4.16 g/m*3 4.1 C 0 km/h
7 14-04-2020 00:30:00 4.1 C 4.1 g/m*3 4.1 C 3.2 km/h
8 14-04-2020 00:35:00 4.1 C 4.16 g/m*3 4.1 C 0 km/h
9 14-04-2020 00:40:00 4 C 4.2 g/m*3 4 C 1.6 km/h
10 14-04-2020 00:45:00 3.9 C 4.17 g/m*3 3.9 C 1.6 km/h
11 14-04-2020 00:50:00 3.8 C 4.14 g/m*3 3.8 C 3.2 km/h
12 14-04-2020 00:55:00 3.8 C 4.08 g/m*3 3.8 C 1.6 km/h
13 14-04-2020 01:00:00 3.8 C 4.08 g/m*3 3.8 C 3.2 km/h
14 14-04-2020 01:05:00 3.9 C 4.04 g/m*3 3.9 C 4.8 km/h
15 14-04-2020 01:10:00 4 C 4.13 g/m*3 4 C 3.2 km/h
16 14-04-2020 01:15:00 4.1 C 4.16 g/m*3 2.55 C 6.4 km/h
17 14-04-2020 01:20:00 4.1 C 4.16 g/m*3 4.1 C 1.6 km/h
18 14-04-2020 01:25:00 3.9 C 4.23 g/m*3 3.9 C 0 km/h
19 14-04-2020 01:30:00 3.6 C 4.15 g/m*3 3.6 C 3.2 km/h
20 14-04-2020 01:35:00 3.4 C 4.15 g/m*3 3.4 C 3.2 km/h
21 14-04-2020 01:40:00 3.3 C 4.19 g/m*3 3.3 C 0 km/h
22 14-04-2020 01:45:00 3.1 C 4.19 g/m*3 3.1 C 0 km/h
23 14-04-2020 01:50:00 2.8 C 4.16 g/m*3 2.8 C 0 km/h
24 14-04-2020 01:55:00 2.6 C 4.17 g/m*3 2.6 C 1.6 km/h
25 14-04-2020 02:00:00 2.4 C 4.17 g/m*3 2.4 C 0 km/h
Sensor: Nr:Datum:Temp:Abs-Feuchte:Windchill:Wind:
Aussen-T/F 26 14-04-2020 02:05:00 2.4 C 4.17 g/m*3 2.4 C 0 km/h
27 14-04-2020 02:10:00 2.3 C 4.14 g/m*3 2.3 C 0 km/h
28 14-04-2020 02:15:00 2.3 C 4.2 g/m*3 2.3 C 0 km/h
29 14-04-2020 02:20:00 2.2 C 4.17 g/m*3 2.2 C 1.6 km/h
30 14-04-2020 02:25:00 2.1 C 4.14 g/m*3 2.1 C 0 km/h
31 14-04-2020 02:30:00 2 C 4.17 g/m*3 2 C 1.6 km/h
32 14-04-2020 02:35:00 1.9 C 4.14 g/m*3 1.9 C 1.6 km/h
33 14-04-2020 02:40:00 1.9 C 4.14 g/m*3 1.9 C 1.6 km/h
34 14-04-2020 02:45:00 1.8 C 4.11 g/m*3 1.8 C 0 km/h
35 14-04-2020 02:50:00 1.7 C 4.14 g/m*3 1.7 C 1.6 km/h
36 14-04-2020 02:55:00 1.6 C 4.16 g/m*3 1.6 C 0 km/h
37 14-04-2020 03:00:00 1.5 C 4.14 g/m*3 1.5 C 0 km/h
38 14-04-2020 03:05:00 1.4 C 4.11 g/m*3 1.4 C 4.8 km/h
39 14-04-2020 03:10:00 1.3 C 4.08 g/m*3 1.3 C 4.8 km/h
40 14-04-2020 03:15:00 1.4 C 4.11 g/m*3 1.4 C 3.2 km/h
41 14-04-2020 03:20:00 1.6 C 4.16 g/m*3 1.6 C 0 km/h
42 14-04-2020 03:25:00 1.6 C 4.16 g/m*3 1.6 C 1.6 km/h
43 14-04-2020 03:30:00 1.5 C 4.19 g/m*3 1.5 C 1.6 km/h
44 14-04-2020 03:35:00 1.5 C 4.14 g/m*3 1.5 C 4.8 km/h
45 14-04-2020 03:40:00 1.5 C 4.14 g/m*3 1.5 C 3.2 km/h
46 14-04-2020 03:45:00 1.5 C 4.19 g/m*3 1.5 C 1.6 km/h
47 14-04-2020 03:50:00 1.5 C 4.14 g/m*3 1.5 C 1.6 km/h
48 14-04-2020 03:55:00 1.5 C 4.14 g/m*3 1.5 C 1.6 km/h
49 14-04-2020 04:00:00 1.4 C 4.11 g/m*3 1.4 C 3.2 km/h
50 14-04-2020 04:05:00 1.4 C 4.16 g/m*3 1.4 C 0 km/h
Sensor: Nr:Datum:Temp:Abs-Feuchte:Windchill:Wind:
Aussen-T/F 51 14-04-2020 04:10:00 1.4 C 4.16 g/m*3 1.4 C 0 km/h
52 14-04-2020 04:15:00 1.3 C 4.13 g/m*3 1.3 C 0 km/h
53 14-04-2020 04:20:00 1.3 C 4.13 g/m*3 1.3 C 0 km/h
54 14-04-2020 04:25:00 1.2 C 4.16 g/m*3 1.2 C 1.6 km/h
55 14-04-2020 04:30:00 1.2 C 4.1 g/m*3 1.2 C 0 km/h
56 14-04-2020 04:35:00 1.1 C 4.13 g/m*3 1.1 C 4.8 km/h
57 14-04-2020 04:40:00 1 C 4.05 g/m*3 1 C 4.8 km/h
58 14-04-2020 04:45:00 0.9 C 4.02 g/m*3 0.9 C 4.8 km/h
59 14-04-2020 04:50:00 0.9 C 4.07 g/m*3 0.9 C 4.8 km/h
60 14-04-2020 04:55:00 0.9 C 4.07 g/m*3 0.9 C 4.8 km/h
61 14-04-2020 05:00:00 0.9 C 4.07 g/m*3 0.9 C 3.2 km/h
62 14-04-2020 05:05:00 0.8 C 4.1 g/m*3 0.8 C 0 km/h
63 14-04-2020 05:10:00 0.7 C 4.07 g/m*3 0.7 C 1.6 km/h
64 14-04-2020 05:15:00 0.6 C 4.04 g/m*3 0.6 C 3.2 km/h
65 14-04-2020 05:20:00 0.6 C 4.09 g/m*3 0.6 C 4.8 km/h
66 14-04-2020 05:25:00 0.6 C 4.09 g/m*3 0.6 C 3.2 km/h
67 14-04-2020 05:30:00 0.7 C 4.17 g/m*3 0.7 C 1.6 km/h
68 14-04-2020 05:35:00 0.8 C 4.2 g/m*3 0.8 C 0 km/h
69 14-04-2020 05:40:00 0.8 C 4.2 g/m*3 0.8 C 0 km/h
70 14-04-2020 05:45:00 0.9 C 4.23 g/m*3 0.9 C 0 km/h
71 14-04-2020 05:50:00 1 C 4.26 g/m*3 1 C 0 km/h
72 14-04-2020 05:55:00 0.9 C 4.23 g/m*3 0.9 C 3.2 km/h
73 14-04-2020 06:00:00 0.8 C 4.2 g/m*3 0.8 C 0 km/h
74 14-04-2020 06:05:00 0.7 C 4.17 g/m*3 0.7 C 0 km/h
75 14-04-2020 06:10:00 0.6 C 4.14 g/m*3 0.6 C 0 km/h
Sensor: Nr:Datum:Temp:Abs-Feuchte:Windchill:Wind:
Aussen-T/F 76 14-04-2020 06:15:00 0.4 C 4.08 g/m*3 0.4 C 0 km/h
77 14-04-2020 06:20:00 0.3 C 4.11 g/m*3 0.3 C 0 km/h
78 14-04-2020 06:25:00 0.2 C 4.13 g/m*3 0.2 C 0 km/h
79 14-04-2020 06:30:00 0.2 C 4.13 g/m*3 0.2 C 1.6 km/h
80 14-04-2020 06:35:00 0.2 C 4.18 g/m*3 0.2 C 0 km/h
81 14-04-2020 06:40:00 0.2 C 4.18 g/m*3 0.2 C 0 km/h
82 14-04-2020 06:45:00 0.3 C 4.25 g/m*3 0.3 C 4.8 km/h
83 14-04-2020 06:50:00 0.5 C 4.31 g/m*3 0.5 C 0 km/h
84 14-04-2020 06:55:00 0.6 C 4.34 g/m*3 0.6 C 0 km/h
85 14-04-2020 07:00:00 0.7 C 4.37 g/m*3 0.7 C 0 km/h
86 14-04-2020 07:05:00 0.8 C 4.4 g/m*3 0.8 C 0 km/h
87 14-04-2020 07:10:00 0.9 C 4.38 g/m*3 0.9 C 0 km/h
88 14-04-2020 07:15:00 0.9 C 4.38 g/m*3 0.9 C 0 km/h
89 14-04-2020 07:20:00 1.1 C 4.44 g/m*3 1.1 C 0 km/h
90 14-04-2020 07:25:00 1.2 C 4.47 g/m*3 1.2 C 0 km/h
91 14-04-2020 07:30:00 1.4 C 4.53 g/m*3 1.4 C 0 km/h
92 14-04-2020 07:35:00 1.5 C 4.51 g/m*3 1.5 C 0 km/h
93 14-04-2020 07:40:00 1.6 C 4.54 g/m*3 1.6 C 0 km/h
94 14-04-2020 07:45:00 1.8 C 4.6 g/m*3 1.8 C 0 km/h
95 14-04-2020 07:50:00 1.9 C 4.58 g/m*3 1.9 C 0 km/h
96 14-04-2020 07:55:00 2.1 C 4.64 g/m*3 2.1 C 0 km/h
97 14-04-2020 08:00:00 2.2 C 4.68 g/m*3 2.2 C 0 km/h
98 14-04-2020 08:05:00 2.3 C 4.71 g/m*3 2.3 C 0 km/h
99 14-04-2020 08:10:00 2.4 C 4.74 g/m*3 2.4 C 0 km/h
100 14-04-2020 08:15:00 2.5 C 4.71 g/m*3 2.5 C 0 km/h
Sensor: Nr:Datum:Temp:Abs-Feuchte:Windchill:Wind:
Aussen-T/F 101 14-04-2020 08:20:00 2.6 C 4.75 g/m*3 2.6 C 0 km/h
102 14-04-2020 08:25:00 2.6 C 4.75 g/m*3 2.6 C 0 km/h
103 14-04-2020 08:30:00 2.6 C 4.8 g/m*3 2.6 C 0 km/h
104 14-04-2020 08:35:00 2.6 C 4.8 g/m*3 2.6 C 4.8 km/h
105 14-04-2020 08:40:00 2.6 C 4.8 g/m*3 2.6 C 3.2 km/h
106 14-04-2020 08:45:00 2.6 C 4.8 g/m*3 2.6 C 0 km/h
107 14-04-2020 08:50:00 2.7 C 4.84 g/m*3 2.7 C 0 km/h
108 14-04-2020 08:55:00 2.8 C 4.87 g/m*3 2.8 C 1.6 km/h
109 14-04-2020 09:00:00 2.9 C 4.84 g/m*3 2.9 C 1.6 km/h
110 14-04-2020 09:05:00 3.1 C 4.91 g/m*3 3.1 C 1.6 km/h
111 14-04-2020 09:10:00 3.3 C 4.97 g/m*3 3.3 C 0 km/h
112 14-04-2020 09:15:00 3.6 C 4.95 g/m*3 3.6 C 1.6 km/h
113 14-04-2020 09:20:00 3.9 C 4.99 g/m*3 3.9 C 1.6 km/h
114 14-04-2020 09:25:00 4.3 C 5.12 g/m*3 4.3 C 1.6 km/h
115 14-04-2020 09:30:00 4.6 C 5.1 g/m*3 4.6 C 0 km/h
116 14-04-2020 09:35:00 4.9 C 5.06 g/m*3 4.9 C 3.2 km/h
117 14-04-2020 09:40:00 5.1 C 5.06 g/m*3 5.1 C 4.8 km/h
118 14-04-2020 09:45:00 5.2 C 5.03 g/m*3 5.2 C 3.2 km/h
119 14-04-2020 09:50:00 5.4 C 5.02 g/m*3 5.4 C 3.2 km/h
120 14-04-2020 09:55:00 5.6 C 5.09 g/m*3 5.6 C 1.6 km/h
121 14-04-2020 10:00:00 5.9 C 5.05 g/m*3 5.9 C 4.8 km/h
122 14-04-2020 10:05:00 6.1 C 5.11 g/m*3 4.86 C 6.4 km/h
123 14-04-2020 10:10:00 6.2 C 5.07 g/m*3 6.2 C 4.8 km/h
124 14-04-2020 10:15:00 6.1 C 4.97 g/m*3 6.1 C 4.8 km/h
125 14-04-2020 10:20:00 6.1 C 4.97 g/m*3 6.1 C 4.8 km/h
Sensor: Nr:Datum:Temp:Abs-Feuchte:Windchill:Wind:
Aussen-T/F 126 14-04-2020 10:25:00 6.1 C 4.97 g/m*3 6.1 C 3.2 km/h
127 14-04-2020 10:30:00 6.2 C 5 g/m*3 6.2 C 1.6 km/h
128 14-04-2020 10:35:00 6.4 C 5.07 g/m*3 4.75 C 8.1 km/h
129 14-04-2020 10:40:00 6.7 C 4.86 g/m*3 5.56 C 6.4 km/h
130 14-04-2020 10:45:00 6.9 C 4.93 g/m*3 5.34 C 8.1 km/h
131 14-04-2020 10:50:00 7.2 C 4.95 g/m*3 4.77 C 12.9 km/h
132 14-04-2020 10:55:00 7.4 C 4.93 g/m*3 5.02 C 12.9 km/h
133 14-04-2020 11:00:00 7.6 C 4.83 g/m*3 5.26 C 12.9 km/h
134 14-04-2020 11:05:00 7.6 C 4.83 g/m*3 5.53 C 11.3 km/h
135 14-04-2020 11:10:00 7.6 C 4.67 g/m*3 5.53 C 11.3 km/h
136 14-04-2020 11:15:00 7.6 C 4.43 g/m*3 5.53 C 11.3 km/h
137 14-04-2020 11:20:00 7.7 C 4.54 g/m*3 5.38 C 12.9 km/h
138 14-04-2020 11:25:00 7.7 C 4.54 g/m*3 5.38 C 12.9 km/h
139 14-04-2020 11:30:00 7.6 C 4.51 g/m*3 4.25 C 20.9 km/h
140 14-04-2020 11:35:00 7.7 C 4.54 g/m*3 5.65 C 11.3 km/h
141 14-04-2020 11:40:00 8 C 4.38 g/m*3 5.75 C 12.9 km/h
142 14-04-2020 11:45:00 8.2 C 4.44 g/m*3 5.76 C 14.5 km/h
143 14-04-2020 11:50:00 8 C 4.38 g/m*3 5.3 C 16.1 km/h
144 14-04-2020 11:55:00 7.9 C 4.35 g/m*3 5.63 C 12.9 km/h
145 14-04-2020 12:00:00 7.9 C 4.44 g/m*3 6.52 C 8.1 km/h
146 14-04-2020 12:05:00 8 C 4.46 g/m*3 5.3 C 16.1 km/h
147 14-04-2020 12:10:00 8 C 4.55 g/m*3 5.52 C 14.5 km/h
148 14-04-2020 12:15:00 8 C 4.63 g/m*3 6.01 C 11.3 km/h
149 14-04-2020 12:20:00 8.1 C 4.66 g/m*3 5.64 C 14.5 km/h
150 14-04-2020 12:25:00 8.1 C 4.58 g/m*3 6.75 C 8.1 km/h
Sensor: Nr:Datum:Temp:Abs-Feuchte:Windchill:Wind:
Aussen-T/F 151 14-04-2020 12:30:00 8.1 C 4.49 g/m*3 8.1 C 4.8 km/h
152 14-04-2020 12:35:00 8.1 C 4.58 g/m*3 6.13 C 11.3 km/h
153 14-04-2020 12:40:00 8.3 C 4.55 g/m*3 5.68 C 16.1 km/h
154 14-04-2020 12:45:00 8.4 C 4.5 g/m*3 7.52 C 6.4 km/h
155 14-04-2020 12:50:00 8.6 C 4.55 g/m*3 7.75 C 6.4 km/h
156 14-04-2020 12:55:00 8.7 C 4.5 g/m*3 7.46 C 8.1 km/h
157 14-04-2020 13:00:00 8.7 C 4.41 g/m*3 7.87 C 6.4 km/h
158 14-04-2020 13:05:00 8.8 C 4.61 g/m*3 7.25 C 9.7 km/h
159 14-04-2020 13:10:00 8.9 C 4.64 g/m*3 7.09 C 11.3 km/h
160 14-04-2020 13:15:00 8.9 C 4.64 g/m*3 7.37 C 9.7 km/h
161 14-04-2020 13:20:00 8.9 C 4.73 g/m*3 7.37 C 9.7 km/h
162 14-04-2020 13:25:00 9.1 C 4.79 g/m*3 8.33 C 6.4 km/h
163 14-04-2020 13:30:00 9.2 C 4.64 g/m*3 7.73 C 9.7 km/h
164 14-04-2020 13:35:00 9.2 C 4.64 g/m*3 7.73 C 9.7 km/h
165 14-04-2020 13:40:00 9.3 C 4.76 g/m*3 8.16 C 8.1 km/h
166 14-04-2020 13:45:00 9.3 C 4.49 g/m*3 8.16 C 8.1 km/h
167 14-04-2020 13:50:00 9.1 C 4.44 g/m*3 7.61 C 9.7 km/h
168 14-04-2020 13:55:00 9 C 4.58 g/m*3 7.81 C 8.1 km/h
169 14-04-2020 14:00:00 9.1 C 4.61 g/m*3 7.61 C 9.7 km/h
170 14-04-2020 14:05:00 9.2 C 4.55 g/m*3 8.05 C 8.1 km/h
171 14-04-2020 14:10:00 9.3 C 4.49 g/m*3 7.85 C 9.7 km/h
172 14-04-2020 14:15:00 9.6 C 4.49 g/m*3 8.52 C 8.1 km/h
173 14-04-2020 14:20:00 9.8 C 4.73 g/m*3 9.14 C 6.4 km/h
174 14-04-2020 14:25:00 10.2 C 4.57 g/m*3 8.92 C 9.7 km/h
175 14-04-2020 14:30:00 10.1 C 4.54 g/m*3 8.54 C 11.3 km/h
Sensor: Nr:Datum:Temp:Abs-Feuchte:Windchill:Wind:
Aussen-T/F 176 14-04-2020 14:35:00 10.2 C 4.57 g/m*3 9.22 C 8.1 km/h
177 14-04-2020 14:40:00 10.2 C 4.57 g/m*3 9.22 C 8.1 km/h
178 14-04-2020 14:45:00 10.2 C 4.57 g/m*3 8.92 C 9.7 km/h
179 14-04-2020 14:50:00 10.3 C 4.6 g/m*3 9.34 C 8.1 km/h
180 14-04-2020 14:55:00 10.4 C 4.63 g/m*3 9.16 C 9.7 km/h
181 14-04-2020 15:00:00 10.4 C 4.63 g/m*3 9.46 C 8.1 km/h
182 14-04-2020 15:05:00 10.4 C 4.53 g/m*3 9.83 C 6.4 km/h
183 14-04-2020 15:10:00 10.6 C 4.68 g/m*3 9.69 C 8.1 km/h
184 14-04-2020 15:15:00 10.8 C 4.65 g/m*3 9.38 C 11.3 km/h
185 14-04-2020 15:20:00 10.9 C 4.58 g/m*3 9.51 C 11.3 km/h
186 14-04-2020 15:25:00 10.8 C 4.55 g/m*3 9.64 C 9.7 km/h
187 14-04-2020 15:30:00 10.7 C 4.42 g/m*3 10.18 C 6.4 km/h
188 14-04-2020 15:35:00 10.9 C 4.67 g/m*3 9.76 C 9.7 km/h
189 14-04-2020 15:40:00 11.2 C 4.76 g/m*3 11.2 C 9.7 km/h
190 14-04-2020 15:45:00 11.2 C 4.56 g/m*3 11.2 C 16.1 km/h
191 14-04-2020 15:50:00 11.2 C 4.56 g/m*3 11.2 C 8.1 km/h
192 14-04-2020 15:55:00 11.1 C 4.53 g/m*3 11.1 C 11.3 km/h
193 14-04-2020 16:00:00 11.2 C 4.66 g/m*3 11.2 C 11.3 km/h
194 14-04-2020 16:05:00 11.3 C 4.59 g/m*3 11.3 C 9.7 km/h
195 14-04-2020 16:10:00 11.3 C 4.69 g/m*3 11.3 C 9.7 km/h
196 14-04-2020 16:15:00 11.6 C 4.78 g/m*3 11.6 C 8.1 km/h
197 14-04-2020 16:20:00 12 C 4.8 g/m*3 12 C 11.3 km/h
198 14-04-2020 16:25:00 12.1 C 4.5 g/m*3 12.1 C 9.7 km/h
199 14-04-2020 16:30:00 11.8 C 4.53 g/m*3 11.8 C 6.4 km/h
200 14-04-2020 16:35:00 11.8 C 4.74 g/m*3 11.8 C 14.5 km/h
Sensor: Nr:Datum:Temp:Abs-Feuchte:Windchill:Wind:
Aussen-T/F 201 14-04-2020 16:40:00 11.8 C 4.74 g/m*3 11.8 C 12.9 km/h
202 14-04-2020 16:45:00 11.9 C 4.77 g/m*3 11.9 C 8.1 km/h
203 14-04-2020 16:50:00 12.4 C 4.92 g/m*3 12.4 C 6.4 km/h
204 14-04-2020 16:55:00 12.7 C 4.68 g/m*3 12.7 C 16.1 km/h
205 14-04-2020 17:00:00 12.4 C 4.7 g/m*3 12.4 C 11.3 km/h
206 14-04-2020 17:05:00 11.7 C 4.5 g/m*3 11.7 C 12.9 km/h
207 14-04-2020 17:10:00 11.4 C 4.62 g/m*3 11.4 C 9.7 km/h
208 14-04-2020 17:15:00 11.6 C 4.68 g/m*3 11.6 C 12.9 km/h
209 14-04-2020 17:20:00 12.2 C 4.64 g/m*3 12.2 C 6.4 km/h
210 14-04-2020 17:25:00 12.5 C 4.62 g/m*3 12.5 C 9.7 km/h
211 14-04-2020 17:30:00 12.5 C 4.51 g/m*3 12.5 C 8.1 km/h
212 14-04-2020 17:35:00 12.5 C 4.51 g/m*3 12.5 C 6.4 km/h
213 14-04-2020 17:40:00 12.6 C 4.65 g/m*3 12.6 C 11.3 km/h
214 14-04-2020 17:45:00 12.6 C 4.65 g/m*3 12.6 C 11.3 km/h
215 14-04-2020 17:50:00 12.6 C 4.76 g/m*3 12.6 C 11.3 km/h
216 14-04-2020 17:55:00 12.9 C 4.73 g/m*3 12.9 C 11.3 km/h
217 14-04-2020 18:00:00 13 C 4.76 g/m*3 13 C 11.3 km/h
218 14-04-2020 18:05:00 13 C 4.65 g/m*3 13 C 9.7 km/h
219 14-04-2020 18:10:00 12.9 C 4.62 g/m*3 12.9 C 8.1 km/h
220 14-04-2020 18:15:00 12.8 C 4.59 g/m*3 12.8 C 8.1 km/h
221 14-04-2020 18:20:00 12.8 C 4.59 g/m*3 12.8 C 12.9 km/h
222 14-04-2020 18:25:00 12.8 C 4.7 g/m*3 12.8 C 11.3 km/h
223 14-04-2020 18:30:00 12.8 C 4.59 g/m*3 12.8 C 9.7 km/h
224 14-04-2020 18:35:00 12.7 C 4.68 g/m*3 12.7 C 9.7 km/h
225 14-04-2020 18:40:00 12.8 C 4.7 g/m*3 12.8 C 4.8 km/h
Sensor: Nr:Datum:Temp:Abs-Feuchte:Windchill:Wind:
Aussen-T/F 226 14-04-2020 18:45:00 12.8 C 4.7 g/m*3 12.8 C 11.3 km/h
227 14-04-2020 18:50:00 12.7 C 4.56 g/m*3 12.7 C 11.3 km/h
228 14-04-2020 18:55:00 12.4 C 4.59 g/m*3 12.4 C 9.7 km/h
229 14-04-2020 19:00:00 12.4 C 4.59 g/m*3 12.4 C 8.1 km/h
230 14-04-2020 19:05:00 12.3 C 4.56 g/m*3 12.3 C 6.4 km/h
231 14-04-2020 19:10:00 12.2 C 4.64 g/m*3 12.2 C 6.4 km/h
232 14-04-2020 19:15:00 11.9 C 4.45 g/m*3 11.9 C 9.7 km/h
233 14-04-2020 19:20:00 11.7 C 4.5 g/m*3 11.7 C 11.3 km/h
234 14-04-2020 19:25:00 11.4 C 4.41 g/m*3 11.4 C 12.9 km/h
235 14-04-2020 19:30:00 11.2 C 4.56 g/m*3 11.2 C 6.4 km/h
236 14-04-2020 19:35:00 11.1 C 4.63 g/m*3 11.1 C 6.4 km/h
237 14-04-2020 19:40:00 10.9 C 4.67 g/m*3 10.41 C 6.4 km/h
238 14-04-2020 19:45:00 10.8 C 4.65 g/m*3 9.93 C 8.1 km/h
239 14-04-2020 19:50:00 10.7 C 4.62 g/m*3 9.81 C 8.1 km/h
240 14-04-2020 19:55:00 10.6 C 4.68 g/m*3 10.6 C 3.2 km/h
241 14-04-2020 20:00:00 10.4 C 4.63 g/m*3 10.4 C 4.8 km/h
242 14-04-2020 20:05:00 10.2 C 4.76 g/m*3 9.6 C 6.4 km/h
243 14-04-2020 20:10:00 10 C 4.6 g/m*3 9.37 C 6.4 km/h
244 14-04-2020 20:15:00 9.8 C 4.64 g/m*3 9.14 C 6.4 km/h
245 14-04-2020 20:20:00 9.7 C 4.98 g/m*3 9.7 C 1.6 km/h
246 14-04-2020 20:25:00 9.3 C 4.94 g/m*3 9.3 C 1.6 km/h
247 14-04-2020 20:30:00 8.8 C 4.87 g/m*3 8.8 C 3.2 km/h
248 14-04-2020 20:35:00 8.3 C 4.89 g/m*3 8.3 C 3.2 km/h
249 14-04-2020 20:40:00 7.9 C 5.01 g/m*3 7.9 C 3.2 km/h
250 14-04-2020 20:45:00 7.4 C 4.85 g/m*3 7.4 C 4.8 km/h
Sensor: Nr:Datum:Temp:Abs-Feuchte:Windchill:Wind:
Aussen-T/F 251 14-04-2020 20:50:00 7.2 C 4.87 g/m*3 7.2 C 4.8 km/h
252 14-04-2020 20:55:00 7 C 4.88 g/m*3 5.9 C 6.4 km/h
253 14-04-2020 21:00:00 6.8 C 4.89 g/m*3 5.67 C 6.4 km/h
254 14-04-2020 21:05:00 6.7 C 4.86 g/m*3 6.7 C 4.8 km/h
255 14-04-2020 21:10:00 6.5 C 4.87 g/m*3 6.5 C 4.8 km/h
256 14-04-2020 21:15:00 6.3 C 4.89 g/m*3 6.3 C 4.8 km/h
257 14-04-2020 21:20:00 6.2 C 4.85 g/m*3 6.2 C 4.8 km/h
258 14-04-2020 21:25:00 6.1 C 4.89 g/m*3 4.86 C 6.4 km/h
259 14-04-2020 21:30:00 6 C 4.94 g/m*3 4.75 C 6.4 km/h
260 14-04-2020 21:35:00 5.9 C 4.98 g/m*3 5.9 C 4.8 km/h
261 14-04-2020 21:40:00 5.8 C 4.94 g/m*3 5.8 C 0 km/h
262 14-04-2020 21:45:00 5.7 C 4.91 g/m*3 5.7 C 4.8 km/h
263 14-04-2020 21:50:00 5.7 C 4.91 g/m*3 5.7 C 4.8 km/h
264 14-04-2020 21:55:00 5.6 C 4.88 g/m*3 4.29 C 6.4 km/h
265 14-04-2020 22:00:00 5.6 C 4.88 g/m*3 5.6 C 4.8 km/h
266 14-04-2020 22:05:00 5.6 C 4.95 g/m*3 5.6 C 4.8 km/h
267 14-04-2020 22:10:00 5.5 C 4.92 g/m*3 5.5 C 3.2 km/h
268 14-04-2020 22:15:00 5.4 C 4.88 g/m*3 5.4 C 3.2 km/h
269 14-04-2020 22:20:00 5.3 C 4.85 g/m*3 5.3 C 1.6 km/h
270 14-04-2020 22:25:00 5.4 C 4.95 g/m*3 5.4 C 1.6 km/h
271 14-04-2020 22:30:00 5.4 C 4.88 g/m*3 5.4 C 0 km/h
272 14-04-2020 22:35:00 5.4 C 4.88 g/m*3 5.4 C 0 km/h
273 14-04-2020 22:40:00 5.3 C 4.85 g/m*3 5.3 C 0 km/h
274 14-04-2020 22:45:00 5.3 C 4.92 g/m*3 5.3 C 1.6 km/h
275 14-04-2020 22:50:00 5.2 C 4.89 g/m*3 5.2 C 0 km/h
Sensor: Nr:Datum:Temp:Abs-Feuchte:Windchill:Wind:
Aussen-T/F 276 14-04-2020 22:55:00 5 C 4.89 g/m*3 5 C 3.2 km/h
277 14-04-2020 23:00:00 4.9 C 4.86 g/m*3 4.9 C 3.2 km/h
278 14-04-2020 23:05:00 4.8 C 4.9 g/m*3 4.8 C 1.6 km/h
279 14-04-2020 23:10:00 4.7 C 4.93 g/m*3 4.7 C 0 km/h
280 14-04-2020 23:15:00 4.5 C 4.86 g/m*3 4.5 C 0 km/h
281 14-04-2020 23:20:00 4.3 C 4.8 g/m*3 4.3 C 0 km/h
282 14-04-2020 23:25:00 4.2 C 4.83 g/m*3 4.2 C 1.6 km/h
283 14-04-2020 23:30:00 4.1 C 4.86 g/m*3 4.1 C 0 km/h
284 14-04-2020 23:35:00 3.9 C 4.86 g/m*3 3.9 C 1.6 km/h
285 14-04-2020 23:40:00 3.8 C 4.83 g/m*3 3.8 C 0 km/h
286 14-04-2020 23:45:00 3.7 C 4.8 g/m*3 3.7 C 0 km/h
287 14-04-2020 23:50:00 3.6 C 4.83 g/m*3 3.6 C 0 km/h
288 14-04-2020 23:55:00 3.6 C 4.83 g/m*3 3.6 C 0 km/h
289 15-04-2020 00:00:00 3.4 C 4.76 g/m*3 3.4 C 0 km/h
290 15-04-2020 00:05:00 3.3 C 4.79 g/m*3 3.3 C 0 km/h
291 15-04-2020 00:10:00 3.2 C 4.76 g/m*3 3.2 C 0 km/h
292 15-04-2020 00:15:00 3.1 C 4.73 g/m*3 3.1 C 0 km/h
293 15-04-2020 00:20:00 3.1 C 4.73 g/m*3 3.1 C 0 km/h
294 15-04-2020 00:25:00 2.9 C 4.72 g/m*3 2.9 C 0 km/h
295 15-04-2020 00:30:00 2.8 C 4.69 g/m*3 2.8 C 0 km/h
296 15-04-2020 00:35:00 2.8 C 4.69 g/m*3 2.8 C 0 km/h
297 15-04-2020 00:40:00 2.7 C 4.66 g/m*3 2.7 C 0 km/h
298 15-04-2020 00:45:00 2.6 C 4.69 g/m*3 2.6 C 0 km/h
299 15-04-2020 00:50:00 2.5 C 4.71 g/m*3 2.5 C 0 km/h
300 15-04-2020 00:55:00 2.4 C 4.68 g/m*3 2.4 C 0 km/h
Sensor: Nr:Datum:Temp:Abs-Feuchte:Windchill:Wind:
Aussen-T/F 301 15-04-2020 01:00:00 2.4 C 4.68 g/m*3 2.4 C 0 km/h
302 15-04-2020 01:05:00 2.4 C 4.68 g/m*3 2.4 C 0 km/h
303 15-04-2020 01:10:00 2.3 C 4.65 g/m*3 2.3 C 0 km/h
304 15-04-2020 01:15:00 2.3 C 4.65 g/m*3 2.3 C 0 km/h
305 15-04-2020 01:20:00 2.2 C 4.68 g/m*3 2.2 C 0 km/h
306 15-04-2020 01:25:00 2.1 C 4.64 g/m*3 2.1 C 0 km/h
307 15-04-2020 01:30:00 2 C 4.61 g/m*3 2 C 0 km/h
308 15-04-2020 01:35:00 1.9 C 4.58 g/m*3 1.9 C 0 km/h
309 15-04-2020 01:40:00 1.9 C 4.64 g/m*3 1.9 C 0 km/h
310 15-04-2020 01:45:00 1.9 C 4.64 g/m*3 1.9 C 0 km/h
311 15-04-2020 01:50:00 1.8 C 4.6 g/m*3 1.8 C 0 km/h
312 15-04-2020 01:55:00 1.7 C 4.57 g/m*3 1.7 C 0 km/h
313 15-04-2020 02:00:00 1.7 C 4.57 g/m*3 1.7 C 0 km/h
314 15-04-2020 02:05:00 1.6 C 4.54 g/m*3 1.6 C 0 km/h
315 15-04-2020 02:10:00 1.6 C 4.6 g/m*3 1.6 C 0 km/h
316 15-04-2020 02:15:00 1.6 C 4.6 g/m*3 1.6 C 0 km/h
317 15-04-2020 02:20:00 1.5 C 4.57 g/m*3 1.5 C 0 km/h
318 15-04-2020 02:25:00 1.4 C 4.53 g/m*3 1.4 C 0 km/h
319 15-04-2020 02:30:00 1.4 C 4.59 g/m*3 1.4 C 0 km/h
320 15-04-2020 02:35:00 1.3 C 4.56 g/m*3 1.3 C 0 km/h
321 15-04-2020 02:40:00 1.3 C 4.56 g/m*3 1.3 C 0 km/h
322 15-04-2020 02:45:00 1.3 C 4.56 g/m*3 1.3 C 0 km/h
323 15-04-2020 02:50:00 1.2 C 4.53 g/m*3 1.2 C 0 km/h
324 15-04-2020 02:55:00 1.1 C 4.49 g/m*3 1.1 C 0 km/h
325 15-04-2020 03:00:00 1.1 C 4.55 g/m*3 1.1 C 0 km/h
Sensor: Nr:Datum:Temp:Abs-Feuchte:Windchill:Wind:
Aussen-T/F 326 15-04-2020 03:05:00 1.1 C 4.55 g/m*3 1.1 C 0 km/h
327 15-04-2020 03:10:00 1 C 4.52 g/m*3 1 C 0 km/h
328 15-04-2020 03:15:00 0.9 C 4.48 g/m*3 0.9 C 0 km/h
329 15-04-2020 03:20:00 0.9 C 4.48 g/m*3 0.9 C 0 km/h
330 15-04-2020 03:25:00 0.8 C 4.45 g/m*3 0.8 C 0 km/h
331 15-04-2020 03:30:00 0.8 C 4.45 g/m*3 0.8 C 0 km/h
332 15-04-2020 03:35:00 0.8 C 4.51 g/m*3 0.8 C 0 km/h
333 15-04-2020 03:40:00 0.7 C 4.47 g/m*3 0.7 C 0 km/h
334 15-04-2020 03:45:00 0.7 C 4.47 g/m*3 0.7 C 0 km/h
335 15-04-2020 03:50:00 0.7 C 4.47 g/m*3 0.7 C 0 km/h
336 15-04-2020 03:55:00 0.7 C 4.47 g/m*3 0.7 C 0 km/h
337 15-04-2020 04:00:00 0.6 C 4.44 g/m*3 0.6 C 0 km/h
338 15-04-2020 04:05:00 0.6 C 4.44 g/m*3 0.6 C 0 km/h
339 15-04-2020 04:10:00 0.6 C 4.44 g/m*3 0.6 C 0 km/h
340 15-04-2020 04:15:00 0.6 C 4.49 g/m*3 0.6 C 0 km/h
341 15-04-2020 04:20:00 0.6 C 4.49 g/m*3 0.6 C 0 km/h
342 15-04-2020 04:25:00 0.6 C 4.49 g/m*3 0.6 C 0 km/h
343 15-04-2020 04:30:00 0.6 C 4.49 g/m*3 0.6 C 0 km/h
344 15-04-2020 04:35:00 0.5 C 4.46 g/m*3 0.5 C 0 km/h
345 15-04-2020 04:40:00 0.5 C 4.46 g/m*3 0.5 C 0 km/h
346 15-04-2020 04:45:00 0.4 C 4.43 g/m*3 0.4 C 0 km/h
347 15-04-2020 04:50:00 0.4 C 4.43 g/m*3 0.4 C 0 km/h
348 15-04-2020 04:55:00 0.4 C 4.43 g/m*3 0.4 C 0 km/h
349 15-04-2020 05:00:00 0.4 C 4.43 g/m*3 0.4 C 0 km/h
350 15-04-2020 05:05:00 0.4 C 4.48 g/m*3 0.4 C 0 km/h
Sensor: Nr:Datum:Temp:Abs-Feuchte:Windchill:Wind:
Aussen-T/F 351 15-04-2020 05:10:00 0.4 C 4.48 g/m*3 0.4 C 0 km/h
352 15-04-2020 05:15:00 0.4 C 4.48 g/m*3 0.4 C 0 km/h
353 15-04-2020 05:20:00 0.4 C 4.48 g/m*3 0.4 C 0 km/h
354 15-04-2020 05:25:00 0.3 C 4.45 g/m*3 0.3 C 0 km/h
355 15-04-2020 05:30:00 0.3 C 4.45 g/m*3 0.3 C 0 km/h
356 15-04-2020 05:35:00 0.3 C 4.45 g/m*3 0.3 C 0 km/h
357 15-04-2020 05:40:00 0.3 C 4.45 g/m*3 0.3 C 0 km/h
358 15-04-2020 05:45:00 0.3 C 4.45 g/m*3 0.3 C 0 km/h
359 15-04-2020 05:50:00 0.2 C 4.42 g/m*3 0.2 C 0 km/h
360 15-04-2020 05:55:00 0.2 C 4.42 g/m*3 0.2 C 0 km/h
361 15-04-2020 06:00:00 0.1 C 4.39 g/m*3 0.1 C 0 km/h
362 15-04-2020 06:05:00 0.1 C 4.39 g/m*3 0.1 C 0 km/h
363 15-04-2020 06:10:00 0.1 C 4.39 g/m*3 0.1 C 0 km/h
364 15-04-2020 06:15:00 0.1 C 4.39 g/m*3 0.1 C 0 km/h
365 15-04-2020 06:20:00 0.1 C 4.44 g/m*3 0.1 C 0 km/h
366 15-04-2020 06:25:00 0.2 C 4.47 g/m*3 0.2 C 0 km/h
367 15-04-2020 06:30:00 0.2 C 4.47 g/m*3 0.2 C 0 km/h
368 15-04-2020 06:35:00 0.2 C 4.47 g/m*3 0.2 C 0 km/h
369 15-04-2020 06:40:00 0.1 C 4.44 g/m*3 0.1 C 0 km/h
370 15-04-2020 06:45:00 0.1 C 4.44 g/m*3 0.1 C 0 km/h
371 15-04-2020 06:50:00 0 C 4.41 g/m*3 0 C 0 km/h
372 15-04-2020 06:55:00 -0.1 C 4.38 g/m*3 -0.1 C 0 km/h
373 15-04-2020 07:00:00 -0.1 C 4.38 g/m*3 -0.1 C 0 km/h
374 15-04-2020 07:05:00 -0.1 C 4.38 g/m*3 -0.1 C 0 km/h
375 15-04-2020 07:10:00 -0.1 C 4.38 g/m*3 -0.1 C 0 km/h
Sensor: Nr:Datum:Temp:Abs-Feuchte:Windchill:Wind:
Aussen-T/F 376 15-04-2020 07:15:00 0 C 4.46 g/m*3 0 C 0 km/h
377 15-04-2020 07:20:00 0.1 C 4.49 g/m*3 0.1 C 0 km/h
378 15-04-2020 07:25:00 0.1 C 4.49 g/m*3 0.1 C 0 km/h
379 15-04-2020 07:30:00 0.2 C 4.52 g/m*3 0.2 C 0 km/h
380 15-04-2020 07:35:00 0.3 C 4.55 g/m*3 0.3 C 1.6 km/h
381 15-04-2020 07:40:00 0.4 C 4.58 g/m*3 0.4 C 0 km/h
382 15-04-2020 07:45:00 0.5 C 4.61 g/m*3 0.5 C 0 km/h
383 15-04-2020 07:50:00 0.6 C 4.65 g/m*3 0.6 C 0 km/h
384 15-04-2020 07:55:00 0.7 C 4.68 g/m*3 0.7 C 1.6 km/h
385 15-04-2020 08:00:00 0.8 C 4.71 g/m*3 0.8 C 1.6 km/h
386 15-04-2020 08:05:00 0.9 C 4.74 g/m*3 0.9 C 1.6 km/h
387 15-04-2020 08:10:00 1.1 C 4.81 g/m*3 1.1 C 1.6 km/h
388 15-04-2020 08:15:00 1.2 C 4.84 g/m*3 1.2 C 0 km/h
389 15-04-2020 08:20:00 1.3 C 4.82 g/m*3 1.3 C 0 km/h
390 15-04-2020 08:25:00 1.4 C 4.85 g/m*3 1.4 C 0 km/h
391 15-04-2020 08:30:00 1.5 C 4.89 g/m*3 1.5 C 0 km/h
392 15-04-2020 08:35:00 1.6 C 4.92 g/m*3 1.6 C 0 km/h
393 15-04-2020 08:40:00 1.8 C 4.93 g/m*3 1.8 C 0 km/h
394 15-04-2020 08:45:00 1.9 C 4.97 g/m*3 1.9 C 0 km/h
395 15-04-2020 08:50:00 2.1 C 4.98 g/m*3 2.1 C 0 km/h
396 15-04-2020 08:55:00 2.2 C 5.01 g/m*3 2.2 C 1.6 km/h
397 15-04-2020 09:00:00 2.4 C 5.02 g/m*3 2.4 C 0 km/h
398 15-04-2020 09:05:00 2.6 C 5.03 g/m*3 2.6 C 0 km/h
399 15-04-2020 09:10:00 2.7 C 5.01 g/m*3 2.7 C 0 km/h
400 15-04-2020 09:15:00 2.8 C 5.04 g/m*3 2.8 C 0 km/h
Sensor: Nr:Datum:Temp:Abs-Feuchte:Windchill:Wind:
Aussen-T/F 401 15-04-2020 09:20:00 3 C 5.11 g/m*3 3 C 0 km/h
402 15-04-2020 09:25:00 3.2 C 5.12 g/m*3 3.2 C 0 km/h
403 15-04-2020 09:30:00 3.3 C 5.16 g/m*3 3.3 C 0 km/h
404 15-04-2020 09:35:00 3.5 C 5.16 g/m*3 3.5 C 0 km/h
405 15-04-2020 09:40:00 3.7 C 5.17 g/m*3 3.7 C 0 km/h
406 15-04-2020 09:45:00 3.9 C 5.24 g/m*3 3.9 C 0 km/h
407 15-04-2020 09:50:00 4.1 C 5.25 g/m*3 4.1 C 0 km/h
408 15-04-2020 09:55:00 4.3 C 5.25 g/m*3 4.3 C 0 km/h
409 15-04-2020 10:00:00 4.6 C 5.36 g/m*3 4.6 C 0 km/h
410 15-04-2020 10:05:00 4.8 C 5.36 g/m*3 4.8 C 0 km/h
411 15-04-2020 10:10:00 4.9 C 5.4 g/m*3 4.9 C 0 km/h
412 15-04-2020 10:15:00 5.2 C 5.37 g/m*3 5.2 C 0 km/h
413 15-04-2020 10:20:00 5.4 C 5.44 g/m*3 5.4 C 0 km/h
414 15-04-2020 10:25:00 5.7 C 5.55 g/m*3 5.7 C 0 km/h
415 15-04-2020 10:30:00 5.9 C 5.55 g/m*3 5.9 C 0 km/h
416 15-04-2020 10:35:00 6.2 C 5.66 g/m*3 6.2 C 0 km/h
417 15-04-2020 10:40:00 6.4 C 5.51 g/m*3 6.4 C 0 km/h
418 15-04-2020 10:45:00 6.6 C 5.66 g/m*3 6.6 C 0 km/h
419 15-04-2020 10:50:00 6.9 C 5.62 g/m*3 6.9 C 0 km/h
420 15-04-2020 10:55:00 7.2 C 5.73 g/m*3 7.2 C 3.2 km/h
421 15-04-2020 11:00:00 7.4 C 5.73 g/m*3 7.4 C 3.2 km/h
422 15-04-2020 11:05:00 7.8 C 5.88 g/m*3 7.8 C 1.6 km/h
423 15-04-2020 11:10:00 8.1 C 5.82 g/m*3 8.1 C 3.2 km/h
424 15-04-2020 11:15:00 8.4 C 5.94 g/m*3 8.4 C 3.2 km/h
425 15-04-2020 11:20:00 8.8 C 5.92 g/m*3 8.8 C 4.8 km/h
Sensor: Nr:Datum:Temp:Abs-Feuchte:Windchill:Wind:
Aussen-T/F 426 15-04-2020 11:25:00 9.1 C 5.94 g/m*3 9.1 C 1.6 km/h
427 15-04-2020 11:30:00 9.4 C 6.06 g/m*3 9.4 C 0 km/h
428 15-04-2020 11:35:00 9.8 C 5.75 g/m*3 8.75 C 8.1 km/h
429 15-04-2020 11:40:00 10.2 C 5.71 g/m*3 10.2 C 4.8 km/h
430 15-04-2020 11:45:00 10.6 C 5.27 g/m*3 9.4 C 9.7 km/h
431 15-04-2020 11:50:00 10.9 C 5.17 g/m*3 10.9 C 4.8 km/h
432 15-04-2020 11:55:00 11.3 C 5.1 g/m*3 11.3 C 4.8 km/h
433 15-04-2020 12:00:00 11.7 C 5.23 g/m*3 11.7 C 4.8 km/h
434 15-04-2020 12:05:00 11.9 C 4.98 g/m*3 11.9 C 4.8 km/h
435 15-04-2020 12:10:00 12.2 C 5.07 g/m*3 12.2 C 8.1 km/h
436 15-04-2020 12:15:00 12.3 C 4.99 g/m*3 12.3 C 8.1 km/h
437 15-04-2020 12:20:00 12.4 C 5.14 g/m*3 12.4 C 3.2 km/h
438 15-04-2020 12:25:00 12.6 C 5.09 g/m*3 12.6 C 4.8 km/h
439 15-04-2020 12:30:00 12.7 C 5.12 g/m*3 12.7 C 8.1 km/h
440 15-04-2020 12:35:00 12.9 C 5.3 g/m*3 12.9 C 8.1 km/h
441 15-04-2020 12:40:00 13.1 C 5.25 g/m*3 13.1 C 8.1 km/h
442 15-04-2020 12:45:00 13.2 C 5.4 g/m*3 13.2 C 4.8 km/h
443 15-04-2020 12:50:00 13.3 C 5.43 g/m*3 13.3 C 3.2 km/h
444 15-04-2020 12:55:00 13.3 C 5.31 g/m*3 13.3 C 3.2 km/h
445 15-04-2020 13:00:00 13.3 C 5.31 g/m*3 13.3 C 8.1 km/h
446 15-04-2020 13:05:00 13.4 C 5.23 g/m*3 13.4 C 9.7 km/h
447 15-04-2020 13:10:00 13.4 C 5.23 g/m*3 13.4 C 8.1 km/h
448 15-04-2020 13:15:00 13.6 C 5.18 g/m*3 13.6 C 12.9 km/h
449 15-04-2020 13:20:00 13.6 C 5.18 g/m*3 13.6 C 6.4 km/h
450 15-04-2020 13:25:00 13.7 C 5.21 g/m*3 13.7 C 6.4 km/h
Sensor: Nr:Datum:Temp:Abs-Feuchte:Windchill:Wind:
Aussen-T/F 451 15-04-2020 13:30:00 13.9 C 5.27 g/m*3 13.9 C 9.7 km/h
452 15-04-2020 13:35:00 14.2 C 5.25 g/m*3 14.2 C 8.1 km/h
453 15-04-2020 13:40:00 14.3 C 5.16 g/m*3 14.3 C 6.4 km/h
454 15-04-2020 13:45:00 14.4 C 5.07 g/m*3 14.4 C 12.9 km/h
455 15-04-2020 13:50:00 14.6 C 5.13 g/m*3 14.6 C 9.7 km/h
456 15-04-2020 13:55:00 14.6 C 5.26 g/m*3 14.6 C 8.1 km/h
457 15-04-2020 14:00:00 14.7 C 5.16 g/m*3 14.7 C 8.1 km/h
458 15-04-2020 14:05:00 14.9 C 5.23 g/m*3 14.9 C 8.1 km/h
459 15-04-2020 14:10:00 15.1 C 5.03 g/m*3 15.1 C 12.9 km/h
460 15-04-2020 14:15:00 15.2 C 5.19 g/m*3 15.2 C 8.1 km/h
461 15-04-2020 14:20:00 15.4 C 4.99 g/m*3 15.4 C 6.4 km/h
462 15-04-2020 14:25:00 15.4 C 5.26 g/m*3 15.4 C 8.1 km/h
463 15-04-2020 14:30:00 15.6 C 5.19 g/m*3 15.6 C 8.1 km/h
464 15-04-2020 14:35:00 15.7 C 5.22 g/m*3 15.7 C 4.8 km/h
465 15-04-2020 14:40:00 15.9 C 5.15 g/m*3 15.9 C 8.1 km/h
466 15-04-2020 14:45:00 16.1 C 5.35 g/m*3 16.1 C 9.7 km/h
467 15-04-2020 14:50:00 16.2 C 5.1 g/m*3 16.2 C 4.8 km/h
468 15-04-2020 14:55:00 16.3 C 5.27 g/m*3 16.3 C 6.4 km/h
469 15-04-2020 15:00:00 16.5 C 5.34 g/m*3 16.5 C 4.8 km/h
470 15-04-2020 15:05:00 16.6 C 5.23 g/m*3 16.6 C 6.4 km/h
471 15-04-2020 15:10:00 16.6 C 5.09 g/m*3 16.6 C 8.1 km/h
472 15-04-2020 15:15:00 16.6 C 5.23 g/m*3 16.6 C 12.9 km/h
473 15-04-2020 15:20:00 16.7 C 5.12 g/m*3 16.7 C 12.9 km/h
474 15-04-2020 15:25:00 16.9 C 5.61 g/m*3 16.9 C 6.4 km/h
475 15-04-2020 15:30:00 17.3 C 5.75 g/m*3 17.3 C 17.7 km/h
Sensor: Nr:Datum:Temp:Abs-Feuchte:Windchill:Wind:
Aussen-T/F 476 15-04-2020 15:35:00 17.5 C 5.52 g/m*3 17.5 C 11.3 km/h
477 15-04-2020 15:40:00 17.5 C 5.37 g/m*3 17.5 C 8.1 km/h
478 15-04-2020 15:45:00 17.6 C 5.7 g/m*3 17.6 C 6.4 km/h
479 15-04-2020 15:50:00 17.7 C 5.58 g/m*3 17.7 C 8.1 km/h
480 15-04-2020 15:55:00 17.7 C 5.43 g/m*3 17.7 C 9.7 km/h
481 15-04-2020 16:00:00 17.8 C 5.62 g/m*3 17.8 C 8.1 km/h
482 15-04-2020 16:05:00 17.8 C 5.31 g/m*3 17.8 C 8.1 km/h
483 15-04-2020 16:10:00 17.9 C 5.5 g/m*3 17.9 C 9.7 km/h
484 15-04-2020 16:15:00 18.3 C 5.47 g/m*3 18.3 C 9.7 km/h
485 15-04-2020 16:20:00 18.6 C 5.57 g/m*3 18.6 C 4.8 km/h
486 15-04-2020 16:25:00 18.8 C 5.48 g/m*3 18.8 C 4.8 km/h
487 15-04-2020 16:30:00 19.2 C 5.77 g/m*3 19.2 C 11.3 km/h
488 15-04-2020 16:35:00 19.4 C 5.51 g/m*3 19.4 C 9.7 km/h
489 15-04-2020 16:40:00 19.6 C 5.4 g/m*3 19.6 C 8.1 km/h
490 15-04-2020 16:45:00 19.6 C 5.91 g/m*3 19.6 C 3.2 km/h
491 15-04-2020 16:50:00 19.8 C 5.47 g/m*3 19.8 C 4.8 km/h
492 15-04-2020 16:55:00 20.1 C 5.21 g/m*3 20.1 C 3.2 km/h
493 15-04-2020 17:00:00 20.1 C 5.56 g/m*3 20.1 C 8.1 km/h
494 15-04-2020 17:05:00 20.2 C 5.6 g/m*3 20.2 C 4.8 km/h
495 15-04-2020 17:10:00 20.3 C 5.63 g/m*3 20.3 C 8.1 km/h
496 15-04-2020 17:15:00 20.4 C 5.48 g/m*3 20.4 C 8.1 km/h
497 15-04-2020 17:20:00 20.6 C 5.55 g/m*3 20.6 C 11.3 km/h
498 15-04-2020 17:25:00 20.6 C 5.55 g/m*3 20.6 C 6.4 km/h
499 15-04-2020 17:30:00 20.5 C 5.69 g/m*3 20.5 C 9.7 km/h
500 15-04-2020 17:35:00 20.5 C 5.34 g/m*3 20.5 C 6.4 km/h
Sensor: Nr:Datum:Temp:Abs-Feuchte:Windchill:Wind:
Aussen-T/F 501 15-04-2020 17:40:00 20.6 C 5.55 g/m*3 20.6 C 8.1 km/h
502 15-04-2020 17:45:00 20.6 C 5.37 g/m*3 20.6 C 12.9 km/h
503 15-04-2020 17:50:00 20.6 C 5.55 g/m*3 20.6 C 6.4 km/h
504 15-04-2020 17:55:00 20.7 C 6.12 g/m*3 20.7 C 8.1 km/h
505 15-04-2020 18:00:00 20.9 C 5.83 g/m*3 20.9 C 4.8 km/h
506 15-04-2020 18:05:00 20.8 C 6.16 g/m*3 20.8 C 8.1 km/h
507 15-04-2020 18:10:00 20.3 C 5.45 g/m*3 20.3 C 12.9 km/h
508 15-04-2020 18:15:00 20.3 C 6.33 g/m*3 20.3 C 6.4 km/h
509 15-04-2020 18:20:00 20.2 C 5.6 g/m*3 20.2 C 11.3 km/h
510 15-04-2020 18:25:00 19.9 C 5.67 g/m*3 19.9 C 9.7 km/h
511 15-04-2020 18:30:00 19.8 C 5.81 g/m*3 19.8 C 11.3 km/h
512 15-04-2020 18:35:00 19.9 C 5.67 g/m*3 19.9 C 8.1 km/h
513 15-04-2020 18:40:00 20.2 C 5.42 g/m*3 20.2 C 4.8 km/h
514 15-04-2020 18:45:00 20.2 C 5.42 g/m*3 20.2 C 6.4 km/h
515 15-04-2020 18:50:00 20.3 C 5.63 g/m*3 20.3 C 6.4 km/h
516 15-04-2020 18:55:00 20.5 C 5.52 g/m*3 20.5 C 9.7 km/h
517 15-04-2020 19:00:00 20.5 C 5.69 g/m*3 20.5 C 3.2 km/h
518 15-04-2020 19:05:00 20.3 C 5.63 g/m*3 20.3 C 4.8 km/h
519 15-04-2020 19:10:00 20.2 C 5.6 g/m*3 20.2 C 1.6 km/h
520 15-04-2020 19:15:00 20.2 C 5.77 g/m*3 20.2 C 4.8 km/h
521 15-04-2020 19:20:00 19.9 C 5.67 g/m*3 19.9 C 9.7 km/h
522 15-04-2020 19:25:00 19.6 C 5.4 g/m*3 19.6 C 6.4 km/h
523 15-04-2020 19:30:00 19.2 C 5.61 g/m*3 19.2 C 6.4 km/h
524 15-04-2020 19:35:00 18.8 C 5.96 g/m*3 18.8 C 4.8 km/h
525 15-04-2020 19:40:00 18.5 C 5.38 g/m*3 18.5 C 4.8 km/h
Sensor: Nr:Datum:Temp:Abs-Feuchte:Windchill:Wind:
Aussen-T/F 526 15-04-2020 19:45:00 18.1 C 5.56 g/m*3 18.1 C 4.8 km/h
527 15-04-2020 19:50:00 17.7 C 6.04 g/m*3 17.7 C 0 km/h
528 15-04-2020 19:55:00 17.2 C 6.3 g/m*3 17.2 C 3.2 km/h
529 15-04-2020 20:00:00 16.6 C 6.22 g/m*3 16.6 C 3.2 km/h
530 15-04-2020 20:05:00 15.9 C 6.23 g/m*3 15.9 C 3.2 km/h
531 15-04-2020 20:10:00 15.2 C 6.1 g/m*3 15.2 C 4.8 km/h
532 15-04-2020 20:15:00 14.7 C 6.04 g/m*3 14.7 C 4.8 km/h
533 15-04-2020 20:20:00 14.2 C 5.86 g/m*3 14.2 C 6.4 km/h
534 15-04-2020 20:25:00 13.8 C 5.96 g/m*3 13.8 C 6.4 km/h
535 15-04-2020 20:30:00 13.5 C 5.97 g/m*3 13.5 C 6.4 km/h
536 15-04-2020 20:35:00 13.2 C 5.97 g/m*3 13.2 C 6.4 km/h
537 15-04-2020 20:40:00 12.9 C 5.75 g/m*3 12.9 C 6.4 km/h
538 15-04-2020 20:45:00 12.7 C 5.68 g/m*3 12.7 C 6.4 km/h
539 15-04-2020 20:50:00 12.5 C 5.72 g/m*3 12.5 C 6.4 km/h
540 15-04-2020 20:55:00 12.4 C 5.79 g/m*3 12.4 C 6.4 km/h
541 15-04-2020 21:00:00 12.2 C 5.94 g/m*3 12.2 C 3.2 km/h
542 15-04-2020 21:05:00 11.9 C 5.93 g/m*3 11.9 C 4.8 km/h
543 15-04-2020 21:10:00 11.7 C 5.96 g/m*3 11.7 C 4.8 km/h
544 15-04-2020 21:15:00 11.4 C 5.85 g/m*3 11.4 C 4.8 km/h
545 15-04-2020 21:20:00 11.3 C 5.92 g/m*3 11.3 C 4.8 km/h
546 15-04-2020 21:25:00 11.2 C 5.88 g/m*3 11.2 C 4.8 km/h
547 15-04-2020 21:30:00 11.1 C 6.04 g/m*3 11.1 C 4.8 km/h
548 15-04-2020 21:35:00 10.9 C 5.97 g/m*3 10.9 C 3.2 km/h
549 15-04-2020 21:40:00 10.7 C 5.99 g/m*3 10.7 C 1.6 km/h
550 15-04-2020 21:45:00 10.4 C 5.88 g/m*3 10.4 C 1.6 km/h
Sensor: Nr:Datum:Temp:Abs-Feuchte:Windchill:Wind:
Aussen-T/F 551 15-04-2020 21:50:00 10.3 C 6.03 g/m*3 10.3 C 3.2 km/h
552 15-04-2020 21:55:00 10.1 C 6.05 g/m*3 10.1 C 0 km/h
553 15-04-2020 22:00:00 9.8 C 6.03 g/m*3 9.8 C 3.2 km/h
554 15-04-2020 22:05:00 9.6 C 5.95 g/m*3 9.6 C 0 km/h
555 15-04-2020 22:10:00 9.5 C 6.01 g/m*3 9.5 C 3.2 km/h
556 15-04-2020 22:15:00 9.4 C 6.06 g/m*3 9.4 C 1.6 km/h
557 15-04-2020 22:20:00 9.3 C 6.02 g/m*3 9.3 C 0 km/h
558 15-04-2020 22:25:00 9.2 C 6.07 g/m*3 9.2 C 0 km/h
559 15-04-2020 22:30:00 9.1 C 6.03 g/m*3 9.1 C 0 km/h
560 15-04-2020 22:35:00 8.9 C 5.96 g/m*3 8.9 C 0 km/h
561 15-04-2020 22:40:00 8.8 C 5.83 g/m*3 8.8 C 0 km/h
562 15-04-2020 22:45:00 8.7 C 5.79 g/m*3 8.7 C 0 km/h
563 15-04-2020 22:50:00 8.6 C 5.84 g/m*3 8.6 C 0 km/h
564 15-04-2020 22:55:00 8.4 C 5.85 g/m*3 8.4 C 0 km/h
565 15-04-2020 23:00:00 8.3 C 5.9 g/m*3 8.3 C 0 km/h
566 15-04-2020 23:05:00 8.1 C 5.74 g/m*3 8.1 C 0 km/h
567 15-04-2020 23:10:00 7.9 C 5.75 g/m*3 7.9 C 0 km/h
568 15-04-2020 23:15:00 7.8 C 5.71 g/m*3 7.8 C 0 km/h
569 15-04-2020 23:20:00 7.8 C 5.71 g/m*3 7.8 C 0 km/h
570 15-04-2020 23:25:00 7.7 C 5.68 g/m*3 7.7 C 0 km/h
571 15-04-2020 23:30:00 7.6 C 5.8 g/m*3 7.6 C 0 km/h
572 15-04-2020 23:35:00 7.5 C 5.68 g/m*3 7.5 C 0 km/h
573 15-04-2020 23:40:00 7.3 C 5.61 g/m*3 7.3 C 0 km/h
574 15-04-2020 23:45:00 7.3 C 5.69 g/m*3 7.3 C 0 km/h
575 15-04-2020 23:50:00 7.2 C 5.73 g/m*3 7.2 C 0 km/h
Sensor: Nr:Datum:Temp:Abs-Feuchte:Windchill:Wind:
Aussen-T/F 576 15-04-2020 23:55:00 7.1 C 5.69 g/m*3 7.1 C 0 km/h
577 16-04-2020 00:00:00 7.1 C 5.69 g/m*3 7.1 C 0 km/h
578 16-04-2020 00:05:00 7.1 C 5.77 g/m*3 7.1 C 1.6 km/h
579 16-04-2020 00:10:00 6.9 C 5.77 g/m*3 6.9 C 1.6 km/h
580 16-04-2020 00:15:00 6.8 C 5.74 g/m*3 6.8 C 0 km/h
581 16-04-2020 00:20:00 6.7 C 5.7 g/m*3 6.7 C 0 km/h
582 16-04-2020 00:25:00 6.6 C 5.66 g/m*3 6.6 C 0 km/h
583 16-04-2020 00:30:00 6.4 C 5.66 g/m*3 6.4 C 0 km/h
584 16-04-2020 00:35:00 6.4 C 5.66 g/m*3 6.4 C 0 km/h
585 16-04-2020 00:40:00 6.2 C 5.66 g/m*3 6.2 C 0 km/h
586 16-04-2020 00:45:00 6.1 C 5.63 g/m*3 6.1 C 0 km/h
587 16-04-2020 00:50:00 6 C 5.59 g/m*3 6 C 0 km/h
588 16-04-2020 00:55:00 5.9 C 5.55 g/m*3 5.9 C 0 km/h
589 16-04-2020 01:00:00 5.8 C 5.52 g/m*3 5.8 C 0 km/h
590 16-04-2020 01:05:00 5.8 C 5.59 g/m*3 5.8 C 0 km/h
591 16-04-2020 01:10:00 5.7 C 5.55 g/m*3 5.7 C 0 km/h
592 16-04-2020 01:15:00 5.7 C 5.55 g/m*3 5.7 C 0 km/h
593 16-04-2020 01:20:00 5.7 C 5.55 g/m*3 5.7 C 0 km/h
594 16-04-2020 01:25:00 5.7 C 5.55 g/m*3 5.7 C 0 km/h
595 16-04-2020 01:30:00 5.7 C 5.55 g/m*3 5.7 C 0 km/h
596 16-04-2020 01:35:00 5.7 C 5.55 g/m*3 5.7 C 0 km/h
597 16-04-2020 01:40:00 5.7 C 5.62 g/m*3 5.7 C 0 km/h
598 16-04-2020 01:45:00 5.7 C 5.62 g/m*3 5.7 C 0 km/h
599 16-04-2020 01:50:00 5.6 C 5.59 g/m*3 5.6 C 0 km/h
600 16-04-2020 01:55:00 5.6 C 5.66 g/m*3 5.6 C 0 km/h
Sensor: Nr:Datum:Temp:Abs-Feuchte:Windchill:Wind:
Aussen-T/F 601 16-04-2020 02:00:00 5.4 C 5.58 g/m*3 5.4 C 0 km/h
602 16-04-2020 02:05:00 5.4 C 5.58 g/m*3 5.4 C 0 km/h
603 16-04-2020 02:10:00 5.3 C 5.54 g/m*3 5.3 C 0 km/h
604 16-04-2020 02:15:00 5.2 C 5.51 g/m*3 5.2 C 0 km/h
605 16-04-2020 02:20:00 5 C 5.5 g/m*3 5 C 0 km/h
606 16-04-2020 02:25:00 4.9 C 5.47 g/m*3 4.9 C 0 km/h
607 16-04-2020 02:30:00 4.8 C 5.43 g/m*3 4.8 C 0 km/h
608 16-04-2020 02:35:00 4.7 C 5.46 g/m*3 4.7 C 0 km/h
609 16-04-2020 02:40:00 4.6 C 5.43 g/m*3 4.6 C 0 km/h
610 16-04-2020 02:45:00 4.6 C 5.49 g/m*3 4.6 C 0 km/h
611 16-04-2020 02:50:00 4.5 C 5.46 g/m*3 4.5 C 0 km/h
612 16-04-2020 02:55:00 4.4 C 5.42 g/m*3 4.4 C 0 km/h
613 16-04-2020 03:00:00 4.3 C 5.38 g/m*3 4.3 C 0 km/h
614 16-04-2020 03:05:00 4.3 C 5.45 g/m*3 4.3 C 0 km/h
615 16-04-2020 03:10:00 4.3 C 5.45 g/m*3 4.3 C 0 km/h
616 16-04-2020 03:15:00 4.2 C 5.41 g/m*3 4.2 C 0 km/h
617 16-04-2020 03:20:00 4.1 C 5.38 g/m*3 4.1 C 0 km/h
618 16-04-2020 03:25:00 4.1 C 5.38 g/m*3 4.1 C 0 km/h
619 16-04-2020 03:30:00 4 C 5.34 g/m*3 4 C 0 km/h
620 16-04-2020 03:35:00 4 C 5.4 g/m*3 4 C 0 km/h
621 16-04-2020 03:40:00 3.9 C 5.37 g/m*3 3.9 C 0 km/h
622 16-04-2020 03:45:00 3.9 C 5.37 g/m*3 3.9 C 0 km/h
623 16-04-2020 03:50:00 3.8 C 5.33 g/m*3 3.8 C 0 km/h
624 16-04-2020 03:55:00 3.8 C 5.33 g/m*3 3.8 C 0 km/h
625 16-04-2020 04:00:00 3.7 C 5.3 g/m*3 3.7 C 0 km/h
Sensor: Nr:Datum:Temp:Abs-Feuchte:Windchill:Wind:
Aussen-T/F 626 16-04-2020 04:05:00 3.7 C 5.36 g/m*3 3.7 C 0 km/h
627 16-04-2020 04:10:00 3.8 C 5.4 g/m*3 3.8 C 0 km/h
628 16-04-2020 04:15:00 3.7 C 5.36 g/m*3 3.7 C 0 km/h
629 16-04-2020 04:20:00 3.7 C 5.36 g/m*3 3.7 C 0 km/h
630 16-04-2020 04:25:00 3.6 C 5.32 g/m*3 3.6 C 0 km/h
631 16-04-2020 04:30:00 3.6 C 5.32 g/m*3 3.6 C 0 km/h
632 16-04-2020 04:35:00 3.5 C 5.29 g/m*3 3.5 C 1.6 km/h
633 16-04-2020 04:40:00 3.6 C 5.39 g/m*3 3.6 C 0 km/h
634 16-04-2020 04:45:00 3.6 C 5.39 g/m*3 3.6 C 0 km/h
635 16-04-2020 04:50:00 3.5 C 5.35 g/m*3 3.5 C 1.6 km/h
636 16-04-2020 04:55:00 3.4 C 5.31 g/m*3 3.4 C 0 km/h
637 16-04-2020 05:00:00 3.4 C 5.31 g/m*3 3.4 C 0 km/h
638 16-04-2020 05:05:00 3.4 C 5.31 g/m*3 3.4 C 0 km/h
639 16-04-2020 05:10:00 3.3 C 5.34 g/m*3 3.3 C 0 km/h
640 16-04-2020 05:15:00 3.3 C 5.34 g/m*3 3.3 C 0 km/h
641 16-04-2020 05:20:00 3.2 C 5.3 g/m*3 3.2 C 0 km/h
642 16-04-2020 05:25:00 3.2 C 5.3 g/m*3 3.2 C 0 km/h
643 16-04-2020 05:30:00 3.2 C 5.3 g/m*3 3.2 C 0 km/h
644 16-04-2020 05:35:00 3.1 C 5.27 g/m*3 3.1 C 0 km/h
645 16-04-2020 05:40:00 3.1 C 5.27 g/m*3 3.1 C 0 km/h
646 16-04-2020 05:45:00 2.9 C 5.2 g/m*3 2.9 C 0 km/h
647 16-04-2020 05:50:00 2.8 C 5.16 g/m*3 2.8 C 0 km/h
648 16-04-2020 05:55:00 2.8 C 5.22 g/m*3 2.8 C 1.6 km/h
649 16-04-2020 06:00:00 2.9 C 5.26 g/m*3 2.9 C 1.6 km/h
650 16-04-2020 06:05:00 2.9 C 5.26 g/m*3 2.9 C 0 km/h
Sensor: Nr:Datum:Temp:Abs-Feuchte:Windchill:Wind:
Aussen-T/F 651 16-04-2020 06:10:00 2.8 C 5.22 g/m*3 2.8 C 0 km/h
652 16-04-2020 06:15:00 2.8 C 5.22 g/m*3 2.8 C 0 km/h
653 16-04-2020 06:20:00 2.7 C 5.19 g/m*3 2.7 C 0 km/h
654 16-04-2020 06:25:00 2.7 C 5.19 g/m*3 2.7 C 0 km/h
655 16-04-2020 06:30:00 2.6 C 5.15 g/m*3 2.6 C 0 km/h
656 16-04-2020 06:35:00 2.5 C 5.12 g/m*3 2.5 C 0 km/h
657 16-04-2020 06:40:00 2.4 C 5.08 g/m*3 2.4 C 0 km/h
658 16-04-2020 06:45:00 2.4 C 5.14 g/m*3 2.4 C 0 km/h
659 16-04-2020 06:50:00 2.4 C 5.14 g/m*3 2.4 C 0 km/h
660 16-04-2020 06:55:00 2.4 C 5.14 g/m*3 2.4 C 0 km/h
661 16-04-2020 07:00:00 2.4 C 5.14 g/m*3 2.4 C 0 km/h
662 16-04-2020 07:05:00 2.4 C 5.14 g/m*3 2.4 C 0 km/h
663 16-04-2020 07:10:00 2.4 C 5.14 g/m*3 2.4 C 0 km/h
664 16-04-2020 07:15:00 2.4 C 5.2 g/m*3 2.4 C 0 km/h
665 16-04-2020 07:20:00 2.6 C 5.27 g/m*3 2.6 C 0 km/h
666 16-04-2020 07:25:00 2.6 C 5.27 g/m*3 2.6 C 0 km/h
667 16-04-2020 07:30:00 2.6 C 5.27 g/m*3 2.6 C 0 km/h
668 16-04-2020 07:35:00 2.7 C 5.3 g/m*3 2.7 C 0 km/h
669 16-04-2020 07:40:00 2.7 C 5.3 g/m*3 2.7 C 0 km/h
670 16-04-2020 07:45:00 2.7 C 5.3 g/m*3 2.7 C 0 km/h
671 16-04-2020 07:50:00 2.7 C 5.3 g/m*3 2.7 C 0 km/h
672 16-04-2020 07:55:00 2.8 C 5.34 g/m*3 2.8 C 0 km/h
673 16-04-2020 08:00:00 2.9 C 5.37 g/m*3 2.9 C 0 km/h
674 16-04-2020 08:05:00 2.9 C 5.37 g/m*3 2.9 C 0 km/h
675 16-04-2020 08:10:00 3 C 5.47 g/m*3 3 C 0 km/h
Sensor: Nr:Datum:Temp:Abs-Feuchte:Windchill:Wind:
Aussen-T/F 676 16-04-2020 08:15:00 3.1 C 5.51 g/m*3 3.1 C 0 km/h
677 16-04-2020 08:20:00 3.2 C 5.54 g/m*3 3.2 C 0 km/h
678 16-04-2020 08:25:00 3.3 C 5.58 g/m*3 3.3 C 0 km/h
679 16-04-2020 08:30:00 3.3 C 5.58 g/m*3 3.3 C 0 km/h
680 16-04-2020 08:35:00 3.4 C 5.62 g/m*3 3.4 C 0 km/h
681 16-04-2020 08:40:00 3.6 C 5.63 g/m*3 3.6 C 0 km/h
682 16-04-2020 08:45:00 3.6 C 5.63 g/m*3 3.6 C 0 km/h
683 16-04-2020 08:50:00 3.7 C 5.67 g/m*3 3.7 C 0 km/h
684 16-04-2020 08:55:00 3.8 C 5.71 g/m*3 3.8 C 3.2 km/h
685 16-04-2020 09:00:00 3.9 C 5.75 g/m*3 3.9 C 0 km/h
686 16-04-2020 09:05:00 4 C 5.79 g/m*3 4 C 0 km/h
687 16-04-2020 09:10:00 4.1 C 5.82 g/m*3 4.1 C 0 km/h
688 16-04-2020 09:15:00 4.3 C 5.9 g/m*3 4.3 C 0 km/h
689 16-04-2020 09:20:00 4.4 C 5.94 g/m*3 4.4 C 0 km/h
690 16-04-2020 09:25:00 4.6 C 6.02 g/m*3 4.6 C 0 km/h
691 16-04-2020 09:30:00 4.8 C 6.04 g/m*3 4.8 C 0 km/h
692 16-04-2020 09:35:00 5 C 6.12 g/m*3 5 C 0 km/h
693 16-04-2020 09:40:00 5.2 C 6.2 g/m*3 5.2 C 0 km/h
694 16-04-2020 09:45:00 5.5 C 6.25 g/m*3 5.5 C 1.6 km/h
695 16-04-2020 09:50:00 5.8 C 6.38 g/m*3 5.8 C 0 km/h
696 16-04-2020 09:55:00 6.1 C 6.43 g/m*3 6.1 C 3.2 km/h
697 16-04-2020 10:00:00 6.3 C 6.51 g/m*3 6.3 C 3.2 km/h
698 16-04-2020 10:05:00 6.6 C 6.57 g/m*3 6.6 C 0 km/h
699 16-04-2020 10:10:00 6.9 C 6.62 g/m*3 6.9 C 0 km/h
700 16-04-2020 10:15:00 7.2 C 6.67 g/m*3 7.2 C 0 km/h
Sensor: Nr:Datum:Temp:Abs-Feuchte:Windchill:Wind:
Aussen-T/F 701 16-04-2020 10:20:00 7.6 C 6.85 g/m*3 7.6 C 0 km/h
702 16-04-2020 10:25:00 7.8 C 6.77 g/m*3 7.8 C 0 km/h
703 16-04-2020 10:30:00 8.2 C 6.87 g/m*3 8.2 C 0 km/h
704 16-04-2020 10:35:00 8.6 C 6.96 g/m*3 8.6 C 0 km/h
705 16-04-2020 10:40:00 8.9 C 6.92 g/m*3 8.9 C 0 km/h
706 16-04-2020 10:45:00 9.3 C 7.01 g/m*3 9.3 C 0 km/h
707 16-04-2020 10:50:00 9.7 C 7.1 g/m*3 9.7 C 0 km/h
708 16-04-2020 10:55:00 10.1 C 7.09 g/m*3 10.1 C 0 km/h
709 16-04-2020 11:00:00 10.6 C 7.22 g/m*3 10.6 C 0 km/h
710 16-04-2020 11:05:00 11.1 C 7.25 g/m*3 11.1 C 3.2 km/h
711 16-04-2020 11:10:00 11.9 C 7.41 g/m*3 11.9 C 4.8 km/h
712 16-04-2020 11:15:00 13.2 C 7.35 g/m*3 13.2 C 11.3 km/h
713 16-04-2020 11:20:00 14.3 C 7.25 g/m*3 14.3 C 11.3 km/h
714 16-04-2020 11:25:00 15.1 C 7.35 g/m*3 15.1 C 9.7 km/h
715 16-04-2020 11:30:00 15.6 C 7.31 g/m*3 15.6 C 8.1 km/h
716 16-04-2020 11:35:00 16.2 C 7.31 g/m*3 16.2 C 11.3 km/h
717 16-04-2020 11:40:00 16.7 C 7.11 g/m*3 16.7 C 9.7 km/h
718 16-04-2020 11:45:00 17.1 C 7.13 g/m*3 17.1 C 8.1 km/h
719 16-04-2020 11:50:00 17.4 C 7.11 g/m*3 17.4 C 8.1 km/h
720 16-04-2020 11:55:00 17.7 C 7.09 g/m*3 17.7 C 11.3 km/h
721 16-04-2020 12:00:00 17.9 C 7.33 g/m*3 17.9 C 12.9 km/h
722 16-04-2020 12:05:00 18.1 C 7.26 g/m*3 18.1 C 12.9 km/h
723 16-04-2020 12:10:00 18.3 C 7.04 g/m*3 18.3 C 16.1 km/h
724 16-04-2020 12:15:00 18.5 C 7.12 g/m*3 18.5 C 12.9 km/h
725 16-04-2020 12:20:00 18.7 C 7.52 g/m*3 18.7 C 11.3 km/h
Sensor: Nr:Datum:Temp:Abs-Feuchte:Windchill:Wind:
Aussen-T/F 726 16-04-2020 12:25:00 18.8 C 7.25 g/m*3 18.8 C 9.7 km/h
727 16-04-2020 12:30:00 19 C 7.5 g/m*3 19 C 11.3 km/h
728 16-04-2020 12:35:00 19.2 C 7.42 g/m*3 19.2 C 11.3 km/h
729 16-04-2020 12:40:00 19.3 C 7.3 g/m*3 19.3 C 11.3 km/h
730 16-04-2020 12:45:00 19.4 C 7.34 g/m*3 19.4 C 12.9 km/h
731 16-04-2020 12:50:00 19.5 C 7.38 g/m*3 19.5 C 12.9 km/h
732 16-04-2020 12:55:00 19.6 C 7.43 g/m*3 19.6 C 11.3 km/h
733 16-04-2020 13:00:00 19.8 C 7.34 g/m*3 19.8 C 9.7 km/h
734 16-04-2020 13:05:00 19.9 C 7.39 g/m*3 19.9 C 9.7 km/h
735 16-04-2020 13:10:00 20.1 C 7.3 g/m*3 20.1 C 11.3 km/h
736 16-04-2020 13:15:00 20.2 C 7.34 g/m*3 20.2 C 12.9 km/h
737 16-04-2020 13:20:00 20.4 C 7.25 g/m*3 20.4 C 12.9 km/h
738 16-04-2020 13:25:00 20.6 C 7.34 g/m*3 20.6 C 11.3 km/h
739 16-04-2020 13:30:00 20.8 C 7.42 g/m*3 20.8 C 11.3 km/h
740 16-04-2020 13:35:00 20.9 C 6.92 g/m*3 20.9 C 11.3 km/h
741 16-04-2020 13:40:00 21.1 C 7 g/m*3 21.1 C 11.3 km/h
742 16-04-2020 13:45:00 21.2 C 7.23 g/m*3 21.2 C 11.3 km/h
743 16-04-2020 13:50:00 21.3 C 6.9 g/m*3 21.3 C 12.9 km/h
744 16-04-2020 13:55:00 21.4 C 6.75 g/m*3 21.4 C 8.1 km/h
745 16-04-2020 14:00:00 21.6 C 7.02 g/m*3 21.6 C 14.5 km/h
746 16-04-2020 14:05:00 21.7 C 6.68 g/m*3 21.7 C 11.3 km/h
747 16-04-2020 14:10:00 21.7 C 6.87 g/m*3 21.7 C 6.4 km/h
748 16-04-2020 14:15:00 21.8 C 6.91 g/m*3 21.8 C 14.5 km/h
749 16-04-2020 14:20:00 21.8 C 6.72 g/m*3 21.8 C 8.1 km/h
750 16-04-2020 14:25:00 21.8 C 6.72 g/m*3 21.8 C 4.8 km/h
Sensor: Nr:Datum:Temp:Abs-Feuchte:Windchill:Wind:
Aussen-T/F 751 16-04-2020 14:30:00 21.8 C 7.1 g/m*3 21.8 C 6.4 km/h
752 16-04-2020 14:35:00 22 C 7.18 g/m*3 22 C 11.3 km/h
753 16-04-2020 14:40:00 22.2 C 7.26 g/m*3 22.2 C 9.7 km/h
754 16-04-2020 14:45:00 22.3 C 7.31 g/m*3 22.3 C 9.7 km/h
755 16-04-2020 14:50:00 22.4 C 6.95 g/m*3 22.4 C 9.7 km/h
756 16-04-2020 14:55:00 22.6 C 7.23 g/m*3 22.6 C 11.3 km/h
757 16-04-2020 15:00:00 22.7 C 7.07 g/m*3 22.7 C 11.3 km/h
758 16-04-2020 15:05:00 22.9 C 7.36 g/m*3 22.9 C 11.3 km/h
759 16-04-2020 15:10:00 22.9 C 7.15 g/m*3 22.9 C 11.3 km/h
760 16-04-2020 15:15:00 23 C 7.19 g/m*3 23 C 14.5 km/h
761 16-04-2020 15:20:00 23.2 C 7.28 g/m*3 23.2 C 16.1 km/h
762 16-04-2020 15:25:00 23.3 C 7.32 g/m*3 23.3 C 9.7 km/h
763 16-04-2020 15:30:00 23.4 C 7.36 g/m*3 23.4 C 9.7 km/h
764 16-04-2020 15:35:00 23.6 C 7.66 g/m*3 23.6 C 9.7 km/h
765 16-04-2020 15:40:00 23.6 C 7.23 g/m*3 23.6 C 14.5 km/h
766 16-04-2020 15:45:00 23.4 C 7.36 g/m*3 23.4 C 17.7 km/h
767 16-04-2020 15:50:00 23.4 C 7.57 g/m*3 23.4 C 17.7 km/h
768 16-04-2020 15:55:00 23.6 C 7.66 g/m*3 23.6 C 9.7 km/h
769 16-04-2020 16:00:00 23.8 C 7.74 g/m*3 23.8 C 8.1 km/h
770 16-04-2020 16:05:00 24.1 C 7.88 g/m*3 24.1 C 16.1 km/h
771 16-04-2020 16:10:00 24.3 C 7.75 g/m*3 24.3 C 11.3 km/h
772 16-04-2020 16:15:00 24.4 C 7.79 g/m*3 24.4 C 9.7 km/h
773 16-04-2020 16:20:00 24.4 C 7.34 g/m*3 24.4 C 19.3 km/h
774 16-04-2020 16:25:00 24.4 C 7.12 g/m*3 24.4 C 14.5 km/h
775 16-04-2020 16:30:00 24.4 C 7.12 g/m*3 24.4 C 14.5 km/h
Sensor: Nr:Datum:Temp:Abs-Feuchte:Windchill:Wind:
Aussen-T/F 776 16-04-2020 16:35:00 24.5 C 6.94 g/m*3 24.5 C 16.1 km/h
777 16-04-2020 16:40:00 24.5 C 7.16 g/m*3 24.5 C 12.9 km/h
778 16-04-2020 16:45:00 24.6 C 6.98 g/m*3 24.6 C 16.1 km/h
779 16-04-2020 16:50:00 24.2 C 7.26 g/m*3 24.2 C 12.9 km/h
780 16-04-2020 16:55:00 24 C 7.61 g/m*3 24 C 8.1 km/h
781 16-04-2020 17:00:00 23.9 C 7.57 g/m*3 23.9 C 9.7 km/h
782 16-04-2020 17:05:00 23.8 C 7.53 g/m*3 23.8 C 8.1 km/h
783 16-04-2020 17:10:00 23.8 C 7.31 g/m*3 23.8 C 8.1 km/h
784 16-04-2020 17:15:00 24.1 C 7.88 g/m*3 24.1 C 12.9 km/h
785 16-04-2020 17:20:00 24.1 C 8.75 g/m*3 24.1 C 9.7 km/h
786 16-04-2020 17:25:00 24 C 8.27 g/m*3 24 C 12.9 km/h
787 16-04-2020 17:30:00 24.3 C 7.97 g/m*3 24.3 C 16.1 km/h
788 16-04-2020 17:35:00 24.4 C 7.57 g/m*3 24.4 C 16.1 km/h
789 16-04-2020 17:40:00 24.4 C 8.01 g/m*3 24.4 C 16.1 km/h
790 16-04-2020 17:45:00 24.6 C 7.88 g/m*3 24.6 C 12.9 km/h
791 16-04-2020 17:50:00 24.6 C 8.33 g/m*3 24.6 C 12.9 km/h
792 16-04-2020 17:55:00 24.8 C 7.97 g/m*3 24.8 C 9.7 km/h
793 16-04-2020 18:00:00 25 C 8.06 g/m*3 25 C 11.3 km/h
794 16-04-2020 18:05:00 25.2 C 8.15 g/m*3 25.2 C 12.9 km/h
795 16-04-2020 18:10:00 25 C 7.83 g/m*3 25 C 12.9 km/h
796 16-04-2020 18:15:00 24.9 C 8.01 g/m*3 24.9 C 14.5 km/h
797 16-04-2020 18:20:00 24.8 C 7.97 g/m*3 24.8 C 12.9 km/h
798 16-04-2020 18:25:00 24.8 C 7.97 g/m*3 24.8 C 11.3 km/h
799 16-04-2020 18:30:00 24.8 C 7.74 g/m*3 24.8 C 11.3 km/h
800 16-04-2020 18:35:00 24.8 C 7.74 g/m*3 24.8 C 14.5 km/h
Sensor: Nr:Datum:Temp:Abs-Feuchte:Windchill:Wind:
Aussen-T/F 801 16-04-2020 18:40:00 24.7 C 8.15 g/m*3 24.7 C 11.3 km/h
802 16-04-2020 18:45:00 24.4 C 7.79 g/m*3 24.4 C 9.7 km/h
803 16-04-2020 18:50:00 24.4 C 7.79 g/m*3 24.4 C 14.5 km/h
804 16-04-2020 18:55:00 24.2 C 7.7 g/m*3 24.2 C 17.7 km/h
805 16-04-2020 19:00:00 24 C 7.83 g/m*3 24 C 12.9 km/h
806 16-04-2020 19:05:00 23.9 C 7.79 g/m*3 23.9 C 9.7 km/h
807 16-04-2020 19:10:00 23.8 C 7.96 g/m*3 23.8 C 9.7 km/h
808 16-04-2020 19:15:00 23.6 C 8.08 g/m*3 23.6 C 11.3 km/h
809 16-04-2020 19:20:00 23.4 C 7.99 g/m*3 23.4 C 8.1 km/h
810 16-04-2020 19:25:00 23.1 C 8.06 g/m*3 23.1 C 8.1 km/h
811 16-04-2020 19:30:00 22.8 C 7.92 g/m*3 22.8 C 9.7 km/h
812 16-04-2020 19:35:00 22.6 C 8.04 g/m*3 22.6 C 8.1 km/h
813 16-04-2020 19:40:00 22.3 C 8.1 g/m*3 22.3 C 3.2 km/h
814 16-04-2020 19:45:00 22.1 C 8.2 g/m*3 22.1 C 3.2 km/h
815 16-04-2020 19:50:00 21.8 C 8.25 g/m*3 21.8 C 4.8 km/h
816 16-04-2020 19:55:00 21.4 C 8.25 g/m*3 21.4 C 3.2 km/h
817 16-04-2020 20:00:00 21.1 C 8.11 g/m*3 21.1 C 4.8 km/h
818 16-04-2020 20:05:00 20.7 C 8.28 g/m*3 20.7 C 6.4 km/h
819 16-04-2020 20:10:00 20.2 C 8.04 g/m*3 20.2 C 6.4 km/h
820 16-04-2020 20:15:00 19.8 C 8.03 g/m*3 19.8 C 6.4 km/h
821 16-04-2020 20:20:00 19.4 C 7.84 g/m*3 19.4 C 9.7 km/h
822 16-04-2020 20:25:00 19.2 C 7.59 g/m*3 19.2 C 8.1 km/h
823 16-04-2020 20:30:00 19.1 C 7.54 g/m*3 19.1 C 8.1 km/h
824 16-04-2020 20:35:00 18.9 C 7.45 g/m*3 18.9 C 9.7 km/h
825 16-04-2020 20:40:00 18.9 C 7.61 g/m*3 18.9 C 11.3 km/h
Sensor: Nr:Datum:Temp:Abs-Feuchte:Windchill:Wind:
Aussen-T/F 826 16-04-2020 20:45:00 18.9 C 7.78 g/m*3 18.9 C 8.1 km/h
827 16-04-2020 20:50:00 18.7 C 7.52 g/m*3 18.7 C 8.1 km/h
828 16-04-2020 20:55:00 18.6 C 7.8 g/m*3 18.6 C 8.1 km/h
829 16-04-2020 21:00:00 18.3 C 7.66 g/m*3 18.3 C 6.4 km/h
830 16-04-2020 21:05:00 18.1 C 7.73 g/m*3 18.1 C 8.1 km/h
831 16-04-2020 21:10:00 17.8 C 7.89 g/m*3 17.8 C 3.2 km/h
832 16-04-2020 21:15:00 17.4 C 7.85 g/m*3 17.4 C 1.6 km/h
833 16-04-2020 21:20:00 17.1 C 7.71 g/m*3 17.1 C 3.2 km/h
834 16-04-2020 21:25:00 16.8 C 7.86 g/m*3 16.8 C 4.8 km/h
835 16-04-2020 21:30:00 16.6 C 7.77 g/m*3 16.6 C 4.8 km/h
836 16-04-2020 21:35:00 16.4 C 7.96 g/m*3 16.4 C 3.2 km/h
837 16-04-2020 21:40:00 16.1 C 7.95 g/m*3 16.1 C 1.6 km/h
838 16-04-2020 21:45:00 15.8 C 7.94 g/m*3 15.8 C 1.6 km/h
839 16-04-2020 21:50:00 15.4 C 7.88 g/m*3 15.4 C 1.6 km/h
840 16-04-2020 21:55:00 15.3 C 7.84 g/m*3 15.3 C 0 km/h
841 16-04-2020 22:00:00 15.2 C 7.92 g/m*3 15.2 C 3.2 km/h
842 16-04-2020 22:05:00 15.2 C 8.05 g/m*3 15.2 C 3.2 km/h
843 16-04-2020 22:10:00 14.9 C 7.9 g/m*3 14.9 C 1.6 km/h
844 16-04-2020 22:15:00 14.6 C 7.88 g/m*3 14.6 C 4.8 km/h
845 16-04-2020 22:20:00 14.3 C 7.86 g/m*3 14.3 C 6.4 km/h
846 16-04-2020 22:25:00 14.2 C 7.94 g/m*3 14.2 C 6.4 km/h
847 16-04-2020 22:30:00 14.2 C 8.06 g/m*3 14.2 C 4.8 km/h
848 16-04-2020 22:35:00 14.2 C 8.06 g/m*3 14.2 C 0 km/h
849 16-04-2020 22:40:00 13.9 C 8.03 g/m*3 13.9 C 0 km/h
850 16-04-2020 22:45:00 13.7 C 7.93 g/m*3 13.7 C 0 km/h
Sensor: Nr:Datum:Temp:Abs-Feuchte:Windchill:Wind:
Aussen-T/F 851 16-04-2020 22:50:00 13.6 C 7.89 g/m*3 13.6 C 0 km/h
852 16-04-2020 22:55:00 13.3 C 7.97 g/m*3 13.3 C 4.8 km/h
853 16-04-2020 23:00:00 13.1 C 7.99 g/m*3 13.1 C 4.8 km/h
854 16-04-2020 23:05:00 13 C 8.05 g/m*3 13 C 0 km/h
855 16-04-2020 23:10:00 12.9 C 8 g/m*3 12.9 C 0 km/h
856 16-04-2020 23:15:00 12.8 C 8.06 g/m*3 12.8 C 0 km/h
857 16-04-2020 23:20:00 12.6 C 7.97 g/m*3 12.6 C 0 km/h
858 16-04-2020 23:25:00 12.4 C 7.87 g/m*3 12.4 C 0 km/h
859 16-04-2020 23:30:00 12.3 C 7.93 g/m*3 12.3 C 0 km/h
860 16-04-2020 23:35:00 12.2 C 7.88 g/m*3 12.2 C 0 km/h
861 16-04-2020 23:40:00 12.2 C 7.88 g/m*3 12.2 C 1.6 km/h
862 16-04-2020 23:45:00 12.1 C 7.83 g/m*3 12.1 C 0 km/h
863 16-04-2020 23:50:00 12.1 C 7.83 g/m*3 12.1 C 1.6 km/h
864 16-04-2020 23:55:00 12.1 C 7.83 g/m*3 12.1 C 0 km/h
865 17-04-2020 00:00:00 12 C 7.89 g/m*3 12 C 0 km/h
866 17-04-2020 00:05:00 11.8 C 7.79 g/m*3 11.8 C 0 km/h
867 17-04-2020 00:10:00 11.7 C 7.84 g/m*3 11.7 C 0 km/h
868 17-04-2020 00:15:00 11.6 C 7.8 g/m*3 11.6 C 0 km/h
869 17-04-2020 00:20:00 11.4 C 7.8 g/m*3 11.4 C 1.6 km/h
870 17-04-2020 00:25:00 11.4 C 7.8 g/m*3 11.4 C 0 km/h
871 17-04-2020 00:30:00 11.3 C 7.75 g/m*3 11.3 C 1.6 km/h
872 17-04-2020 00:35:00 11.3 C 7.75 g/m*3 11.3 C 0 km/h
873 17-04-2020 00:40:00 11.2 C 7.8 g/m*3 11.2 C 0 km/h
874 17-04-2020 00:45:00 11.2 C 7.8 g/m*3 11.2 C 0 km/h
875 17-04-2020 00:50:00 11.1 C 7.76 g/m*3 11.1 C 0 km/h
Sensor: Nr:Datum:Temp:Abs-Feuchte:Windchill:Wind:
Aussen-T/F 876 17-04-2020 00:55:00 10.9 C 7.76 g/m*3 10.9 C 0 km/h
877 17-04-2020 01:00:00 10.8 C 7.71 g/m*3 10.8 C 0 km/h
878 17-04-2020 01:05:00 10.7 C 7.76 g/m*3 10.7 C 1.6 km/h
879 17-04-2020 01:10:00 10.7 C 7.76 g/m*3 10.7 C 0 km/h
880 17-04-2020 01:15:00 10.7 C 7.76 g/m*3 10.7 C 0 km/h
881 17-04-2020 01:20:00 10.6 C 7.71 g/m*3 10.6 C 0 km/h
882 17-04-2020 01:25:00 10.4 C 7.71 g/m*3 10.4 C 0 km/h
883 17-04-2020 01:30:00 10.4 C 7.71 g/m*3 10.4 C 4.8 km/h
884 17-04-2020 01:35:00 10.4 C 7.71 g/m*3 10.4 C 4.8 km/h
885 17-04-2020 01:40:00 10.4 C 7.71 g/m*3 10.4 C 0 km/h
886 17-04-2020 01:45:00 10.3 C 7.66 g/m*3 10.3 C 0 km/h
887 17-04-2020 01:50:00 10.2 C 7.71 g/m*3 10.2 C 0 km/h
888 17-04-2020 01:55:00 10.2 C 7.71 g/m*3 10.2 C 0 km/h
889 17-04-2020 02:00:00 10.2 C 7.71 g/m*3 10.2 C 3.2 km/h
890 17-04-2020 02:05:00 10.3 C 7.76 g/m*3 10.3 C 3.2 km/h
891 17-04-2020 02:10:00 10.4 C 7.81 g/m*3 10.4 C 1.6 km/h
892 17-04-2020 02:15:00 10.3 C 7.76 g/m*3 10.3 C 0 km/h
893 17-04-2020 02:20:00 10.2 C 7.71 g/m*3 10.2 C 0 km/h
894 17-04-2020 02:25:00 10 C 7.61 g/m*3 10 C 0 km/h
895 17-04-2020 02:30:00 9.8 C 7.61 g/m*3 9.8 C 0 km/h
896 17-04-2020 02:35:00 9.7 C 7.56 g/m*3 9.7 C 0 km/h
897 17-04-2020 02:40:00 9.6 C 7.6 g/m*3 9.6 C 0 km/h
898 17-04-2020 02:45:00 9.4 C 7.51 g/m*3 9.4 C 0 km/h
899 17-04-2020 02:50:00 9.3 C 7.46 g/m*3 9.3 C 0 km/h
900 17-04-2020 02:55:00 9.1 C 7.45 g/m*3 9.1 C 0 km/h
Sensor: Nr:Datum:Temp:Abs-Feuchte:Windchill:Wind:
Aussen-T/F 901 17-04-2020 03:00:00 8.9 C 7.45 g/m*3 8.9 C 0 km/h
902 17-04-2020 03:05:00 8.7 C 7.35 g/m*3 8.7 C 0 km/h
903 17-04-2020 03:10:00 8.7 C 7.44 g/m*3 8.7 C 0 km/h
904 17-04-2020 03:15:00 8.6 C 7.39 g/m*3 8.6 C 1.6 km/h
905 17-04-2020 03:20:00 8.6 C 7.39 g/m*3 8.6 C 0 km/h
906 17-04-2020 03:25:00 8.4 C 7.3 g/m*3 8.4 C 0 km/h
907 17-04-2020 03:30:00 8.4 C 7.38 g/m*3 8.4 C 0 km/h
908 17-04-2020 03:35:00 8.4 C 7.38 g/m*3 8.4 C 0 km/h
909 17-04-2020 03:40:00 8.4 C 7.47 g/m*3 8.4 C 1.6 km/h
910 17-04-2020 03:45:00 8.3 C 7.42 g/m*3 8.3 C 1.6 km/h
911 17-04-2020 03:50:00 8.4 C 7.47 g/m*3 8.4 C 4.8 km/h
912 17-04-2020 03:55:00 8.4 C 7.47 g/m*3 8.4 C 3.2 km/h
913 17-04-2020 04:00:00 8.5 C 7.51 g/m*3 8.5 C 1.6 km/h
914 17-04-2020 04:05:00 8.5 C 7.51 g/m*3 8.5 C 3.2 km/h
915 17-04-2020 04:10:00 8.5 C 7.51 g/m*3 8.5 C 1.6 km/h
916 17-04-2020 04:15:00 8.5 C 7.51 g/m*3 8.5 C 1.6 km/h
917 17-04-2020 04:20:00 8.5 C 7.51 g/m*3 8.5 C 0 km/h
918 17-04-2020 04:25:00 8.4 C 7.47 g/m*3 8.4 C 0 km/h
919 17-04-2020 04:30:00 8.4 C 7.47 g/m*3 8.4 C 0 km/h
920 17-04-2020 04:35:00 8.4 C 7.47 g/m*3 8.4 C 0 km/h
921 17-04-2020 04:40:00 8.4 C 7.47 g/m*3 8.4 C 0 km/h
922 17-04-2020 04:45:00 8.4 C 7.55 g/m*3 8.4 C 0 km/h
923 17-04-2020 04:50:00 8.3 C 7.42 g/m*3 8.3 C 0 km/h
924 17-04-2020 04:55:00 8.2 C 7.37 g/m*3 8.2 C 0 km/h
925 17-04-2020 05:00:00 8.2 C 7.37 g/m*3 8.2 C 0 km/h
Sensor: Nr:Datum:Temp:Abs-Feuchte:Windchill:Wind:
Aussen-T/F 926 17-04-2020 05:05:00 8.2 C 7.37 g/m*3 8.2 C 0 km/h
927 17-04-2020 05:10:00 8 C 7.28 g/m*3 8 C 0 km/h
928 17-04-2020 05:15:00 7.9 C 7.23 g/m*3 7.9 C 0 km/h
929 17-04-2020 05:20:00 7.7 C 7.14 g/m*3 7.7 C 0 km/h
930 17-04-2020 05:25:00 7.6 C 7.09 g/m*3 7.6 C 0 km/h
931 17-04-2020 05:30:00 7.5 C 7.12 g/m*3 7.5 C 1.6 km/h
932 17-04-2020 05:35:00 7.4 C 7.08 g/m*3 7.4 C 0 km/h
933 17-04-2020 05:40:00 7.3 C 7.03 g/m*3 7.3 C 0 km/h
934 17-04-2020 05:45:00 7.3 C 7.11 g/m*3 7.3 C 0 km/h
935 17-04-2020 05:50:00 7.3 C 7.11 g/m*3 7.3 C 0 km/h
936 17-04-2020 05:55:00 7.2 C 7.06 g/m*3 7.2 C 0 km/h
937 17-04-2020 06:00:00 7.2 C 7.06 g/m*3 7.2 C 0 km/h
938 17-04-2020 06:05:00 7.1 C 7.1 g/m*3 7.1 C 0 km/h
939 17-04-2020 06:10:00 7 C 7.05 g/m*3 7 C 0 km/h
940 17-04-2020 06:15:00 6.9 C 7.01 g/m*3 6.9 C 0 km/h
941 17-04-2020 06:20:00 6.9 C 7.01 g/m*3 6.9 C 0 km/h
942 17-04-2020 06:25:00 6.8 C 6.96 g/m*3 6.8 C 0 km/h
943 17-04-2020 06:30:00 6.7 C 6.91 g/m*3 6.7 C 0 km/h
944 17-04-2020 06:35:00 6.7 C 6.91 g/m*3 6.7 C 0 km/h
945 17-04-2020 06:40:00 6.7 C 6.99 g/m*3 6.7 C 0 km/h
946 17-04-2020 06:45:00 6.6 C 6.95 g/m*3 6.6 C 0 km/h
947 17-04-2020 06:50:00 6.6 C 6.95 g/m*3 6.6 C 0 km/h
948 17-04-2020 06:55:00 6.6 C 6.95 g/m*3 6.6 C 0 km/h
949 17-04-2020 07:00:00 6.6 C 6.95 g/m*3 6.6 C 0 km/h
950 17-04-2020 07:05:00 6.6 C 6.95 g/m*3 6.6 C 0 km/h
Sensor: Nr:Datum:Temp:Abs-Feuchte:Windchill:Wind:
Aussen-T/F 951 17-04-2020 07:10:00 6.6 C 6.95 g/m*3 6.6 C 0 km/h
952 17-04-2020 07:15:00 6.6 C 7.02 g/m*3 6.6 C 0 km/h
953 17-04-2020 07:20:00 6.6 C 7.02 g/m*3 6.6 C 0 km/h
954 17-04-2020 07:25:00 6.7 C 7.07 g/m*3 6.7 C 0 km/h
955 17-04-2020 07:30:00 6.7 C 7.07 g/m*3 6.7 C 0 km/h
956 17-04-2020 07:35:00 6.8 C 7.11 g/m*3 6.8 C 0 km/h
957 17-04-2020 07:40:00 6.9 C 7.16 g/m*3 6.9 C 0 km/h
958 17-04-2020 07:45:00 6.9 C 7.16 g/m*3 6.9 C 0 km/h
959 17-04-2020 07:50:00 6.9 C 7.16 g/m*3 6.9 C 0 km/h
960 17-04-2020 07:55:00 6.9 C 7.16 g/m*3 6.9 C 0 km/h
961 17-04-2020 08:00:00 6.9 C 7.16 g/m*3 6.9 C 0 km/h
962 17-04-2020 08:05:00 7 C 7.28 g/m*3 7 C 0 km/h
963 17-04-2020 08:10:00 7.1 C 7.33 g/m*3 7.1 C 0 km/h
964 17-04-2020 08:15:00 7.1 C 7.33 g/m*3 7.1 C 0 km/h
965 17-04-2020 08:20:00 7.2 C 7.38 g/m*3 7.2 C 0 km/h
966 17-04-2020 08:25:00 7.3 C 7.43 g/m*3 7.3 C 0 km/h
967 17-04-2020 08:30:00 7.3 C 7.43 g/m*3 7.3 C 0 km/h
968 17-04-2020 08:35:00 7.4 C 7.48 g/m*3 7.4 C 0 km/h
969 17-04-2020 08:40:00 7.6 C 7.57 g/m*3 7.6 C 0 km/h
970 17-04-2020 08:45:00 7.7 C 7.62 g/m*3 7.7 C 0 km/h
971 17-04-2020 08:50:00 7.8 C 7.67 g/m*3 7.8 C 0 km/h
972 17-04-2020 08:55:00 8.1 C 7.82 g/m*3 8.1 C 0 km/h
973 17-04-2020 09:00:00 8.2 C 7.96 g/m*3 8.2 C 0 km/h
974 17-04-2020 09:05:00 8.3 C 7.92 g/m*3 8.3 C 0 km/h
975 17-04-2020 09:10:00 8.4 C 7.97 g/m*3 8.4 C 0 km/h
Sensor: Nr:Datum:Temp:Abs-Feuchte:Windchill:Wind:
Aussen-T/F 976 17-04-2020 09:15:00 8.6 C 8.08 g/m*3 8.6 C 0 km/h
977 17-04-2020 09:20:00 8.7 C 8.13 g/m*3 8.7 C 0 km/h
978 17-04-2020 09:25:00 8.8 C 8.18 g/m*3 8.8 C 0 km/h
979 17-04-2020 09:30:00 8.9 C 8.23 g/m*3 8.9 C 0 km/h
980 17-04-2020 09:35:00 9.2 C 8.39 g/m*3 9.2 C 0 km/h
981 17-04-2020 09:40:00 9.3 C 8.45 g/m*3 9.3 C 0 km/h
982 17-04-2020 09:45:00 9.5 C 8.47 g/m*3 9.5 C 0 km/h
983 17-04-2020 09:50:00 9.7 C 8.57 g/m*3 9.7 C 0 km/h
984 17-04-2020 09:55:00 9.9 C 8.68 g/m*3 9.9 C 0 km/h
985 17-04-2020 10:00:00 10.1 C 8.7 g/m*3 10.1 C 0 km/h
986 17-04-2020 10:05:00 10.3 C 8.81 g/m*3 10.3 C 0 km/h
987 17-04-2020 10:10:00 10.4 C 8.77 g/m*3 10.4 C 0 km/h
988 17-04-2020 10:15:00 10.6 C 8.78 g/m*3 10.6 C 0 km/h
989 17-04-2020 10:20:00 10.9 C 8.95 g/m*3 10.9 C 0 km/h
990 17-04-2020 10:25:00 11.2 C 9.02 g/m*3 11.2 C 0 km/h
991 17-04-2020 10:30:00 11.4 C 9.14 g/m*3 11.4 C 0 km/h
992 17-04-2020 10:35:00 11.7 C 9.2 g/m*3 11.7 C 0 km/h
993 17-04-2020 10:40:00 11.9 C 9.21 g/m*3 11.9 C 0 km/h
994 17-04-2020 10:45:00 12.2 C 9.39 g/m*3 12.2 C 0 km/h
995 17-04-2020 10:50:00 12.4 C 9.29 g/m*3 12.4 C 0 km/h
996 17-04-2020 10:55:00 12.8 C 9.41 g/m*3 12.8 C 0 km/h
997 17-04-2020 11:00:00 13.2 C 9.42 g/m*3 13.2 C 1.6 km/h
998 17-04-2020 11:05:00 13.7 C 9.47 g/m*3 13.7 C 0 km/h
999 17-04-2020 11:10:00 14.1 C 9.34 g/m*3 14.1 C 1.6 km/h
1000 17-04-2020 11:15:00 14.6 C 9.51 g/m*3 14.6 C 0 km/h
Sensor: Nr:Datum:Temp:Abs-Feuchte:Windchill:Wind:
Aussen-T/F 1001 17-04-2020 11:20:00 14.9 C 9.43 g/m*3 14.9 C 1.6 km/h
1002 17-04-2020 11:25:00 15.3 C 9.4 g/m*3 15.3 C 1.6 km/h
1003 17-04-2020 11:30:00 15.7 C 9.63 g/m*3 15.7 C 1.6 km/h
1004 17-04-2020 11:35:00 16.1 C 9.87 g/m*3 16.1 C 1.6 km/h
1005 17-04-2020 11:40:00 16.3 C 9.57 g/m*3 16.3 C 1.6 km/h
1006 17-04-2020 11:45:00 16.6 C 9.46 g/m*3 16.6 C 0 km/h
1007 17-04-2020 11:50:00 16.9 C 9.35 g/m*3 16.9 C 1.6 km/h
1008 17-04-2020 11:55:00 17.2 C 9.37 g/m*3 17.2 C 0 km/h
1009 17-04-2020 12:00:00 17.5 C 9.69 g/m*3 17.5 C 0 km/h
1010 17-04-2020 12:05:00 17.8 C 9.56 g/m*3 17.8 C 1.6 km/h
1011 17-04-2020 12:10:00 18.2 C 9.48 g/m*3 18.2 C 1.6 km/h
1012 17-04-2020 12:15:00 18.5 C 9.49 g/m*3 18.5 C 1.6 km/h
1013 17-04-2020 12:20:00 18.8 C 9.18 g/m*3 18.8 C 1.6 km/h
1014 17-04-2020 12:25:00 19 C 9.61 g/m*3 19 C 6.4 km/h
1015 17-04-2020 12:30:00 19.3 C 9.12 g/m*3 19.3 C 6.4 km/h
1016 17-04-2020 12:35:00 19.4 C 9.18 g/m*3 19.4 C 1.6 km/h
1017 17-04-2020 12:40:00 19.6 C 8.95 g/m*3 19.6 C 1.6 km/h
1018 17-04-2020 12:45:00 19.7 C 9.17 g/m*3 19.7 C 3.2 km/h
1019 17-04-2020 12:50:00 19.8 C 8.88 g/m*3 19.8 C 3.2 km/h
1020 17-04-2020 12:55:00 19.9 C 8.76 g/m*3 19.9 C 3.2 km/h
1021 17-04-2020 13:00:00 20.1 C 8.87 g/m*3 20.1 C 6.4 km/h
1022 17-04-2020 13:05:00 20.2 C 8.74 g/m*3 20.2 C 1.6 km/h
1023 17-04-2020 13:10:00 20.3 C 8.97 g/m*3 20.3 C 0 km/h
1024 17-04-2020 13:15:00 20.3 C 8.79 g/m*3 20.3 C 4.8 km/h
1025 17-04-2020 13:20:00 20.5 C 8.9 g/m*3 20.5 C 3.2 km/h
Sensor: Nr:Datum:Temp:Abs-Feuchte:Windchill:Wind:
Aussen-T/F 1026 17-04-2020 13:25:00 20.7 C 9.18 g/m*3 20.7 C 4.8 km/h
1027 17-04-2020 13:30:00 20.9 C 8.92 g/m*3 20.9 C 4.8 km/h
1028 17-04-2020 13:35:00 21.1 C 9.21 g/m*3 21.1 C 6.4 km/h
1029 17-04-2020 13:40:00 21.2 C 9.27 g/m*3 21.2 C 6.4 km/h
1030 17-04-2020 13:45:00 21.4 C 9.56 g/m*3 21.4 C 4.8 km/h
1031 17-04-2020 13:50:00 21.4 C 9.19 g/m*3 21.4 C 8.1 km/h
1032 17-04-2020 13:55:00 21.5 C 9.62 g/m*3 21.5 C 6.4 km/h
1033 17-04-2020 14:00:00 21.6 C 9.1 g/m*3 21.6 C 3.2 km/h
1034 17-04-2020 14:05:00 21.7 C 9.35 g/m*3 21.7 C 0 km/h
1035 17-04-2020 14:10:00 21.8 C 9.59 g/m*3 21.8 C 8.1 km/h
1036 17-04-2020 14:15:00 22.1 C 9.37 g/m*3 22.1 C 6.4 km/h
1037 17-04-2020 14:20:00 22.2 C 9.23 g/m*3 22.2 C 6.4 km/h
1038 17-04-2020 14:25:00 22.3 C 9.48 g/m*3 22.3 C 6.4 km/h
1039 17-04-2020 14:30:00 22.4 C 9.33 g/m*3 22.4 C 8.1 km/h
1040 17-04-2020 14:35:00 22.4 C 9.33 g/m*3 22.4 C 3.2 km/h
1041 17-04-2020 14:40:00 22.6 C 9.24 g/m*3 22.6 C 8.1 km/h
1042 17-04-2020 14:45:00 22.7 C 9.5 g/m*3 22.7 C 6.4 km/h
1043 17-04-2020 14:50:00 22.8 C 9.55 g/m*3 22.8 C 6.4 km/h
1044 17-04-2020 14:55:00 23.1 C 9.51 g/m*3 23.1 C 6.4 km/h
1045 17-04-2020 15:00:00 23.2 C 9.36 g/m*3 23.2 C 11.3 km/h
1046 17-04-2020 15:05:00 23.3 C 9.41 g/m*3 23.3 C 11.3 km/h
1047 17-04-2020 15:10:00 23.4 C 9.25 g/m*3 23.4 C 12.9 km/h
1048 17-04-2020 15:15:00 23.4 C 9.04 g/m*3 23.4 C 12.9 km/h
1049 17-04-2020 15:20:00 23.4 C 9.04 g/m*3 23.4 C 4.8 km/h
1050 17-04-2020 15:25:00 23.4 C 9.25 g/m*3 23.4 C 3.2 km/h
Sensor: Nr:Datum:Temp:Abs-Feuchte:Windchill:Wind:
Aussen-T/F 1051 17-04-2020 15:30:00 23.4 C 9.46 g/m*3 23.4 C 6.4 km/h
1052 17-04-2020 15:35:00 23.4 C 9.25 g/m*3 23.4 C 6.4 km/h
1053 17-04-2020 15:40:00 23.4 C 9.25 g/m*3 23.4 C 8.1 km/h
1054 17-04-2020 15:45:00 23.4 C 9.25 g/m*3 23.4 C 11.3 km/h
1055 17-04-2020 15:50:00 23.4 C 9.25 g/m*3 23.4 C 11.3 km/h
1056 17-04-2020 15:55:00 23.4 C 9.25 g/m*3 23.4 C 3.2 km/h
1057 17-04-2020 16:00:00 23.4 C 9.25 g/m*3 23.4 C 4.8 km/h
1058 17-04-2020 16:05:00 23.7 C 9.41 g/m*3 23.7 C 6.4 km/h
1059 17-04-2020 16:10:00 24 C 9.36 g/m*3 24 C 11.3 km/h
1060 17-04-2020 16:15:00 24.4 C 9.57 g/m*3 24.4 C 11.3 km/h
1061 17-04-2020 16:20:00 24.6 C 9.23 g/m*3 24.6 C 8.1 km/h
1062 17-04-2020 16:25:00 24.4 C 9.12 g/m*3 24.4 C 6.4 km/h
1063 17-04-2020 16:30:00 24.3 C 9.29 g/m*3 24.3 C 4.8 km/h
1064 17-04-2020 16:35:00 24.3 C 9.07 g/m*3 24.3 C 8.1 km/h
1065 17-04-2020 16:40:00 24.3 C 9.07 g/m*3 24.3 C 8.1 km/h
1066 17-04-2020 16:45:00 24.3 C 9.07 g/m*3 24.3 C 4.8 km/h
1067 17-04-2020 16:50:00 24.2 C 9.02 g/m*3 24.2 C 8.1 km/h
1068 17-04-2020 16:55:00 24.3 C 9.07 g/m*3 24.3 C 8.1 km/h
1069 17-04-2020 17:00:00 24.6 C 9 g/m*3 24.6 C 9.7 km/h
1070 17-04-2020 17:05:00 24.9 C 8.93 g/m*3 24.9 C 9.7 km/h
1071 17-04-2020 17:10:00 25.2 C 8.85 g/m*3 25.2 C 8.1 km/h
1072 17-04-2020 17:15:00 25.2 C 8.85 g/m*3 25.2 C 6.4 km/h
1073 17-04-2020 17:20:00 25.1 C 9.03 g/m*3 25.1 C 6.4 km/h
1074 17-04-2020 17:25:00 25.2 C 8.85 g/m*3 25.2 C 8.1 km/h
1075 17-04-2020 17:30:00 25.4 C 9.42 g/m*3 25.4 C 9.7 km/h
Sensor: Nr:Datum:Temp:Abs-Feuchte:Windchill:Wind:
Aussen-T/F 1076 17-04-2020 17:35:00 25.8 C 9.15 g/m*3 25.8 C 3.2 km/h
1077 17-04-2020 17:40:00 26.1 C 8.81 g/m*3 26.1 C 8.1 km/h
1078 17-04-2020 17:45:00 25.8 C 8.67 g/m*3 25.8 C 8.1 km/h
1079 17-04-2020 17:50:00 25.7 C 8.86 g/m*3 25.7 C 3.2 km/h
1080 17-04-2020 17:55:00 25.8 C 9.15 g/m*3 25.8 C 3.2 km/h
1081 17-04-2020 18:00:00 25.9 C 9.44 g/m*3 25.9 C 3.2 km/h
1082 17-04-2020 18:05:00 26.2 C 9.11 g/m*3 26.2 C 3.2 km/h
1083 17-04-2020 18:10:00 26.2 C 9.11 g/m*3 26.2 C 1.6 km/h
1084 17-04-2020 18:15:00 26.1 C 9.3 g/m*3 26.1 C 3.2 km/h
1085 17-04-2020 18:20:00 26 C 8.76 g/m*3 26 C 6.4 km/h
1086 17-04-2020 18:25:00 25.7 C 9.34 g/m*3 25.7 C 3.2 km/h
1087 17-04-2020 18:30:00 25.6 C 9.76 g/m*3 25.6 C 3.2 km/h
1088 17-04-2020 18:35:00 25.7 C 9.58 g/m*3 25.7 C 4.8 km/h
1089 17-04-2020 18:40:00 25.8 C 9.39 g/m*3 25.8 C 1.6 km/h
1090 17-04-2020 18:45:00 25.8 C 9.39 g/m*3 25.8 C 6.4 km/h
1091 17-04-2020 18:50:00 25.7 C 10.29 g/m*3 25.7 C 3.2 km/h
1092 17-04-2020 18:55:00 25.5 C 10.18 g/m*3 25.5 C 3.2 km/h
1093 17-04-2020 19:00:00 25.4 C 9.89 g/m*3 25.4 C 1.6 km/h
1094 17-04-2020 19:05:00 25.5 C 9.71 g/m*3 25.5 C 6.4 km/h
1095 17-04-2020 19:10:00 25.6 C 9.76 g/m*3 25.6 C 4.8 km/h
1096 17-04-2020 19:15:00 25.4 C 10.59 g/m*3 25.4 C 4.8 km/h
1097 17-04-2020 19:20:00 25.3 C 10.53 g/m*3 25.3 C 3.2 km/h
1098 17-04-2020 19:25:00 24.9 C 10.76 g/m*3 24.9 C 1.6 km/h
1099 17-04-2020 19:30:00 24.5 C 10.97 g/m*3 24.5 C 1.6 km/h
1100 17-04-2020 19:35:00 24.1 C 10.72 g/m*3 24.1 C 3.2 km/h
Sensor: Nr:Datum:Temp:Abs-Feuchte:Windchill:Wind:
Aussen-T/F 1101 17-04-2020 19:40:00 23.7 C 10.69 g/m*3 23.7 C 4.8 km/h
1102 17-04-2020 19:45:00 23.2 C 10.6 g/m*3 23.2 C 4.8 km/h
1103 17-04-2020 19:50:00 22.7 C 10.51 g/m*3 22.7 C 4.8 km/h
1104 17-04-2020 19:55:00 22.1 C 10.54 g/m*3 22.1 C 4.8 km/h
1105 17-04-2020 20:00:00 21.6 C 10.43 g/m*3 21.6 C 1.6 km/h
1106 17-04-2020 20:05:00 21.1 C 10.32 g/m*3 21.1 C 3.2 km/h
1107 17-04-2020 20:10:00 20.6 C 10.02 g/m*3 20.6 C 4.8 km/h
1108 17-04-2020 20:15:00 20.3 C 10.02 g/m*3 20.3 C 4.8 km/h
1109 17-04-2020 20:20:00 19.9 C 9.97 g/m*3 19.9 C 4.8 km/h
1110 17-04-2020 20:25:00 19.6 C 9.96 g/m*3 19.6 C 6.4 km/h
1111 17-04-2020 20:30:00 19.3 C 9.95 g/m*3 19.3 C 6.4 km/h
1112 17-04-2020 20:35:00 18.9 C 9.72 g/m*3 18.9 C 6.4 km/h
1113 17-04-2020 20:40:00 18.7 C 9.61 g/m*3 18.7 C 6.4 km/h
1114 17-04-2020 20:45:00 18.5 C 9.81 g/m*3 18.5 C 4.8 km/h
1115 17-04-2020 20:50:00 18.3 C 9.69 g/m*3 18.3 C 4.8 km/h
1116 17-04-2020 20:55:00 18.1 C 9.73 g/m*3 18.1 C 4.8 km/h
1117 17-04-2020 21:00:00 17.9 C 9.77 g/m*3 17.9 C 4.8 km/h
1118 17-04-2020 21:05:00 17.8 C 9.71 g/m*3 17.8 C 3.2 km/h
1119 17-04-2020 21:10:00 17.7 C 9.81 g/m*3 17.7 C 4.8 km/h
1120 17-04-2020 21:15:00 17.7 C 9.96 g/m*3 17.7 C 3.2 km/h
1121 17-04-2020 21:20:00 17.6 C 9.9 g/m*3 17.6 C 4.8 km/h
1122 17-04-2020 21:25:00 17.6 C 9.9 g/m*3 17.6 C 3.2 km/h
1123 17-04-2020 21:30:00 17.4 C 9.78 g/m*3 17.4 C 6.4 km/h
1124 17-04-2020 21:35:00 17.4 C 9.78 g/m*3 17.4 C 6.4 km/h
1125 17-04-2020 21:40:00 17.4 C 9.93 g/m*3 17.4 C 4.8 km/h
Sensor: Nr:Datum:Temp:Abs-Feuchte:Windchill:Wind:
Aussen-T/F 1126 17-04-2020 21:45:00 17.3 C 9.87 g/m*3 17.3 C 3.2 km/h
1127 17-04-2020 21:50:00 17.2 C 9.81 g/m*3 17.2 C 3.2 km/h
1128 17-04-2020 21:55:00 17.1 C 9.75 g/m*3 17.1 C 4.8 km/h
1129 17-04-2020 22:00:00 16.8 C 9.58 g/m*3 16.8 C 1.6 km/h
1130 17-04-2020 22:05:00 16.7 C 9.52 g/m*3 16.7 C 6.4 km/h
1131 17-04-2020 22:10:00 16.5 C 9.55 g/m*3 16.5 C 3.2 km/h
1132 17-04-2020 22:15:00 16.3 C 9.57 g/m*3 16.3 C 4.8 km/h
1133 17-04-2020 22:20:00 16.1 C 9.32 g/m*3 16.1 C 4.8 km/h
1134 17-04-2020 22:25:00 15.9 C 9.48 g/m*3 15.9 C 1.6 km/h
1135 17-04-2020 22:30:00 15.8 C 9.42 g/m*3 15.8 C 0 km/h
1136 17-04-2020 22:35:00 15.7 C 9.5 g/m*3 15.7 C 0 km/h
1137 17-04-2020 22:40:00 15.6 C 9.44 g/m*3 15.6 C 3.2 km/h
1138 17-04-2020 22:45:00 15.4 C 9.46 g/m*3 15.4 C 3.2 km/h
1139 17-04-2020 22:50:00 15.3 C 9.4 g/m*3 15.3 C 0 km/h
1140 17-04-2020 22:55:00 15.2 C 9.35 g/m*3 15.2 C 0 km/h
1141 17-04-2020 23:00:00 15 C 9.23 g/m*3 15 C 0 km/h
1142 17-04-2020 23:05:00 15 C 9.36 g/m*3 15 C 4.8 km/h
1143 17-04-2020 23:10:00 14.9 C 9.18 g/m*3 14.9 C 0 km/h
1144 17-04-2020 23:15:00 14.9 C 9.3 g/m*3 14.9 C 0 km/h
1145 17-04-2020 23:20:00 14.8 C 9.37 g/m*3 14.8 C 1.6 km/h
1146 17-04-2020 23:25:00 14.7 C 9.44 g/m*3 14.7 C 0 km/h
1147 17-04-2020 23:30:00 14.6 C 9.39 g/m*3 14.6 C 0 km/h
1148 17-04-2020 23:35:00 14.4 C 9.39 g/m*3 14.4 C 1.6 km/h
1149 17-04-2020 23:40:00 14.3 C 9.34 g/m*3 14.3 C 0 km/h
1150 17-04-2020 23:45:00 14.1 C 9.34 g/m*3 14.1 C 1.6 km/h
Sensor: Nr:Datum:Temp:Abs-Feuchte:Windchill:Wind:
Aussen-T/F 1151 17-04-2020 23:50:00 14 C 9.29 g/m*3 14 C 1.6 km/h
1152 17-04-2020 23:55:00 13.9 C 9.23 g/m*3 13.9 C 0 km/h
1153 18-04-2020 00:00:00 13.8 C 9.17 g/m*3 13.8 C 0 km/h
1154 18-04-2020 00:05:00 13.8 C 9.17 g/m*3 13.8 C 0 km/h
1155 18-04-2020 00:10:00 13.7 C 9.12 g/m*3 13.7 C 0 km/h
1156 18-04-2020 00:15:00 13.6 C 9.06 g/m*3 13.6 C 0 km/h
1157 18-04-2020 00:20:00 13.4 C 8.95 g/m*3 13.4 C 0 km/h
1158 18-04-2020 00:25:00 13.2 C 8.96 g/m*3 13.2 C 0 km/h
1159 18-04-2020 00:30:00 13 C 8.85 g/m*3 13 C 0 km/h
1160 18-04-2020 00:35:00 12.8 C 8.74 g/m*3 12.8 C 0 km/h
1161 18-04-2020 00:40:00 12.7 C 8.79 g/m*3 12.7 C 0 km/h
1162 18-04-2020 00:45:00 12.6 C 8.74 g/m*3 12.6 C 0 km/h
1163 18-04-2020 00:50:00 12.4 C 8.63 g/m*3 12.4 C 1.6 km/h
1164 18-04-2020 00:55:00 12.3 C 8.58 g/m*3 12.3 C 1.6 km/h
1165 18-04-2020 01:00:00 12.3 C 8.58 g/m*3 12.3 C 0 km/h
1166 18-04-2020 01:05:00 12.3 C 8.58 g/m*3 12.3 C 0 km/h
1167 18-04-2020 01:10:00 12.3 C 8.58 g/m*3 12.3 C 0 km/h
1168 18-04-2020 01:15:00 12.2 C 8.52 g/m*3 12.2 C 0 km/h
1169 18-04-2020 01:20:00 12.2 C 8.52 g/m*3 12.2 C 0 km/h
1170 18-04-2020 01:25:00 12.1 C 8.47 g/m*3 12.1 C 0 km/h
1171 18-04-2020 01:30:00 11.9 C 8.47 g/m*3 11.9 C 0 km/h
1172 18-04-2020 01:35:00 11.9 C 8.58 g/m*3 11.9 C 0 km/h
1173 18-04-2020 01:40:00 11.7 C 8.37 g/m*3 11.7 C 0 km/h
1174 18-04-2020 01:45:00 11.5 C 8.26 g/m*3 11.5 C 0 km/h
1175 18-04-2020 01:50:00 11.4 C 8.21 g/m*3 11.4 C 0 km/h
Sensor: Nr:Datum:Temp:Abs-Feuchte:Windchill:Wind:
Aussen-T/F 1176 18-04-2020 01:55:00 11.3 C 8.26 g/m*3 11.3 C 0 km/h
1177 18-04-2020 02:00:00 11.3 C 8.26 g/m*3 11.3 C 0 km/h
1178 18-04-2020 02:05:00 11.2 C 8.21 g/m*3 11.2 C 0 km/h
1179 18-04-2020 02:10:00 11.3 C 8.47 g/m*3 11.3 C 0 km/h
1180 18-04-2020 02:15:00 11.2 C 8.31 g/m*3 11.2 C 0 km/h
1181 18-04-2020 02:20:00 11.1 C 8.36 g/m*3 11.1 C 0 km/h
1182 18-04-2020 02:25:00 11.1 C 8.36 g/m*3 11.1 C 0 km/h
1183 18-04-2020 02:30:00 11.1 C 8.36 g/m*3 11.1 C 0 km/h
1184 18-04-2020 02:35:00 10.9 C 8.36 g/m*3 10.9 C 0 km/h
1185 18-04-2020 02:40:00 10.8 C 8.3 g/m*3 10.8 C 0 km/h
1186 18-04-2020 02:45:00 10.8 C 8.3 g/m*3 10.8 C 0 km/h
1187 18-04-2020 02:50:00 10.7 C 8.25 g/m*3 10.7 C 0 km/h
1188 18-04-2020 02:55:00 10.6 C 8.3 g/m*3 10.6 C 0 km/h
1189 18-04-2020 03:00:00 10.5 C 8.24 g/m*3 10.5 C 0 km/h
1190 18-04-2020 03:05:00 10.3 C 8.14 g/m*3 10.3 C 0 km/h
1191 18-04-2020 03:10:00 10.3 C 8.24 g/m*3 10.3 C 0 km/h
1192 18-04-2020 03:15:00 10.3 C 8.24 g/m*3 10.3 C 0 km/h
1193 18-04-2020 03:20:00 10.2 C 8.18 g/m*3 10.2 C 0 km/h
1194 18-04-2020 03:25:00 10 C 8.08 g/m*3 10 C 0 km/h
1195 18-04-2020 03:30:00 9.8 C 7.98 g/m*3 9.8 C 0 km/h
1196 18-04-2020 03:35:00 9.7 C 7.93 g/m*3 9.7 C 0 km/h
1197 18-04-2020 03:40:00 9.7 C 7.93 g/m*3 9.7 C 0 km/h
1198 18-04-2020 03:45:00 9.6 C 7.88 g/m*3 9.6 C 0 km/h
1199 18-04-2020 03:50:00 9.6 C 7.97 g/m*3 9.6 C 0 km/h
1200 18-04-2020 03:55:00 9.5 C 7.92 g/m*3 9.5 C 0 km/h
Sensor: Nr:Datum:Temp:Abs-Feuchte:Windchill:Wind:
Aussen-T/F 1201 18-04-2020 04:00:00 9.5 C 8.01 g/m*3 9.5 C 0 km/h
1202 18-04-2020 04:05:00 9.5 C 8.01 g/m*3 9.5 C 0 km/h
1203 18-04-2020 04:10:00 9.5 C 8.01 g/m*3 9.5 C 0 km/h
1204 18-04-2020 04:15:00 9.4 C 7.96 g/m*3 9.4 C 0 km/h
1205 18-04-2020 04:20:00 9.4 C 7.96 g/m*3 9.4 C 0 km/h
1206 18-04-2020 04:25:00 9.4 C 8.05 g/m*3 9.4 C 0 km/h
1207 18-04-2020 04:30:00 9.4 C 8.05 g/m*3 9.4 C 0 km/h
1208 18-04-2020 04:35:00 9.4 C 8.05 g/m*3 9.4 C 0 km/h
1209 18-04-2020 04:40:00 9.4 C 8.05 g/m*3 9.4 C 0 km/h
1210 18-04-2020 04:45:00 9.3 C 8 g/m*3 9.3 C 0 km/h
1211 18-04-2020 04:50:00 9.2 C 7.95 g/m*3 9.2 C 0 km/h
1212 18-04-2020 04:55:00 9.2 C 7.95 g/m*3 9.2 C 0 km/h
1213 18-04-2020 05:00:00 9.2 C 7.95 g/m*3 9.2 C 0 km/h
1214 18-04-2020 05:05:00 9.1 C 7.9 g/m*3 9.1 C 0 km/h
1215 18-04-2020 05:10:00 9.1 C 7.9 g/m*3 9.1 C 0 km/h
1216 18-04-2020 05:15:00 9 C 7.85 g/m*3 9 C 0 km/h
1217 18-04-2020 05:20:00 9.1 C 7.9 g/m*3 9.1 C 0 km/h
1218 18-04-2020 05:25:00 9.1 C 7.99 g/m*3 9.1 C 0 km/h
1219 18-04-2020 05:30:00 9.1 C 7.99 g/m*3 9.1 C 0 km/h
1220 18-04-2020 05:35:00 9.1 C 7.99 g/m*3 9.1 C 0 km/h
1221 18-04-2020 05:40:00 9.1 C 7.9 g/m*3 9.1 C 0 km/h
1222 18-04-2020 05:45:00 8.9 C 7.8 g/m*3 8.9 C 0 km/h
1223 18-04-2020 05:50:00 8.9 C 7.8 g/m*3 8.9 C 0 km/h
1224 18-04-2020 05:55:00 8.9 C 7.88 g/m*3 8.9 C 0 km/h
1225 18-04-2020 06:00:00 8.9 C 7.88 g/m*3 8.9 C 0 km/h
Sensor: Nr:Datum:Temp:Abs-Feuchte:Windchill:Wind:
Aussen-T/F 1226 18-04-2020 06:05:00 8.9 C 7.88 g/m*3 8.9 C 0 km/h
1227 18-04-2020 06:10:00 8.9 C 7.88 g/m*3 8.9 C 0 km/h
1228 18-04-2020 06:15:00 8.9 C 7.88 g/m*3 8.9 C 0 km/h
1229 18-04-2020 06:20:00 8.9 C 7.97 g/m*3 8.9 C 0 km/h
1230 18-04-2020 06:25:00 8.9 C 7.88 g/m*3 8.9 C 0 km/h
1231 18-04-2020 06:30:00 8.9 C 7.88 g/m*3 8.9 C 0 km/h
1232 18-04-2020 06:35:00 8.9 C 7.88 g/m*3 8.9 C 0 km/h
1233 18-04-2020 06:40:00 8.8 C 7.92 g/m*3 8.8 C 0 km/h
1234 18-04-2020 06:45:00 8.8 C 7.83 g/m*3 8.8 C 0 km/h
1235 18-04-2020 06:50:00 8.7 C 7.78 g/m*3 8.7 C 0 km/h
1236 18-04-2020 06:55:00 8.6 C 7.73 g/m*3 8.6 C 0 km/h
1237 18-04-2020 07:00:00 8.6 C 7.82 g/m*3 8.6 C 0 km/h
1238 18-04-2020 07:05:00 8.7 C 7.87 g/m*3 8.7 C 0 km/h
1239 18-04-2020 07:10:00 8.8 C 8.01 g/m*3 8.8 C 1.6 km/h
1240 18-04-2020 07:15:00 9.1 C 8.16 g/m*3 9.1 C 3.2 km/h
1241 18-04-2020 07:20:00 9.3 C 8.36 g/m*3 9.3 C 1.6 km/h
1242 18-04-2020 07:25:00 9.5 C 8.37 g/m*3 9.5 C 0 km/h
1243 18-04-2020 07:30:00 9.6 C 8.43 g/m*3 9.6 C 0 km/h
1244 18-04-2020 07:35:00 9.7 C 8.48 g/m*3 9.7 C 1.6 km/h
1245 18-04-2020 07:40:00 9.8 C 8.54 g/m*3 9.8 C 0 km/h
1246 18-04-2020 07:45:00 9.9 C 8.59 g/m*3 9.9 C 0 km/h
1247 18-04-2020 07:50:00 9.9 C 8.59 g/m*3 9.9 C 0 km/h
1248 18-04-2020 07:55:00 10 C 8.64 g/m*3 10 C 0 km/h
1249 18-04-2020 08:00:00 10 C 8.55 g/m*3 10 C 0 km/h
1250 18-04-2020 08:05:00 10.1 C 8.61 g/m*3 10.1 C 0 km/h
Sensor: Nr:Datum:Temp:Abs-Feuchte:Windchill:Wind:
Aussen-T/F 1251 18-04-2020 08:10:00 10.1 C 8.7 g/m*3 10.1 C 0 km/h
1252 18-04-2020 08:15:00 10.2 C 8.76 g/m*3 10.2 C 0 km/h
1253 18-04-2020 08:20:00 10.2 C 8.76 g/m*3 10.2 C 0 km/h
1254 18-04-2020 08:25:00 10.3 C 8.81 g/m*3 10.3 C 0 km/h
1255 18-04-2020 08:30:00 10.3 C 8.81 g/m*3 10.3 C 0 km/h
1256 18-04-2020 08:35:00 10.3 C 8.71 g/m*3 10.3 C 0 km/h
1257 18-04-2020 08:40:00 10.4 C 8.87 g/m*3 10.4 C 0 km/h
1258 18-04-2020 08:45:00 10.5 C 8.92 g/m*3 10.5 C 0 km/h
1259 18-04-2020 08:50:00 10.7 C 9.04 g/m*3 10.7 C 1.6 km/h
1260 18-04-2020 08:55:00 10.8 C 9.09 g/m*3 10.8 C 0 km/h
1261 18-04-2020 09:00:00 10.9 C 9.15 g/m*3 10.9 C 0 km/h
1262 18-04-2020 09:05:00 11.1 C 9.27 g/m*3 11.1 C 0 km/h
1263 18-04-2020 09:10:00 11.3 C 9.38 g/m*3 11.3 C 0 km/h
1264 18-04-2020 09:15:00 11.4 C 9.34 g/m*3 11.4 C 0 km/h
1265 18-04-2020 09:20:00 11.7 C 9.52 g/m*3 11.7 C 0 km/h
1266 18-04-2020 09:25:00 11.8 C 9.37 g/m*3 11.8 C 1.6 km/h
1267 18-04-2020 09:30:00 12.2 C 9.5 g/m*3 12.2 C 6.4 km/h
1268 18-04-2020 09:35:00 12.6 C 9.62 g/m*3 12.6 C 6.4 km/h
1269 18-04-2020 09:40:00 12.8 C 9.63 g/m*3 12.8 C 3.2 km/h
1270 18-04-2020 09:45:00 13.1 C 9.59 g/m*3 13.1 C 4.8 km/h
1271 18-04-2020 09:50:00 13.3 C 9.59 g/m*3 13.3 C 1.6 km/h
1272 18-04-2020 09:55:00 13.5 C 9.59 g/m*3 13.5 C 3.2 km/h
1273 18-04-2020 10:00:00 13.7 C 9.59 g/m*3 13.7 C 3.2 km/h
1274 18-04-2020 10:05:00 14.1 C 9.83 g/m*3 14.1 C 1.6 km/h
1275 18-04-2020 10:10:00 14.4 C 9.77 g/m*3 14.4 C 4.8 km/h
Sensor: Nr:Datum:Temp:Abs-Feuchte:Windchill:Wind:
Aussen-T/F 1276 18-04-2020 10:15:00 14.6 C 9.89 g/m*3 14.6 C 4.8 km/h
1277 18-04-2020 10:20:00 14.8 C 9.88 g/m*3 14.8 C 1.6 km/h
1278 18-04-2020 10:25:00 15 C 10 g/m*3 15 C 4.8 km/h
1279 18-04-2020 10:30:00 15.3 C 10.06 g/m*3 15.3 C 8.1 km/h
1280 18-04-2020 10:35:00 15.4 C 10.12 g/m*3 15.4 C 6.4 km/h
1281 18-04-2020 10:40:00 15.6 C 10.24 g/m*3 15.6 C 6.4 km/h
1282 18-04-2020 10:45:00 15.7 C 10.17 g/m*3 15.7 C 3.2 km/h
1283 18-04-2020 10:50:00 15.8 C 10.1 g/m*3 15.8 C 1.6 km/h
1284 18-04-2020 10:55:00 16 C 10.22 g/m*3 16 C 0 km/h
1285 18-04-2020 11:00:00 16.1 C 10.28 g/m*3 16.1 C 0 km/h
1286 18-04-2020 11:05:00 16.3 C 10.54 g/m*3 16.3 C 1.6 km/h
1287 18-04-2020 11:10:00 16.5 C 10.39 g/m*3 16.5 C 0 km/h
1288 18-04-2020 11:15:00 16.7 C 10.37 g/m*3 16.7 C 3.2 km/h
1289 18-04-2020 11:20:00 16.9 C 10.21 g/m*3 16.9 C 4.8 km/h
1290 18-04-2020 11:25:00 17 C 10.27 g/m*3 17 C 3.2 km/h
1291 18-04-2020 11:30:00 17.2 C 10.4 g/m*3 17.2 C 0 km/h
1292 18-04-2020 11:35:00 17.2 C 10.25 g/m*3 17.2 C 1.6 km/h
1293 18-04-2020 11:40:00 17.2 C 10.4 g/m*3 17.2 C 3.2 km/h
1294 18-04-2020 11:45:00 17.3 C 10.46 g/m*3 17.3 C 3.2 km/h
1295 18-04-2020 11:50:00 17.4 C 10.67 g/m*3 17.4 C 3.2 km/h
1296 18-04-2020 11:55:00 17.4 C 10.37 g/m*3 17.4 C 1.6 km/h
1297 18-04-2020 12:00:00 17.6 C 10.8 g/m*3 17.6 C 0 km/h
1298 18-04-2020 12:05:00 17.8 C 10.78 g/m*3 17.8 C 0 km/h
1299 18-04-2020 12:10:00 17.9 C 10.69 g/m*3 17.9 C 1.6 km/h
1300 18-04-2020 12:15:00 18.1 C 10.66 g/m*3 18.1 C 1.6 km/h
Sensor: Nr:Datum:Temp:Abs-Feuchte:Windchill:Wind:
Aussen-T/F 1301 18-04-2020 12:20:00 18.2 C 10.72 g/m*3 18.2 C 1.6 km/h
1302 18-04-2020 12:25:00 18.3 C 10.48 g/m*3 18.3 C 3.2 km/h
1303 18-04-2020 12:30:00 18.4 C 10.54 g/m*3 18.4 C 0 km/h
1304 18-04-2020 12:35:00 18.4 C 10.22 g/m*3 18.4 C 1.6 km/h
1305 18-04-2020 12:40:00 18.5 C 10.28 g/m*3 18.5 C 0 km/h
1306 18-04-2020 12:45:00 18.6 C 10.66 g/m*3 18.6 C 0 km/h
1307 18-04-2020 12:50:00 18.7 C 10.73 g/m*3 18.7 C 0 km/h
1308 18-04-2020 12:55:00 18.8 C 10.95 g/m*3 18.8 C 0 km/h
1309 18-04-2020 13:00:00 18.9 C 10.85 g/m*3 18.9 C 0 km/h
1310 18-04-2020 13:05:00 19.1 C 10.49 g/m*3 19.1 C 3.2 km/h
1311 18-04-2020 13:10:00 19.2 C 10.55 g/m*3 19.2 C 4.8 km/h
1312 18-04-2020 13:15:00 19.3 C 10.28 g/m*3 19.3 C 4.8 km/h
1313 18-04-2020 13:20:00 19.4 C 10.34 g/m*3 19.4 C 6.4 km/h
1314 18-04-2020 13:25:00 19.6 C 10.47 g/m*3 19.6 C 1.6 km/h
1315 18-04-2020 13:30:00 19.7 C 10.53 g/m*3 19.7 C 1.6 km/h
1316 18-04-2020 13:35:00 19.9 C 10.48 g/m*3 19.9 C 1.6 km/h
1317 18-04-2020 13:40:00 20.1 C 10.6 g/m*3 20.1 C 6.4 km/h
1318 18-04-2020 13:45:00 20.2 C 10.49 g/m*3 20.2 C 8.1 km/h
1319 18-04-2020 13:50:00 20.2 C 10.32 g/m*3 20.2 C 3.2 km/h
1320 18-04-2020 13:55:00 20.3 C 10.38 g/m*3 20.3 C 0 km/h
1321 18-04-2020 14:00:00 20.4 C 10.44 g/m*3 20.4 C 4.8 km/h
1322 18-04-2020 14:05:00 20.3 C 10.38 g/m*3 20.3 C 3.2 km/h
1323 18-04-2020 14:10:00 20.4 C 10.79 g/m*3 20.4 C 0 km/h
1324 18-04-2020 14:15:00 20.4 C 10.61 g/m*3 20.4 C 0 km/h
1325 18-04-2020 14:20:00 20.6 C 10.74 g/m*3 20.6 C 1.6 km/h
Sensor: Nr:Datum:Temp:Abs-Feuchte:Windchill:Wind:
Aussen-T/F 1326 18-04-2020 14:25:00 20.7 C 10.62 g/m*3 20.7 C 3.2 km/h
1327 18-04-2020 14:30:00 20.7 C 10.62 g/m*3 20.7 C 4.8 km/h
1328 18-04-2020 14:35:00 20.7 C 10.8 g/m*3 20.7 C 8.1 km/h
1329 18-04-2020 14:40:00 20.8 C 11.23 g/m*3 20.8 C 6.4 km/h
1330 18-04-2020 14:45:00 20.8 C 11.23 g/m*3 20.8 C 8.1 km/h
1331 18-04-2020 14:50:00 20.9 C 10.93 g/m*3 20.9 C 6.4 km/h
1332 18-04-2020 14:55:00 20.9 C 10.75 g/m*3 20.9 C 6.4 km/h
1333 18-04-2020 15:00:00 21 C 10.99 g/m*3 21 C 4.8 km/h
1334 18-04-2020 15:05:00 21.2 C 10.93 g/m*3 21.2 C 9.7 km/h
1335 18-04-2020 15:10:00 21.3 C 10.81 g/m*3 21.3 C 9.7 km/h
1336 18-04-2020 15:15:00 21.4 C 11.06 g/m*3 21.4 C 4.8 km/h
1337 18-04-2020 15:20:00 21.4 C 10.69 g/m*3 21.4 C 9.7 km/h
1338 18-04-2020 15:25:00 21.5 C 10.75 g/m*3 21.5 C 6.4 km/h
1339 18-04-2020 15:30:00 21.4 C 10.69 g/m*3 21.4 C 9.7 km/h
1340 18-04-2020 15:35:00 21.3 C 10.62 g/m*3 21.3 C 11.3 km/h
1341 18-04-2020 15:40:00 21.2 C 10.75 g/m*3 21.2 C 8.1 km/h
1342 18-04-2020 15:45:00 21.2 C 10.56 g/m*3 21.2 C 14.5 km/h
1343 18-04-2020 15:50:00 21.2 C 10.93 g/m*3 21.2 C 17.7 km/h
1344 18-04-2020 15:55:00 20.9 C 11.11 g/m*3 20.9 C 17.7 km/h
1345 18-04-2020 16:00:00 20.8 C 11.05 g/m*3 20.8 C 12.9 km/h
1346 18-04-2020 16:05:00 20.7 C 11.34 g/m*3 20.7 C 12.9 km/h
1347 18-04-2020 16:10:00 20.6 C 11.28 g/m*3 20.6 C 16.1 km/h
1348 18-04-2020 16:15:00 20.4 C 11.14 g/m*3 20.4 C 12.9 km/h
1349 18-04-2020 16:20:00 20.3 C 11.26 g/m*3 20.3 C 16.1 km/h
1350 18-04-2020 16:25:00 20.1 C 11.3 g/m*3 20.1 C 14.5 km/h
Sensor: Nr:Datum:Temp:Abs-Feuchte:Windchill:Wind:
Aussen-T/F 1351 18-04-2020 16:30:00 19.7 C 11.38 g/m*3 19.7 C 17.7 km/h
1352 18-04-2020 16:35:00 19.3 C 11.28 g/m*3 19.3 C 17.7 km/h
1353 18-04-2020 16:40:00 19.1 C 11.47 g/m*3 19.1 C 11.3 km/h
1354 18-04-2020 16:45:00 19 C 11.41 g/m*3 19 C 9.7 km/h
1355 18-04-2020 16:50:00 19 C 11.73 g/m*3 19 C 6.4 km/h
1356 18-04-2020 16:55:00 18.9 C 11.66 g/m*3 18.9 C 6.4 km/h
1357 18-04-2020 17:00:00 18.9 C 11.83 g/m*3 18.9 C 8.1 km/h
1358 18-04-2020 17:05:00 18.8 C 11.76 g/m*3 18.8 C 4.8 km/h
1359 18-04-2020 17:10:00 18.7 C 11.85 g/m*3 18.7 C 4.8 km/h
1360 18-04-2020 17:15:00 18.6 C 11.78 g/m*3 18.6 C 1.6 km/h
1361 18-04-2020 17:20:00 18.6 C 11.78 g/m*3 18.6 C 1.6 km/h
1362 18-04-2020 17:25:00 18.5 C 12.18 g/m*3 18.5 C 0 km/h
1363 18-04-2020 17:30:00 18.4 C 12.43 g/m*3 18.4 C 1.6 km/h
1364 18-04-2020 17:35:00 18.3 C 12.66 g/m*3 18.3 C 1.6 km/h
1365 18-04-2020 17:40:00 18.3 C 12.82 g/m*3 18.3 C 1.6 km/h
1366 18-04-2020 17:45:00 18.1 C 12.36 g/m*3 18.1 C 0 km/h
1367 18-04-2020 17:50:00 17.9 C 12.37 g/m*3 17.9 C 1.6 km/h
1368 18-04-2020 17:55:00 17.7 C 12.22 g/m*3 17.7 C 0 km/h
1369 18-04-2020 18:00:00 17.6 C 12.3 g/m*3 17.6 C 0 km/h
1370 18-04-2020 18:05:00 17.5 C 12.23 g/m*3 17.5 C 1.6 km/h
1371 18-04-2020 18:10:00 17.4 C 12.3 g/m*3 17.4 C 1.6 km/h
1372 18-04-2020 18:15:00 17.4 C 12.45 g/m*3 17.4 C 0 km/h
1373 18-04-2020 18:20:00 17.3 C 12.08 g/m*3 17.3 C 4.8 km/h
1374 18-04-2020 18:25:00 17.3 C 12.08 g/m*3 17.3 C 0 km/h
1375 18-04-2020 18:30:00 17.4 C 12.15 g/m*3 17.4 C 3.2 km/h
Sensor: Nr:Datum:Temp:Abs-Feuchte:Windchill:Wind:
Aussen-T/F 1376 18-04-2020 18:35:00 17.4 C 11.71 g/m*3 17.4 C 6.4 km/h
1377 18-04-2020 18:40:00 17.4 C 11.56 g/m*3 17.4 C 1.6 km/h
1378 18-04-2020 18:45:00 17.4 C 11.26 g/m*3 17.4 C 9.7 km/h
1379 18-04-2020 18:50:00 17.6 C 11.25 g/m*3 17.6 C 8.1 km/h
1380 18-04-2020 18:55:00 17.7 C 11.32 g/m*3 17.7 C 9.7 km/h
1381 18-04-2020 19:00:00 17.8 C 11.23 g/m*3 17.8 C 12.9 km/h
1382 18-04-2020 19:05:00 17.9 C 11.15 g/m*3 17.9 C 9.7 km/h
1383 18-04-2020 19:10:00 17.8 C 11.08 g/m*3 17.8 C 9.7 km/h
1384 18-04-2020 19:15:00 17.7 C 11.01 g/m*3 17.7 C 6.4 km/h
1385 18-04-2020 19:20:00 17.6 C 10.95 g/m*3 17.6 C 8.1 km/h
1386 18-04-2020 19:25:00 17.6 C 11.1 g/m*3 17.6 C 9.7 km/h
1387 18-04-2020 19:30:00 17.5 C 11.03 g/m*3 17.5 C 9.7 km/h
1388 18-04-2020 19:35:00 17.6 C 11.1 g/m*3 17.6 C 8.1 km/h
1389 18-04-2020 19:40:00 17.8 C 11.23 g/m*3 17.8 C 3.2 km/h
1390 18-04-2020 19:45:00 17.9 C 11.15 g/m*3 17.9 C 4.8 km/h
1391 18-04-2020 19:50:00 17.9 C 11.15 g/m*3 17.9 C 4.8 km/h
1392 18-04-2020 19:55:00 17.8 C 10.93 g/m*3 17.8 C 6.4 km/h
1393 18-04-2020 20:00:00 17.7 C 10.71 g/m*3 17.7 C 8.1 km/h
1394 18-04-2020 20:05:00 17.6 C 10.65 g/m*3 17.6 C 6.4 km/h
1395 18-04-2020 20:10:00 17.4 C 10.67 g/m*3 17.4 C 0 km/h
1396 18-04-2020 20:15:00 17.2 C 10.54 g/m*3 17.2 C 3.2 km/h
1397 18-04-2020 20:20:00 17 C 10.56 g/m*3 17 C 3.2 km/h
1398 18-04-2020 20:25:00 16.7 C 10.52 g/m*3 16.7 C 1.6 km/h
1399 18-04-2020 20:30:00 16.4 C 10.61 g/m*3 16.4 C 0 km/h
1400 18-04-2020 20:35:00 16.1 C 10.55 g/m*3 16.1 C 1.6 km/h
Sensor: Nr:Datum:Temp:Abs-Feuchte:Windchill:Wind:
Aussen-T/F 1401 18-04-2020 20:40:00 15.8 C 10.5 g/m*3 15.8 C 1.6 km/h
1402 18-04-2020 20:45:00 15.6 C 10.51 g/m*3 15.6 C 0 km/h
1403 18-04-2020 20:50:00 15.3 C 10.45 g/m*3 15.3 C 1.6 km/h
1404 18-04-2020 20:55:00 15.2 C 10.51 g/m*3 15.2 C 0 km/h
1405 18-04-2020 21:00:00 15 C 10.51 g/m*3 15 C 0 km/h
1406 18-04-2020 21:05:00 14.9 C 10.45 g/m*3 14.9 C 0 km/h
1407 18-04-2020 21:10:00 14.9 C 10.58 g/m*3 14.9 C 1.6 km/h
1408 18-04-2020 21:15:00 14.9 C 10.58 g/m*3 14.9 C 1.6 km/h
1409 18-04-2020 21:20:00 14.9 C 10.58 g/m*3 14.9 C 1.6 km/h
1410 18-04-2020 21:25:00 14.9 C 10.58 g/m*3 14.9 C 1.6 km/h
1411 18-04-2020 21:30:00 15 C 10.51 g/m*3 15 C 1.6 km/h
1412 18-04-2020 21:35:00 15 C 10.51 g/m*3 15 C 0 km/h
1413 18-04-2020 21:40:00 15.1 C 10.58 g/m*3 15.1 C 1.6 km/h
1414 18-04-2020 21:45:00 15 C 10.51 g/m*3 15 C 0 km/h
1415 18-04-2020 21:50:00 15 C 10.64 g/m*3 15 C 0 km/h
1416 18-04-2020 21:55:00 14.9 C 10.58 g/m*3 14.9 C 0 km/h
1417 18-04-2020 22:00:00 14.8 C 10.51 g/m*3 14.8 C 3.2 km/h
1418 18-04-2020 22:05:00 14.7 C 10.45 g/m*3 14.7 C 3.2 km/h
1419 18-04-2020 22:10:00 14.7 C 10.58 g/m*3 14.7 C 1.6 km/h
1420 18-04-2020 22:15:00 14.6 C 10.51 g/m*3 14.6 C 0 km/h
1421 18-04-2020 22:20:00 14.5 C 10.45 g/m*3 14.5 C 0 km/h
1422 18-04-2020 22:25:00 14.3 C 10.2 g/m*3 14.3 C 1.6 km/h
1423 18-04-2020 22:30:00 14.1 C 10.19 g/m*3 14.1 C 3.2 km/h
1424 18-04-2020 22:35:00 13.9 C 10.07 g/m*3 13.9 C 3.2 km/h
1425 18-04-2020 22:40:00 13.7 C 10.07 g/m*3 13.7 C 1.6 km/h
Sensor: Nr:Datum:Temp:Abs-Feuchte:Windchill:Wind:
Aussen-T/F 1426 18-04-2020 22:45:00 13.5 C 9.94 g/m*3 13.5 C 4.8 km/h
1427 18-04-2020 22:50:00 13.3 C 9.94 g/m*3 13.3 C 6.4 km/h
1428 18-04-2020 22:55:00 13.2 C 9.87 g/m*3 13.2 C 4.8 km/h
1429 18-04-2020 23:00:00 13.2 C 9.99 g/m*3 13.2 C 4.8 km/h
1430 18-04-2020 23:05:00 13.1 C 9.93 g/m*3 13.1 C 4.8 km/h
1431 18-04-2020 23:10:00 13 C 9.98 g/m*3 13 C 3.2 km/h
1432 18-04-2020 23:15:00 12.9 C 9.92 g/m*3 12.9 C 4.8 km/h
1433 18-04-2020 23:20:00 12.8 C 9.86 g/m*3 12.8 C 4.8 km/h
1434 18-04-2020 23:25:00 12.7 C 9.8 g/m*3 12.7 C 4.8 km/h
1435 18-04-2020 23:30:00 12.6 C 9.74 g/m*3 12.6 C 0 km/h
1436 18-04-2020 23:35:00 12.4 C 9.62 g/m*3 12.4 C 0 km/h
1437 18-04-2020 23:40:00 12.3 C 9.56 g/m*3 12.3 C 0 km/h
1438 18-04-2020 23:45:00 12.2 C 9.6 g/m*3 12.2 C 0 km/h
1439 18-04-2020 23:50:00 12 C 9.48 g/m*3 12 C 0 km/h
1440 18-04-2020 23:55:00 11.8 C 9.37 g/m*3 11.8 C 0 km/h
1441 19-04-2020 00:00:00 11.7 C 9.31 g/m*3 11.7 C 0 km/h
1442 19-04-2020 00:05:00 11.6 C 9.35 g/m*3 11.6 C 1.6 km/h
1443 19-04-2020 00:10:00 11.4 C 9.24 g/m*3 11.4 C 0 km/h
1444 19-04-2020 00:15:00 11.3 C 9.18 g/m*3 11.3 C 0 km/h
1445 19-04-2020 00:20:00 11.2 C 9.12 g/m*3 11.2 C 0 km/h
1446 19-04-2020 00:25:00 11.1 C 9.17 g/m*3 11.1 C 0 km/h
1447 19-04-2020 00:30:00 11.1 C 9.17 g/m*3 11.1 C 0 km/h
1448 19-04-2020 00:35:00 11 C 9.21 g/m*3 11 C 0 km/h
1449 19-04-2020 00:40:00 10.9 C 9.15 g/m*3 10.9 C 0 km/h
1450 19-04-2020 00:45:00 10.8 C 9.09 g/m*3 10.8 C 0 km/h
Sensor: Nr:Datum:Temp:Abs-Feuchte:Windchill:Wind:
Aussen-T/F 1451 19-04-2020 00:50:00 10.8 C 9.09 g/m*3 10.8 C 0 km/h
1452 19-04-2020 00:55:00 10.7 C 9.04 g/m*3 10.7 C 0 km/h
1453 19-04-2020 01:00:00 10.6 C 8.98 g/m*3 10.6 C 0 km/h
1454 19-04-2020 01:05:00 10.5 C 8.92 g/m*3 10.5 C 0 km/h
1455 19-04-2020 01:10:00 10.5 C 9.02 g/m*3 10.5 C 0 km/h
1456 19-04-2020 01:15:00 10.5 C 9.02 g/m*3 10.5 C 0 km/h
1457 19-04-2020 01:20:00 10.4 C 8.96 g/m*3 10.4 C 0 km/h
1458 19-04-2020 01:25:00 10.3 C 8.91 g/m*3 10.3 C 0 km/h
1459 19-04-2020 01:30:00 10.2 C 8.85 g/m*3 10.2 C 0 km/h
1460 19-04-2020 01:35:00 10.2 C 8.85 g/m*3 10.2 C 0 km/h
1461 19-04-2020 01:40:00 10.2 C 8.85 g/m*3 10.2 C 0 km/h
1462 19-04-2020 01:45:00 10.2 C 8.95 g/m*3 10.2 C 1.6 km/h
1463 19-04-2020 01:50:00 10.2 C 8.95 g/m*3 10.2 C 0 km/h
1464 19-04-2020 01:55:00 10.1 C 8.89 g/m*3 10.1 C 0 km/h
1465 19-04-2020 02:00:00 10 C 8.74 g/m*3 10 C 0 km/h
1466 19-04-2020 02:05:00 9.9 C 8.78 g/m*3 9.9 C 0 km/h
1467 19-04-2020 02:10:00 10 C 8.83 g/m*3 10 C 0 km/h
1468 19-04-2020 02:15:00 10.1 C 8.89 g/m*3 10.1 C 0 km/h
1469 19-04-2020 02:20:00 10.1 C 8.89 g/m*3 10.1 C 0 km/h
1470 19-04-2020 02:25:00 10.2 C 8.95 g/m*3 10.2 C 0 km/h
1471 19-04-2020 02:30:00 10.2 C 8.95 g/m*3 10.2 C 0 km/h
1472 19-04-2020 02:35:00 10.2 C 8.95 g/m*3 10.2 C 4.8 km/h
1473 19-04-2020 02:40:00 10.2 C 9.04 g/m*3 10.2 C 1.6 km/h
1474 19-04-2020 02:45:00 10.2 C 9.04 g/m*3 10.2 C 0 km/h
1475 19-04-2020 02:50:00 10.2 C 8.95 g/m*3 10.2 C 0 km/h
Sensor: Nr:Datum:Temp:Abs-Feuchte:Windchill:Wind:
Aussen-T/F 1476 19-04-2020 02:55:00 10.2 C 8.95 g/m*3 10.2 C 0 km/h
1477 19-04-2020 03:00:00 10.2 C 8.95 g/m*3 10.2 C 0 km/h
1478 19-04-2020 03:05:00 10.1 C 8.89 g/m*3 10.1 C 0 km/h
1479 19-04-2020 03:10:00 9.9 C 8.78 g/m*3 9.9 C 0 km/h
1480 19-04-2020 03:15:00 9.8 C 8.72 g/m*3 9.8 C 1.6 km/h
1481 19-04-2020 03:20:00 9.8 C 8.72 g/m*3 9.8 C 0 km/h
1482 19-04-2020 03:25:00 9.7 C 8.67 g/m*3 9.7 C 0 km/h
1483 19-04-2020 03:30:00 9.7 C 8.67 g/m*3 9.7 C 1.6 km/h
1484 19-04-2020 03:35:00 9.6 C 8.61 g/m*3 9.6 C 3.2 km/h
1485 19-04-2020 03:40:00 9.4 C 8.5 g/m*3 9.4 C 0 km/h
1486 19-04-2020 03:45:00 9.3 C 8.45 g/m*3 9.3 C 0 km/h
1487 19-04-2020 03:50:00 9.2 C 8.39 g/m*3 9.2 C 3.2 km/h
1488 19-04-2020 03:55:00 9.2 C 8.48 g/m*3 9.2 C 0 km/h
1489 19-04-2020 04:00:00 9.2 C 8.39 g/m*3 9.2 C 0 km/h
1490 19-04-2020 04:05:00 9.1 C 8.34 g/m*3 9.1 C 0 km/h
1491 19-04-2020 04:10:00 9.2 C 8.48 g/m*3 9.2 C 0 km/h
1492 19-04-2020 04:15:00 9.2 C 8.48 g/m*3 9.2 C 1.6 km/h
1493 19-04-2020 04:20:00 9.4 C 8.59 g/m*3 9.4 C 1.6 km/h
1494 19-04-2020 04:25:00 9.5 C 8.74 g/m*3 9.5 C 1.6 km/h
1495 19-04-2020 04:30:00 9.6 C 8.79 g/m*3 9.6 C 0 km/h
1496 19-04-2020 04:35:00 9.7 C 8.85 g/m*3 9.7 C 1.6 km/h
1497 19-04-2020 04:40:00 9.7 C 8.85 g/m*3 9.7 C 1.6 km/h
1498 19-04-2020 04:45:00 9.8 C 8.91 g/m*3 9.8 C 0 km/h
1499 19-04-2020 04:50:00 9.8 C 8.91 g/m*3 9.8 C 1.6 km/h
1500 19-04-2020 04:55:00 9.8 C 8.91 g/m*3 9.8 C 1.6 km/h
Sensor: Nr:Datum:Temp:Abs-Feuchte:Windchill:Wind:
Aussen-T/F 1501 19-04-2020 05:00:00 9.8 C 8.91 g/m*3 9.8 C 3.2 km/h
1502 19-04-2020 05:05:00 9.9 C 8.96 g/m*3 9.9 C 3.2 km/h
1503 19-04-2020 05:10:00 9.9 C 8.96 g/m*3 9.9 C 0 km/h
1504 19-04-2020 05:15:00 9.9 C 8.96 g/m*3 9.9 C 1.6 km/h
1505 19-04-2020 05:20:00 9.9 C 8.96 g/m*3 9.9 C 0 km/h
1506 19-04-2020 05:25:00 9.9 C 8.96 g/m*3 9.9 C 1.6 km/h
1507 19-04-2020 05:30:00 9.9 C 8.96 g/m*3 9.9 C 1.6 km/h
1508 19-04-2020 05:35:00 9.9 C 8.96 g/m*3 9.9 C 1.6 km/h
1509 19-04-2020 05:40:00 9.9 C 8.96 g/m*3 9.9 C 0 km/h
1510 19-04-2020 05:45:00 9.9 C 8.96 g/m*3 9.9 C 0 km/h
1511 19-04-2020 05:50:00 9.9 C 8.96 g/m*3 9.9 C 0 km/h
1512 19-04-2020 05:55:00 9.9 C 8.96 g/m*3 9.9 C 0 km/h
1513 19-04-2020 06:00:00 10 C 9.02 g/m*3 10 C 0 km/h
1514 19-04-2020 06:05:00 10.1 C 9.08 g/m*3 10.1 C 0 km/h
1515 19-04-2020 06:10:00 10.1 C 9.08 g/m*3 10.1 C 0 km/h
1516 19-04-2020 06:15:00 10.1 C 9.08 g/m*3 10.1 C 0 km/h
1517 19-04-2020 06:20:00 10.1 C 9.08 g/m*3 10.1 C 0 km/h
1518 19-04-2020 06:25:00 10.1 C 9.08 g/m*3 10.1 C 0 km/h
1519 19-04-2020 06:30:00 10.2 C 9.14 g/m*3 10.2 C 0 km/h
1520 19-04-2020 06:35:00 10.2 C 9.14 g/m*3 10.2 C 0 km/h
1521 19-04-2020 06:40:00 10.2 C 9.14 g/m*3 10.2 C 0 km/h
1522 19-04-2020 06:45:00 10.2 C 9.14 g/m*3 10.2 C 0 km/h
1523 19-04-2020 06:50:00 10.3 C 9.19 g/m*3 10.3 C 0 km/h
1524 19-04-2020 06:55:00 10.3 C 9.19 g/m*3 10.3 C 1.6 km/h
1525 19-04-2020 07:00:00 10.3 C 9.19 g/m*3 10.3 C 0 km/h
Sensor: Nr:Datum:Temp:Abs-Feuchte:Windchill:Wind:
Aussen-T/F 1526 19-04-2020 07:05:00 10.3 C 9.19 g/m*3 10.3 C 0 km/h
1527 19-04-2020 07:10:00 10.3 C 9.19 g/m*3 10.3 C 0 km/h
1528 19-04-2020 07:15:00 10.3 C 9.19 g/m*3 10.3 C 0 km/h
1529 19-04-2020 07:20:00 10.4 C 9.25 g/m*3 10.4 C 0 km/h
1530 19-04-2020 07:25:00 10.4 C 9.25 g/m*3 10.4 C 0 km/h
1531 19-04-2020 07:30:00 10.4 C 9.25 g/m*3 10.4 C 0 km/h
1532 19-04-2020 07:35:00 10.4 C 9.25 g/m*3 10.4 C 0 km/h
1533 19-04-2020 07:40:00 10.5 C 9.31 g/m*3 10.5 C 0 km/h
1534 19-04-2020 07:45:00 10.5 C 9.31 g/m*3 10.5 C 0 km/h
1535 19-04-2020 07:50:00 10.5 C 9.31 g/m*3 10.5 C 0 km/h
1536 19-04-2020 07:55:00 10.6 C 9.37 g/m*3 10.6 C 0 km/h
1537 19-04-2020 08:00:00 10.6 C 9.37 g/m*3 10.6 C 0 km/h
1538 19-04-2020 08:05:00 10.6 C 9.37 g/m*3 10.6 C 0 km/h
1539 19-04-2020 08:10:00 10.7 C 9.43 g/m*3 10.7 C 0 km/h
1540 19-04-2020 08:15:00 10.8 C 9.49 g/m*3 10.8 C 1.6 km/h
1541 19-04-2020 08:20:00 11.1 C 9.67 g/m*3 11.1 C 3.2 km/h
1542 19-04-2020 08:25:00 11.1 C 9.67 g/m*3 11.1 C 1.6 km/h
1543 19-04-2020 08:30:00 11.2 C 9.73 g/m*3 11.2 C 0 km/h
1544 19-04-2020 08:35:00 11.3 C 9.79 g/m*3 11.3 C 0 km/h
1545 19-04-2020 08:40:00 11.4 C 9.85 g/m*3 11.4 C 0 km/h
1546 19-04-2020 08:45:00 11.7 C 10.04 g/m*3 11.7 C 0 km/h
1547 19-04-2020 08:50:00 11.8 C 10.1 g/m*3 11.8 C 3.2 km/h
1548 19-04-2020 08:55:00 11.9 C 10.17 g/m*3 11.9 C 3.2 km/h
1549 19-04-2020 09:00:00 12 C 10.12 g/m*3 12 C 1.6 km/h
1550 19-04-2020 09:05:00 12.1 C 10.19 g/m*3 12.1 C 0 km/h
Sensor: Nr:Datum:Temp:Abs-Feuchte:Windchill:Wind:
Aussen-T/F 1551 19-04-2020 09:10:00 12.2 C 10.25 g/m*3 12.2 C 0 km/h
1552 19-04-2020 09:15:00 12.3 C 10.21 g/m*3 12.3 C 0 km/h
1553 19-04-2020 09:20:00 12.3 C 10.1 g/m*3 12.3 C 3.2 km/h
1554 19-04-2020 09:25:00 12.4 C 10.05 g/m*3 12.4 C 3.2 km/h
1555 19-04-2020 09:30:00 12.6 C 10.18 g/m*3 12.6 C 0 km/h
1556 19-04-2020 09:35:00 12.7 C 10.13 g/m*3 12.7 C 0 km/h
1557 19-04-2020 09:40:00 12.8 C 10.19 g/m*3 12.8 C 1.6 km/h
1558 19-04-2020 09:45:00 12.9 C 10.26 g/m*3 12.9 C 0 km/h
1559 19-04-2020 09:50:00 13 C 10.09 g/m*3 13 C 1.6 km/h
1560 19-04-2020 09:55:00 13.1 C 10.16 g/m*3 13.1 C 0 km/h
1561 19-04-2020 10:00:00 13.2 C 10.1 g/m*3 13.2 C 0 km/h
1562 19-04-2020 10:05:00 13.3 C 10.17 g/m*3 13.3 C 0 km/h
1563 19-04-2020 10:10:00 13.4 C 10.11 g/m*3 13.4 C 0 km/h
1564 19-04-2020 10:15:00 13.5 C 10.18 g/m*3 13.5 C 0 km/h
1565 19-04-2020 10:20:00 13.8 C 10.37 g/m*3 13.8 C 3.2 km/h
1566 19-04-2020 10:25:00 14 C 10.37 g/m*3 14 C 0 km/h
1567 19-04-2020 10:30:00 14.1 C 10.19 g/m*3 14.1 C 0 km/h
1568 19-04-2020 10:35:00 14.1 C 10.19 g/m*3 14.1 C 3.2 km/h
1569 19-04-2020 10:40:00 14.3 C 10.32 g/m*3 14.3 C 3.2 km/h
1570 19-04-2020 10:45:00 14.4 C 10.26 g/m*3 14.4 C 0 km/h
1571 19-04-2020 10:50:00 14.5 C 10.32 g/m*3 14.5 C 1.6 km/h
1572 19-04-2020 10:55:00 14.6 C 10.26 g/m*3 14.6 C 3.2 km/h
1573 19-04-2020 11:00:00 14.6 C 10.14 g/m*3 14.6 C 4.8 km/h
1574 19-04-2020 11:05:00 14.6 C 10.14 g/m*3 14.6 C 4.8 km/h
1575 19-04-2020 11:10:00 14.4 C 10.01 g/m*3 14.4 C 6.4 km/h
Sensor: Nr:Datum:Temp:Abs-Feuchte:Windchill:Wind:
Aussen-T/F 1576 19-04-2020 11:15:00 14.3 C 10.07 g/m*3 14.3 C 11.3 km/h
1577 19-04-2020 11:20:00 14.3 C 10.07 g/m*3 14.3 C 6.4 km/h
1578 19-04-2020 11:25:00 14.3 C 10.07 g/m*3 14.3 C 8.1 km/h
1579 19-04-2020 11:30:00 14.3 C 10.07 g/m*3 14.3 C 4.8 km/h
1580 19-04-2020 11:35:00 14.2 C 10.14 g/m*3 14.2 C 6.4 km/h
1581 19-04-2020 11:40:00 14.2 C 10.14 g/m*3 14.2 C 6.4 km/h
1582 19-04-2020 11:45:00 14.1 C 10.07 g/m*3 14.1 C 9.7 km/h
1583 19-04-2020 11:50:00 13.9 C 10.07 g/m*3 13.9 C 6.4 km/h
1584 19-04-2020 11:55:00 13.9 C 10.19 g/m*3 13.9 C 1.6 km/h
1585 19-04-2020 12:00:00 13.8 C 10.01 g/m*3 13.8 C 4.8 km/h
1586 19-04-2020 12:05:00 13.8 C 10.01 g/m*3 13.8 C 8.1 km/h
1587 19-04-2020 12:10:00 13.9 C 10.07 g/m*3 13.9 C 6.4 km/h
1588 19-04-2020 12:15:00 13.9 C 9.83 g/m*3 13.9 C 6.4 km/h
1589 19-04-2020 12:20:00 14.1 C 9.95 g/m*3 14.1 C 6.4 km/h
1590 19-04-2020 12:25:00 14.3 C 10.07 g/m*3 14.3 C 3.2 km/h
1591 19-04-2020 12:30:00 14.4 C 9.89 g/m*3 14.4 C 6.4 km/h
1592 19-04-2020 12:35:00 14.6 C 10.01 g/m*3 14.6 C 6.4 km/h
1593 19-04-2020 12:40:00 14.8 C 9.88 g/m*3 14.8 C 8.1 km/h
1594 19-04-2020 12:45:00 14.9 C 9.81 g/m*3 14.9 C 4.8 km/h
1595 19-04-2020 12:50:00 15.1 C 9.93 g/m*3 15.1 C 4.8 km/h
1596 19-04-2020 12:55:00 15.3 C 9.92 g/m*3 15.3 C 4.8 km/h
1597 19-04-2020 13:00:00 15.6 C 9.97 g/m*3 15.6 C 9.7 km/h
1598 19-04-2020 13:05:00 15.8 C 9.96 g/m*3 15.8 C 8.1 km/h
1599 19-04-2020 13:10:00 15.9 C 10.02 g/m*3 15.9 C 8.1 km/h
1600 19-04-2020 13:15:00 15.9 C 9.89 g/m*3 15.9 C 6.4 km/h
Sensor: Nr:Datum:Temp:Abs-Feuchte:Windchill:Wind:
Aussen-T/F 1601 19-04-2020 13:20:00 16 C 9.95 g/m*3 16 C 6.4 km/h
1602 19-04-2020 13:25:00 16.2 C 10.07 g/m*3 16.2 C 4.8 km/h
1603 19-04-2020 13:30:00 16.3 C 9.99 g/m*3 16.3 C 4.8 km/h
1604 19-04-2020 13:35:00 16.4 C 10.05 g/m*3 16.4 C 4.8 km/h
1605 19-04-2020 13:40:00 16.7 C 10.23 g/m*3 16.7 C 0 km/h
1606 19-04-2020 13:45:00 16.8 C 10.15 g/m*3 16.8 C 6.4 km/h
1607 19-04-2020 13:50:00 16.9 C 10.07 g/m*3 16.9 C 6.4 km/h
1608 19-04-2020 13:55:00 17.1 C 10.04 g/m*3 17.1 C 8.1 km/h
1609 19-04-2020 14:00:00 17.1 C 10.04 g/m*3 17.1 C 8.1 km/h
1610 19-04-2020 14:05:00 17.2 C 9.96 g/m*3 17.2 C 12.9 km/h
1611 19-04-2020 14:10:00 17.1 C 9.75 g/m*3 17.1 C 17.7 km/h
1612 19-04-2020 14:15:00 17.1 C 9.9 g/m*3 17.1 C 12.9 km/h
1613 19-04-2020 14:20:00 17.2 C 9.96 g/m*3 17.2 C 12.9 km/h
1614 19-04-2020 14:25:00 17.2 C 9.96 g/m*3 17.2 C 11.3 km/h
1615 19-04-2020 14:30:00 17 C 9.84 g/m*3 17 C 14.5 km/h
1616 19-04-2020 14:35:00 16.9 C 9.92 g/m*3 16.9 C 11.3 km/h
1617 19-04-2020 14:40:00 16.9 C 10.07 g/m*3 16.9 C 3.2 km/h
1618 19-04-2020 14:45:00 17 C 9.98 g/m*3 17 C 4.8 km/h
1619 19-04-2020 14:50:00 17 C 9.84 g/m*3 17 C 9.7 km/h
1620 19-04-2020 14:55:00 16.8 C 9.87 g/m*3 16.8 C 11.3 km/h
1621 19-04-2020 15:00:00 16.6 C 9.61 g/m*3 16.6 C 12.9 km/h
1622 19-04-2020 15:05:00 16.5 C 9.69 g/m*3 16.5 C 4.8 km/h
1623 19-04-2020 15:10:00 16.4 C 9.35 g/m*3 16.4 C 14.5 km/h
1624 19-04-2020 15:15:00 16.3 C 9.3 g/m*3 16.3 C 9.7 km/h
1625 19-04-2020 15:20:00 16.3 C 9.16 g/m*3 16.3 C 8.1 km/h
Sensor: Nr:Datum:Temp:Abs-Feuchte:Windchill:Wind:
Aussen-T/F 1626 19-04-2020 15:25:00 16.2 C 9.1 g/m*3 16.2 C 8.1 km/h
1627 19-04-2020 15:30:00 16.3 C 9.02 g/m*3 16.3 C 12.9 km/h
1628 19-04-2020 15:35:00 16.3 C 9.02 g/m*3 16.3 C 12.9 km/h
1629 19-04-2020 15:40:00 16.4 C 9.07 g/m*3 16.4 C 8.1 km/h
1630 19-04-2020 15:45:00 16.6 C 9.18 g/m*3 16.6 C 9.7 km/h
1631 19-04-2020 15:50:00 16.6 C 9.04 g/m*3 16.6 C 9.7 km/h
1632 19-04-2020 15:55:00 16.7 C 9.1 g/m*3 16.7 C 6.4 km/h
1633 19-04-2020 16:00:00 16.9 C 9.35 g/m*3 16.9 C 9.7 km/h
1634 19-04-2020 16:05:00 17.1 C 9.17 g/m*3 17.1 C 14.5 km/h
1635 19-04-2020 16:10:00 17.3 C 9.13 g/m*3 17.3 C 14.5 km/h
1636 19-04-2020 16:15:00 17.6 C 9.15 g/m*3 17.6 C 12.9 km/h
1637 19-04-2020 16:20:00 17.8 C 9.11 g/m*3 17.8 C 12.9 km/h
1638 19-04-2020 16:25:00 17.8 C 8.95 g/m*3 17.8 C 8.1 km/h
1639 19-04-2020 16:30:00 17.6 C 9 g/m*3 17.6 C 11.3 km/h
1640 19-04-2020 16:35:00 17.4 C 8.89 g/m*3 17.4 C 12.9 km/h
1641 19-04-2020 16:40:00 17.4 C 8.89 g/m*3 17.4 C 16.1 km/h
1642 19-04-2020 16:45:00 17.6 C 9 g/m*3 17.6 C 16.1 km/h
1643 19-04-2020 16:50:00 17.8 C 9.26 g/m*3 17.8 C 16.1 km/h
1644 19-04-2020 16:55:00 18.1 C 9.12 g/m*3 18.1 C 19.3 km/h
1645 19-04-2020 17:00:00 17.6 C 8.7 g/m*3 17.6 C 25.7 km/h
1646 19-04-2020 17:05:00 17.1 C 8.88 g/m*3 17.1 C 25.7 km/h
1647 19-04-2020 17:10:00 17.2 C 8.93 g/m*3 17.2 C 17.7 km/h
1648 19-04-2020 17:15:00 17.2 C 8.64 g/m*3 17.2 C 19.3 km/h
1649 19-04-2020 17:20:00 17.4 C 8.74 g/m*3 17.4 C 19.3 km/h
1650 19-04-2020 17:25:00 17.6 C 8.7 g/m*3 17.6 C 12.9 km/h
Sensor: Nr:Datum:Temp:Abs-Feuchte:Windchill:Wind:
Aussen-T/F 1651 19-04-2020 17:30:00 17.8 C 8.65 g/m*3 17.8 C 17.7 km/h
1652 19-04-2020 17:35:00 17.4 C 8.3 g/m*3 17.4 C 25.7 km/h
1653 19-04-2020 17:40:00 17.3 C 8.54 g/m*3 17.3 C 19.3 km/h
1654 19-04-2020 17:45:00 17.5 C 8.5 g/m*3 17.5 C 19.3 km/h
1655 19-04-2020 17:50:00 17.4 C 8.3 g/m*3 17.4 C 22.5 km/h
1656 19-04-2020 17:55:00 17.3 C 8.25 g/m*3 17.3 C 20.9 km/h
1657 19-04-2020 18:00:00 17.2 C 8.2 g/m*3 17.2 C 24.1 km/h
1658 19-04-2020 18:05:00 17.3 C 8.25 g/m*3 17.3 C 27.4 km/h
1659 19-04-2020 18:10:00 17.2 C 8.35 g/m*3 17.2 C 17.7 km/h
1660 19-04-2020 18:15:00 17.3 C 8.1 g/m*3 17.3 C 11.3 km/h
1661 19-04-2020 18:20:00 17.4 C 8.15 g/m*3 17.4 C 16.1 km/h
1662 19-04-2020 18:25:00 17.5 C 7.9 g/m*3 17.5 C 14.5 km/h
1663 19-04-2020 18:30:00 17.4 C 7.85 g/m*3 17.4 C 19.3 km/h
1664 19-04-2020 18:35:00 17.3 C 7.81 g/m*3 17.3 C 14.5 km/h
1665 19-04-2020 18:40:00 17.3 C 7.66 g/m*3 17.3 C 9.7 km/h
1666 19-04-2020 18:45:00 17.1 C 7.42 g/m*3 17.1 C 14.5 km/h
1667 19-04-2020 18:50:00 17.1 C 7.42 g/m*3 17.1 C 12.9 km/h
1668 19-04-2020 18:55:00 17.3 C 7.81 g/m*3 17.3 C 9.7 km/h
1669 19-04-2020 19:00:00 17.4 C 7.56 g/m*3 17.4 C 6.4 km/h
1670 19-04-2020 19:05:00 17.6 C 7.5 g/m*3 17.6 C 11.3 km/h
1671 19-04-2020 19:10:00 17.3 C 7.37 g/m*3 17.3 C 11.3 km/h
1672 19-04-2020 19:15:00 17.2 C 7.47 g/m*3 17.2 C 8.1 km/h
1673 19-04-2020 19:20:00 16.8 C 7.29 g/m*3 16.8 C 17.7 km/h
1674 19-04-2020 19:25:00 16.6 C 7.49 g/m*3 16.6 C 6.4 km/h
1675 19-04-2020 19:30:00 16.6 C 7.35 g/m*3 16.6 C 6.4 km/h
Sensor: Nr:Datum:Temp:Abs-Feuchte:Windchill:Wind:
Aussen-T/F 1676 19-04-2020 19:35:00 16.4 C 6.98 g/m*3 16.4 C 6.4 km/h
1677 19-04-2020 19:40:00 16.2 C 7.03 g/m*3 16.2 C 4.8 km/h
1678 19-04-2020 19:45:00 16 C 7.22 g/m*3 16 C 4.8 km/h
1679 19-04-2020 19:50:00 15.8 C 7.27 g/m*3 15.8 C 8.1 km/h
1680 19-04-2020 19:55:00 15.7 C 7.23 g/m*3 15.7 C 3.2 km/h
1681 19-04-2020 20:00:00 15.4 C 7.36 g/m*3 15.4 C 1.6 km/h
1682 19-04-2020 20:05:00 15.3 C 7.44 g/m*3 15.3 C 3.2 km/h
1683 19-04-2020 20:10:00 15.1 C 7.61 g/m*3 15.1 C 0 km/h
1684 19-04-2020 20:15:00 14.8 C 7.47 g/m*3 14.8 C 1.6 km/h
1685 19-04-2020 20:20:00 14.3 C 7.49 g/m*3 14.3 C 1.6 km/h
1686 19-04-2020 20:25:00 14 C 7.36 g/m*3 14 C 0 km/h
1687 19-04-2020 20:30:00 13.7 C 7.46 g/m*3 13.7 C 0 km/h
1688 19-04-2020 20:35:00 13.3 C 7.28 g/m*3 13.3 C 1.6 km/h
1689 19-04-2020 20:40:00 13.1 C 7.42 g/m*3 13.1 C 0 km/h
1690 19-04-2020 20:45:00 12.8 C 7.39 g/m*3 12.8 C 0 km/h
1691 19-04-2020 20:50:00 12.6 C 7.3 g/m*3 12.6 C 0 km/h
1692 19-04-2020 20:55:00 12.4 C 7.21 g/m*3 12.4 C 0 km/h
1693 19-04-2020 21:00:00 12.3 C 7.28 g/m*3 12.3 C 0 km/h
1694 19-04-2020 21:05:00 12.2 C 7.23 g/m*3 12.2 C 0 km/h
1695 19-04-2020 21:10:00 12.1 C 7.08 g/m*3 12.1 C 0 km/h
1696 19-04-2020 21:15:00 12 C 7.14 g/m*3 12 C 0 km/h
1697 19-04-2020 21:20:00 11.9 C 7.2 g/m*3 11.9 C 0 km/h
1698 19-04-2020 21:25:00 11.8 C 7.16 g/m*3 11.8 C 0 km/h
1699 19-04-2020 21:30:00 11.7 C 7.11 g/m*3 11.7 C 0 km/h
1700 19-04-2020 21:35:00 11.6 C 7.07 g/m*3 11.6 C 0 km/h
Sensor: Nr:Datum:Temp:Abs-Feuchte:Windchill:Wind:
Aussen-T/F 1701 19-04-2020 21:40:00 11.6 C 7.07 g/m*3 11.6 C 0 km/h
1702 19-04-2020 21:45:00 11.4 C 6.98 g/m*3 11.4 C 0 km/h
1703 19-04-2020 21:50:00 11.4 C 6.88 g/m*3 11.4 C 0 km/h
1704 19-04-2020 21:55:00 11.3 C 6.83 g/m*3 11.3 C 0 km/h
1705 19-04-2020 22:00:00 11.3 C 6.63 g/m*3 11.3 C 0 km/h
1706 19-04-2020 22:05:00 11.4 C 6.77 g/m*3 11.4 C 0 km/h
1707 19-04-2020 22:10:00 11.4 C 6.67 g/m*3 11.4 C 0 km/h
1708 19-04-2020 22:15:00 11.4 C 6.77 g/m*3 11.4 C 0 km/h
1709 19-04-2020 22:20:00 11.3 C 6.63 g/m*3 11.3 C 0 km/h
1710 19-04-2020 22:25:00 11.2 C 6.59 g/m*3 11.2 C 4.8 km/h
1711 19-04-2020 22:30:00 11.2 C 6.49 g/m*3 11.2 C 0 km/h
1712 19-04-2020 22:35:00 11.1 C 6.45 g/m*3 11.1 C 0 km/h
1713 19-04-2020 22:40:00 11 C 6.41 g/m*3 11 C 3.2 km/h
1714 19-04-2020 22:45:00 10.8 C 6.42 g/m*3 10.8 C 1.6 km/h
1715 19-04-2020 22:50:00 10.7 C 6.19 g/m*3 10.7 C 3.2 km/h
1716 19-04-2020 22:55:00 10.7 C 6.29 g/m*3 10.7 C 0 km/h
1717 19-04-2020 23:00:00 10.8 C 5.73 g/m*3 10.29 C 6.4 km/h
1718 19-04-2020 23:05:00 11.1 C 6.25 g/m*3 11.1 C 1.6 km/h
1719 19-04-2020 23:10:00 11.1 C 6.14 g/m*3 11.1 C 0 km/h
1720 19-04-2020 23:15:00 10.8 C 6.13 g/m*3 10.8 C 0 km/h
1721 19-04-2020 23:20:00 10.6 C 6.15 g/m*3 10.6 C 0 km/h
1722 19-04-2020 23:25:00 10.3 C 6.03 g/m*3 10.3 C 4.8 km/h
1723 19-04-2020 23:30:00 10.2 C 6 g/m*3 10.2 C 1.6 km/h
1724 19-04-2020 23:35:00 10.3 C 5.84 g/m*3 9.72 C 6.4 km/h
1725 19-04-2020 23:40:00 10.4 C 5.69 g/m*3 10.4 C 3.2 km/h
Sensor: Nr:Datum:Temp:Abs-Feuchte:Windchill:Wind:
Aussen-T/F 1726 19-04-2020 23:45:00 10.6 C 5.66 g/m*3 10.06 C 6.4 km/h
1727 19-04-2020 23:50:00 10.8 C 6.03 g/m*3 10.8 C 1.6 km/h
1728 19-04-2020 23:55:00 10.7 C 5.89 g/m*3 9.81 C 8.1 km/h
1729 20-04-2020 00:00:00 10.7 C 5.7 g/m*3 10.7 C 3.2 km/h
1730 20-04-2020 00:05:00 10.6 C 5.86 g/m*3 10.6 C 1.6 km/h
1731 20-04-2020 00:10:00 10.4 C 5.88 g/m*3 10.4 C 0 km/h
1732 20-04-2020 00:15:00 10.2 C 5.71 g/m*3 10.2 C 1.6 km/h
1733 20-04-2020 00:20:00 10.1 C 5.39 g/m*3 10.1 C 3.2 km/h
1734 20-04-2020 00:25:00 10.2 C 5.33 g/m*3 9.6 C 6.4 km/h
1735 20-04-2020 00:30:00 10.3 C 5.65 g/m*3 10.3 C 1.6 km/h
1736 20-04-2020 00:35:00 10.3 C 5.55 g/m*3 10.3 C 4.8 km/h
1737 20-04-2020 00:40:00 10.3 C 5.65 g/m*3 10.3 C 3.2 km/h
1738 20-04-2020 00:45:00 10.2 C 5.52 g/m*3 10.2 C 3.2 km/h
1739 20-04-2020 00:50:00 10.2 C 5.42 g/m*3 10.2 C 1.6 km/h
1740 20-04-2020 00:55:00 10.1 C 5.58 g/m*3 10.1 C 1.6 km/h
1741 20-04-2020 01:00:00 9.9 C 5.32 g/m*3 8.56 C 9.7 km/h
1742 20-04-2020 01:05:00 10 C 5.36 g/m*3 9.37 C 6.4 km/h
1743 20-04-2020 01:10:00 10 C 5.36 g/m*3 10 C 3.2 km/h
1744 20-04-2020 01:15:00 9.9 C 5.32 g/m*3 9.25 C 6.4 km/h
1745 20-04-2020 01:20:00 9.9 C 5.42 g/m*3 9.9 C 1.6 km/h
1746 20-04-2020 01:25:00 9.9 C 5.14 g/m*3 8.06 C 12.9 km/h
1747 20-04-2020 01:30:00 10.1 C 5.48 g/m*3 10.1 C 1.6 km/h
1748 20-04-2020 01:35:00 9.9 C 5.32 g/m*3 9.9 C 4.8 km/h
1749 20-04-2020 01:40:00 9.8 C 5.38 g/m*3 9.8 C 3.2 km/h
1750 20-04-2020 01:45:00 9.7 C 5.44 g/m*3 9.7 C 1.6 km/h
Sensor: Nr:Datum:Temp:Abs-Feuchte:Windchill:Wind:
Aussen-T/F 1751 20-04-2020 01:50:00 9.5 C 5.46 g/m*3 9.5 C 1.6 km/h
1752 20-04-2020 01:55:00 9.2 C 5.54 g/m*3 9.2 C 0 km/h
1753 20-04-2020 02:00:00 9 C 5.47 g/m*3 9 C 1.6 km/h
1754 20-04-2020 02:05:00 8.8 C 5.48 g/m*3 8.8 C 0 km/h
1755 20-04-2020 02:10:00 8.5 C 5.29 g/m*3 8.5 C 1.6 km/h
1756 20-04-2020 02:15:00 8.4 C 5.34 g/m*3 8.4 C 0 km/h
1757 20-04-2020 02:20:00 8.3 C 5.48 g/m*3 8.3 C 0 km/h
1758 20-04-2020 02:25:00 8.2 C 5.36 g/m*3 8.2 C 3.2 km/h
1759 20-04-2020 02:30:00 7.9 C 5.42 g/m*3 7.9 C 1.6 km/h
1760 20-04-2020 02:35:00 7.8 C 5.3 g/m*3 7.8 C 1.6 km/h
1761 20-04-2020 02:40:00 7.7 C 5.43 g/m*3 7.7 C 0 km/h
1762 20-04-2020 02:45:00 7.6 C 5.32 g/m*3 7.6 C 1.6 km/h
1763 20-04-2020 02:50:00 7.6 C 5.48 g/m*3 7.6 C 0 km/h
1764 20-04-2020 02:55:00 7.5 C 5.44 g/m*3 7.5 C 0 km/h
1765 20-04-2020 03:00:00 7.4 C 5.25 g/m*3 7.4 C 3.2 km/h
1766 20-04-2020 03:05:00 7.4 C 5.33 g/m*3 7.4 C 3.2 km/h
1767 20-04-2020 03:10:00 7.4 C 5.41 g/m*3 7.4 C 1.6 km/h
1768 20-04-2020 03:15:00 7.3 C 5.37 g/m*3 7.3 C 0 km/h
1769 20-04-2020 03:20:00 7.3 C 5.37 g/m*3 7.3 C 1.6 km/h
1770 20-04-2020 03:25:00 7.2 C 5.42 g/m*3 7.2 C 1.6 km/h
1771 20-04-2020 03:30:00 7.1 C 5.3 g/m*3 7.1 C 3.2 km/h
1772 20-04-2020 03:35:00 7.1 C 5.3 g/m*3 7.1 C 0 km/h
1773 20-04-2020 03:40:00 7.2 C 5.34 g/m*3 7.2 C 1.6 km/h
1774 20-04-2020 03:45:00 7.1 C 5.38 g/m*3 7.1 C 0 km/h
1775 20-04-2020 03:50:00 7.1 C 5.38 g/m*3 7.1 C 0 km/h
Sensor: Nr:Datum:Temp:Abs-Feuchte:Windchill:Wind:
Aussen-T/F 1776 20-04-2020 03:55:00 7 C 5.35 g/m*3 7 C 0 km/h
1777 20-04-2020 04:00:00 6.9 C 5.31 g/m*3 6.9 C 0 km/h
1778 20-04-2020 04:05:00 6.8 C 5.35 g/m*3 6.8 C 1.6 km/h
1779 20-04-2020 04:10:00 6.7 C 5.32 g/m*3 6.7 C 1.6 km/h
1780 20-04-2020 04:15:00 6.7 C 5.32 g/m*3 6.7 C 0 km/h
1781 20-04-2020 04:20:00 6.6 C 5.28 g/m*3 6.6 C 4.8 km/h
1782 20-04-2020 04:25:00 6.6 C 5.28 g/m*3 6.6 C 0 km/h
1783 20-04-2020 04:30:00 6.6 C 5.28 g/m*3 6.6 C 0 km/h
1784 20-04-2020 04:35:00 6.6 C 5.28 g/m*3 6.6 C 1.6 km/h
1785 20-04-2020 04:40:00 6.5 C 5.25 g/m*3 6.5 C 3.2 km/h
1786 20-04-2020 04:45:00 6.5 C 5.25 g/m*3 6.5 C 1.6 km/h
1787 20-04-2020 04:50:00 6.4 C 5.29 g/m*3 6.4 C 1.6 km/h
1788 20-04-2020 04:55:00 6.4 C 5.22 g/m*3 6.4 C 1.6 km/h
1789 20-04-2020 05:00:00 6.4 C 5.14 g/m*3 6.4 C 4.8 km/h
1790 20-04-2020 05:05:00 6.6 C 5.28 g/m*3 6.6 C 0 km/h
1791 20-04-2020 05:10:00 6.6 C 5.28 g/m*3 6.6 C 1.6 km/h
1792 20-04-2020 05:15:00 6.7 C 5.32 g/m*3 6.7 C 0 km/h
1793 20-04-2020 05:20:00 6.7 C 5.32 g/m*3 6.7 C 1.6 km/h
1794 20-04-2020 05:25:00 6.7 C 5.32 g/m*3 6.7 C 0 km/h
1795 20-04-2020 05:30:00 6.6 C 5.28 g/m*3 6.6 C 0 km/h
1796 20-04-2020 05:35:00 6.6 C 5.36 g/m*3 6.6 C 1.6 km/h
1797 20-04-2020 05:40:00 6.5 C 5.25 g/m*3 6.5 C 1.6 km/h
1798 20-04-2020 05:45:00 6.5 C 5.25 g/m*3 6.5 C 1.6 km/h
1799 20-04-2020 05:50:00 6.5 C 5.32 g/m*3 6.5 C 3.2 km/h
1800 20-04-2020 05:55:00 6.5 C 5.32 g/m*3 6.5 C 3.2 km/h
Sensor: Nr:Datum:Temp:Abs-Feuchte:Windchill:Wind:
Aussen-T/F 1801 20-04-2020 06:00:00 6.4 C 5.29 g/m*3 6.4 C 0 km/h
1802 20-04-2020 06:05:00 6.4 C 5.29 g/m*3 6.4 C 1.6 km/h
1803 20-04-2020 06:10:00 6.4 C 5.29 g/m*3 6.4 C 1.6 km/h
1804 20-04-2020 06:15:00 6.3 C 5.26 g/m*3 6.3 C 1.6 km/h
1805 20-04-2020 06:20:00 6.3 C 5.18 g/m*3 6.3 C 1.6 km/h
1806 20-04-2020 06:25:00 6.3 C 5.26 g/m*3 6.3 C 1.6 km/h
1807 20-04-2020 06:30:00 6.4 C 5.22 g/m*3 6.4 C 3.2 km/h
1808 20-04-2020 06:35:00 6.5 C 5.32 g/m*3 6.5 C 3.2 km/h
1809 20-04-2020 06:40:00 6.4 C 5.29 g/m*3 6.4 C 1.6 km/h
1810 20-04-2020 06:45:00 6.4 C 5.36 g/m*3 6.4 C 0 km/h
1811 20-04-2020 06:50:00 6.3 C 5.33 g/m*3 6.3 C 0 km/h
1812 20-04-2020 06:55:00 6.3 C 5.33 g/m*3 6.3 C 3.2 km/h
1813 20-04-2020 07:00:00 6.4 C 5.22 g/m*3 6.4 C 3.2 km/h
1814 20-04-2020 07:05:00 6.5 C 5.25 g/m*3 6.5 C 3.2 km/h
1815 20-04-2020 07:10:00 6.7 C 5.32 g/m*3 6.7 C 1.6 km/h
1816 20-04-2020 07:15:00 6.7 C 5.32 g/m*3 6.7 C 3.2 km/h
1817 20-04-2020 07:20:00 6.7 C 5.32 g/m*3 6.7 C 3.2 km/h
1818 20-04-2020 07:25:00 6.7 C 5.47 g/m*3 6.7 C 1.6 km/h
1819 20-04-2020 07:30:00 6.8 C 5.2 g/m*3 6.8 C 1.6 km/h
1820 20-04-2020 07:35:00 6.9 C 5.39 g/m*3 6.9 C 1.6 km/h
1821 20-04-2020 07:40:00 7.1 C 5.23 g/m*3 6.02 C 6.4 km/h
1822 20-04-2020 07:45:00 7.3 C 5.29 g/m*3 7.3 C 3.2 km/h
1823 20-04-2020 07:50:00 7.4 C 5.17 g/m*3 7.4 C 4.8 km/h
1824 20-04-2020 07:55:00 7.7 C 5.27 g/m*3 6.28 C 8.1 km/h
1825 20-04-2020 08:00:00 7.8 C 5.3 g/m*3 7.8 C 4.8 km/h
Sensor: Nr:Datum:Temp:Abs-Feuchte:Windchill:Wind:
Aussen-T/F 1826 20-04-2020 08:05:00 7.9 C 5.34 g/m*3 6.18 C 9.7 km/h
1827 20-04-2020 08:10:00 8.1 C 5.24 g/m*3 8.1 C 4.8 km/h
1828 20-04-2020 08:15:00 8.2 C 5.19 g/m*3 7.29 C 6.4 km/h
1829 20-04-2020 08:20:00 8.4 C 5.43 g/m*3 8.4 C 4.8 km/h
1830 20-04-2020 08:25:00 8.4 C 5.43 g/m*3 7.52 C 6.4 km/h
1831 20-04-2020 08:30:00 8.4 C 5.34 g/m*3 8.4 C 3.2 km/h
1832 20-04-2020 08:35:00 8.4 C 5.43 g/m*3 8.4 C 4.8 km/h
1833 20-04-2020 08:40:00 8.4 C 5.34 g/m*3 8.4 C 4.8 km/h
1834 20-04-2020 08:45:00 8.5 C 5.29 g/m*3 8.5 C 4.8 km/h
1835 20-04-2020 08:50:00 8.7 C 5.45 g/m*3 7.87 C 6.4 km/h
1836 20-04-2020 08:55:00 8.8 C 5.4 g/m*3 7.25 C 9.7 km/h
1837 20-04-2020 09:00:00 8.8 C 5.4 g/m*3 7.58 C 8.1 km/h
1838 20-04-2020 09:05:00 8.9 C 5.43 g/m*3 7.69 C 8.1 km/h
1839 20-04-2020 09:10:00 8.9 C 5.61 g/m*3 8.9 C 3.2 km/h
1840 20-04-2020 09:15:00 9 C 5.38 g/m*3 7.81 C 8.1 km/h
1841 20-04-2020 09:20:00 9 C 5.64 g/m*3 9 C 3.2 km/h
1842 20-04-2020 09:25:00 9.1 C 5.77 g/m*3 9.1 C 1.6 km/h
1843 20-04-2020 09:30:00 9 C 5.47 g/m*3 8.21 C 6.4 km/h
1844 20-04-2020 09:35:00 9.3 C 5.84 g/m*3 7.85 C 9.7 km/h
1845 20-04-2020 09:40:00 9.4 C 5.52 g/m*3 8.28 C 8.1 km/h
1846 20-04-2020 09:45:00 9.7 C 5.53 g/m*3 9.02 C 6.4 km/h
1847 20-04-2020 09:50:00 9.7 C 5.81 g/m*3 9.7 C 3.2 km/h
1848 20-04-2020 09:55:00 9.7 C 5.53 g/m*3 8.63 C 8.1 km/h
1849 20-04-2020 10:00:00 9.9 C 5.7 g/m*3 8.87 C 8.1 km/h
1850 20-04-2020 10:05:00 10.1 C 5.77 g/m*3 10.1 C 3.2 km/h
Sensor: Nr:Datum:Temp:Abs-Feuchte:Windchill:Wind:
Aussen-T/F 1851 20-04-2020 10:10:00 10.4 C 5.59 g/m*3 8.67 C 12.9 km/h
1852 20-04-2020 10:15:00 10.7 C 5.6 g/m*3 9.81 C 8.1 km/h
1853 20-04-2020 10:20:00 11.2 C 5.47 g/m*3 11.2 C 12.9 km/h
1854 20-04-2020 10:25:00 11.5 C 5.58 g/m*3 11.5 C 11.3 km/h
1855 20-04-2020 10:30:00 11.8 C 5.47 g/m*3 11.8 C 9.7 km/h
1856 20-04-2020 10:35:00 12.1 C 5.9 g/m*3 12.1 C 9.7 km/h
1857 20-04-2020 10:40:00 12.2 C 5.61 g/m*3 12.2 C 12.9 km/h
1858 20-04-2020 10:45:00 12.5 C 5.61 g/m*3 12.5 C 11.3 km/h
1859 20-04-2020 10:50:00 12.7 C 5.45 g/m*3 12.7 C 11.3 km/h
1860 20-04-2020 10:55:00 13 C 5.56 g/m*3 13 C 9.7 km/h
1861 20-04-2020 11:00:00 13.3 C 5.31 g/m*3 13.3 C 16.1 km/h
1862 20-04-2020 11:05:00 13.4 C 5.35 g/m*3 13.4 C 17.7 km/h
1863 20-04-2020 11:10:00 13.7 C 5.45 g/m*3 13.7 C 17.7 km/h
1864 20-04-2020 11:15:00 13.8 C 5.36 g/m*3 13.8 C 14.5 km/h
1865 20-04-2020 11:20:00 13.9 C 5.63 g/m*3 13.9 C 17.7 km/h
1866 20-04-2020 11:25:00 14.2 C 5.98 g/m*3 14.2 C 16.1 km/h
1867 20-04-2020 11:30:00 14.3 C 5.28 g/m*3 14.3 C 14.5 km/h
1868 20-04-2020 11:35:00 14.4 C 5.44 g/m*3 14.4 C 14.5 km/h
1869 20-04-2020 11:40:00 14.6 C 5.38 g/m*3 14.6 C 14.5 km/h
1870 20-04-2020 11:45:00 14.7 C 5.41 g/m*3 14.7 C 12.9 km/h
1871 20-04-2020 11:50:00 14.8 C 5.32 g/m*3 14.8 C 12.9 km/h
1872 20-04-2020 11:55:00 14.9 C 5.23 g/m*3 14.9 C 22.5 km/h
1873 20-04-2020 12:00:00 14.9 C 5.23 g/m*3 14.9 C 19.3 km/h
1874 20-04-2020 12:05:00 15 C 5.51 g/m*3 15 C 11.3 km/h
1875 20-04-2020 12:10:00 15 C 5.13 g/m*3 15 C 17.7 km/h
Sensor: Nr:Datum:Temp:Abs-Feuchte:Windchill:Wind:
Aussen-T/F 1876 20-04-2020 12:15:00 14.9 C 5.1 g/m*3 14.9 C 27.4 km/h
1877 20-04-2020 12:20:00 14.9 C 5.23 g/m*3 14.9 C 12.9 km/h
1878 20-04-2020 12:25:00 15.1 C 5.16 g/m*3 15.1 C 14.5 km/h
1879 20-04-2020 12:30:00 15.1 C 5.03 g/m*3 15.1 C 19.3 km/h
1880 20-04-2020 12:35:00 15.1 C 5.03 g/m*3 15.1 C 19.3 km/h
1881 20-04-2020 12:40:00 15.1 C 5.03 g/m*3 15.1 C 9.7 km/h
1882 20-04-2020 12:45:00 15.1 C 5.16 g/m*3 15.1 C 17.7 km/h
1883 20-04-2020 12:50:00 15.2 C 5.19 g/m*3 15.2 C 14.5 km/h
1884 20-04-2020 12:55:00 15.3 C 5.09 g/m*3 15.3 C 14.5 km/h
1885 20-04-2020 13:00:00 15.4 C 5.12 g/m*3 15.4 C 12.9 km/h
1886 20-04-2020 13:05:00 15.5 C 5.02 g/m*3 15.5 C 12.9 km/h
1887 20-04-2020 13:10:00 15.7 C 5.49 g/m*3 15.7 C 6.4 km/h
1888 20-04-2020 13:15:00 15.9 C 5.15 g/m*3 15.9 C 16.1 km/h
1889 20-04-2020 13:20:00 15.8 C 5.12 g/m*3 15.8 C 17.7 km/h
1890 20-04-2020 13:25:00 15.9 C 5.15 g/m*3 15.9 C 14.5 km/h
1891 20-04-2020 13:30:00 16.1 C 5.07 g/m*3 16.1 C 22.5 km/h
1892 20-04-2020 13:35:00 16.2 C 5.24 g/m*3 16.2 C 9.7 km/h
1893 20-04-2020 13:40:00 16.3 C 5.13 g/m*3 16.3 C 9.7 km/h
1894 20-04-2020 13:45:00 16.4 C 5.16 g/m*3 16.4 C 12.9 km/h
1895 20-04-2020 13:50:00 16.4 C 5.3 g/m*3 16.4 C 11.3 km/h
1896 20-04-2020 13:55:00 16.7 C 5.12 g/m*3 16.7 C 20.9 km/h
1897 20-04-2020 14:00:00 16.8 C 5.29 g/m*3 16.8 C 17.7 km/h
1898 20-04-2020 14:05:00 16.9 C 5.18 g/m*3 16.9 C 19.3 km/h
1899 20-04-2020 14:10:00 16.9 C 5.03 g/m*3 16.9 C 19.3 km/h
1900 20-04-2020 14:15:00 17 C 5.06 g/m*3 17 C 19.3 km/h
Sensor: Nr:Datum:Temp:Abs-Feuchte:Windchill:Wind:
Aussen-T/F 1901 20-04-2020 14:20:00 17.1 C 5.39 g/m*3 17.1 C 16.1 km/h
1902 20-04-2020 14:25:00 17.3 C 4.86 g/m*3 17.3 C 17.7 km/h
1903 20-04-2020 14:30:00 17.3 C 5.01 g/m*3 17.3 C 16.1 km/h
1904 20-04-2020 14:35:00 17.3 C 5.01 g/m*3 17.3 C 16.1 km/h
1905 20-04-2020 14:40:00 17.5 C 5.07 g/m*3 17.5 C 16.1 km/h
1906 20-04-2020 14:45:00 17.6 C 5.1 g/m*3 17.6 C 19.3 km/h
1907 20-04-2020 14:50:00 17.7 C 5.13 g/m*3 17.7 C 17.7 km/h
1908 20-04-2020 14:55:00 17.8 C 5.16 g/m*3 17.8 C 19.3 km/h
1909 20-04-2020 15:00:00 17.9 C 5.19 g/m*3 17.9 C 9.7 km/h
1910 20-04-2020 15:05:00 18.1 C 4.94 g/m*3 18.1 C 19.3 km/h
1911 20-04-2020 15:10:00 18 C 4.92 g/m*3 18 C 20.9 km/h
1912 20-04-2020 15:15:00 18.1 C 4.94 g/m*3 18.1 C 12.9 km/h
1913 20-04-2020 15:20:00 18.2 C 4.97 g/m*3 18.2 C 20.9 km/h
1914 20-04-2020 15:25:00 18.3 C 5.16 g/m*3 18.3 C 16.1 km/h
1915 20-04-2020 15:30:00 18.5 C 5.22 g/m*3 18.5 C 16.1 km/h
1916 20-04-2020 15:35:00 18.6 C 5.09 g/m*3 18.6 C 11.3 km/h
1917 20-04-2020 15:40:00 18.7 C 4.96 g/m*3 18.7 C 17.7 km/h
1918 20-04-2020 15:45:00 18.8 C 4.99 g/m*3 18.8 C 17.7 km/h
1919 20-04-2020 15:50:00 18.8 C 4.99 g/m*3 18.8 C 14.5 km/h
1920 20-04-2020 15:55:00 18.9 C 5.02 g/m*3 18.9 C 22.5 km/h
1921 20-04-2020 16:00:00 19 C 4.89 g/m*3 19 C 19.3 km/h
1922 20-04-2020 16:05:00 19.1 C 5.08 g/m*3 19.1 C 19.3 km/h
1923 20-04-2020 16:10:00 19.2 C 4.95 g/m*3 19.2 C 20.9 km/h
1924 20-04-2020 16:15:00 19.3 C 4.98 g/m*3 19.3 C 17.7 km/h
1925 20-04-2020 16:20:00 19.5 C 5.03 g/m*3 19.5 C 14.5 km/h
Sensor: Nr:Datum:Temp:Abs-Feuchte:Windchill:Wind:
Aussen-T/F 1926 20-04-2020 16:25:00 19.7 C 5.26 g/m*3 19.7 C 24.1 km/h
1927 20-04-2020 16:30:00 19.9 C 5.15 g/m*3 19.9 C 27.4 km/h
1928 20-04-2020 16:35:00 19.6 C 5.06 g/m*3 19.6 C 27.4 km/h
1929 20-04-2020 16:40:00 19.3 C 5.14 g/m*3 19.3 C 19.3 km/h
1930 20-04-2020 16:45:00 19.7 C 5.43 g/m*3 19.7 C 14.5 km/h
1931 20-04-2020 16:50:00 19.8 C 5.12 g/m*3 19.8 C 19.3 km/h
1932 20-04-2020 16:55:00 19.9 C 5.5 g/m*3 19.9 C 12.9 km/h
1933 20-04-2020 17:00:00 20.3 C 5.45 g/m*3 20.3 C 8.1 km/h
1934 20-04-2020 17:05:00 20.6 C 5.55 g/m*3 20.6 C 11.3 km/h
1935 20-04-2020 17:10:00 20.3 C 5.28 g/m*3 20.3 C 17.7 km/h
1936 20-04-2020 17:15:00 20.1 C 5.39 g/m*3 20.1 C 22.5 km/h
1937 20-04-2020 17:20:00 20.1 C 5.21 g/m*3 20.1 C 22.5 km/h
1938 20-04-2020 17:25:00 19.9 C 5.33 g/m*3 19.9 C 25.7 km/h
1939 20-04-2020 17:30:00 19.5 C 5.37 g/m*3 19.5 C 22.5 km/h
1940 20-04-2020 17:35:00 19.2 C 5.61 g/m*3 19.2 C 33.8 km/h
1941 20-04-2020 17:40:00 19.3 C 5.47 g/m*3 19.3 C 24.1 km/h
1942 20-04-2020 17:45:00 19.6 C 5.57 g/m*3 19.6 C 12.9 km/h
1943 20-04-2020 17:50:00 19.7 C 5.6 g/m*3 19.7 C 19.3 km/h
1944 20-04-2020 17:55:00 19.4 C 6.01 g/m*3 19.4 C 25.7 km/h
1945 20-04-2020 18:00:00 19.2 C 6.93 g/m*3 19.2 C 24.1 km/h
1946 20-04-2020 18:05:00 18.5 C 5.7 g/m*3 18.5 C 27.4 km/h
1947 20-04-2020 18:10:00 18.4 C 6.13 g/m*3 18.4 C 12.9 km/h
1948 20-04-2020 18:15:00 18.6 C 5.89 g/m*3 18.6 C 20.9 km/h
1949 20-04-2020 18:20:00 18.7 C 5.76 g/m*3 18.7 C 19.3 km/h
1950 20-04-2020 18:25:00 18.6 C 5.73 g/m*3 18.6 C 20.9 km/h
Sensor: Nr:Datum:Temp:Abs-Feuchte:Windchill:Wind:
Aussen-T/F 1951 20-04-2020 18:30:00 18.6 C 5.57 g/m*3 18.6 C 27.4 km/h
1952 20-04-2020 18:35:00 18.6 C 5.57 g/m*3 18.6 C 22.5 km/h
1953 20-04-2020 18:40:00 18.7 C 5.6 g/m*3 18.7 C 22.5 km/h
1954 20-04-2020 18:45:00 18.6 C 5.89 g/m*3 18.6 C 17.7 km/h
1955 20-04-2020 18:50:00 18.7 C 5.6 g/m*3 18.7 C 20.9 km/h
1956 20-04-2020 18:55:00 18.8 C 5.64 g/m*3 18.8 C 19.3 km/h
1957 20-04-2020 19:00:00 18.6 C 5.57 g/m*3 18.6 C 20.9 km/h
1958 20-04-2020 19:05:00 18.4 C 5.5 g/m*3 18.4 C 24.1 km/h
1959 20-04-2020 19:10:00 18.2 C 5.91 g/m*3 18.2 C 14.5 km/h
1960 20-04-2020 19:15:00 18.2 C 5.44 g/m*3 18.2 C 14.5 km/h
1961 20-04-2020 19:20:00 17.9 C 5.5 g/m*3 17.9 C 14.5 km/h
1962 20-04-2020 19:25:00 17.6 C 5.55 g/m*3 17.6 C 27.4 km/h
1963 20-04-2020 19:30:00 17.4 C 5.48 g/m*3 17.4 C 12.9 km/h
1964 20-04-2020 19:35:00 17.4 C 5.48 g/m*3 17.4 C 12.9 km/h
1965 20-04-2020 19:40:00 17.2 C 5.27 g/m*3 17.2 C 16.1 km/h
1966 20-04-2020 19:45:00 17 C 5.35 g/m*3 17 C 12.9 km/h
1967 20-04-2020 19:50:00 16.8 C 5.15 g/m*3 16.8 C 9.7 km/h
1968 20-04-2020 19:55:00 16.7 C 5.12 g/m*3 16.7 C 16.1 km/h
1969 20-04-2020 20:00:00 16.5 C 5.34 g/m*3 16.5 C 14.5 km/h
1970 20-04-2020 20:05:00 16.3 C 5.27 g/m*3 16.3 C 16.1 km/h
1971 20-04-2020 20:10:00 16.1 C 5.21 g/m*3 16.1 C 17.7 km/h
1972 20-04-2020 20:15:00 15.9 C 5.28 g/m*3 15.9 C 3.2 km/h
1973 20-04-2020 20:20:00 15.7 C 5.35 g/m*3 15.7 C 16.1 km/h
1974 20-04-2020 20:25:00 15.4 C 5.52 g/m*3 15.4 C 4.8 km/h
1975 20-04-2020 20:30:00 15.1 C 5.42 g/m*3 15.1 C 4.8 km/h
Sensor: Nr:Datum:Temp:Abs-Feuchte:Windchill:Wind:
Aussen-T/F 1976 20-04-2020 20:35:00 14.8 C 5.19 g/m*3 14.8 C 6.4 km/h
1977 20-04-2020 20:40:00 14.7 C 5.04 g/m*3 14.7 C 6.4 km/h
1978 20-04-2020 20:45:00 14.7 C 5.16 g/m*3 14.7 C 16.1 km/h
1979 20-04-2020 20:50:00 14.6 C 5.26 g/m*3 14.6 C 3.2 km/h
1980 20-04-2020 20:55:00 14.4 C 5.19 g/m*3 14.4 C 8.1 km/h
1981 20-04-2020 21:00:00 14.2 C 5.13 g/m*3 14.2 C 4.8 km/h
1982 20-04-2020 21:05:00 14.1 C 4.98 g/m*3 14.1 C 6.4 km/h
1983 20-04-2020 21:10:00 13.9 C 5.15 g/m*3 13.9 C 3.2 km/h
1984 20-04-2020 21:15:00 13.7 C 5.21 g/m*3 13.7 C 4.8 km/h
1985 20-04-2020 21:20:00 13.4 C 5.23 g/m*3 13.4 C 1.6 km/h
1986 20-04-2020 21:25:00 13.2 C 5.05 g/m*3 13.2 C 6.4 km/h
1987 20-04-2020 21:30:00 13.1 C 5.36 g/m*3 13.1 C 1.6 km/h
1988 20-04-2020 21:35:00 12.7 C 5.01 g/m*3 12.7 C 8.1 km/h
1989 20-04-2020 21:40:00 12.6 C 5.09 g/m*3 12.6 C 8.1 km/h
1990 20-04-2020 21:45:00 12.4 C 5.14 g/m*3 12.4 C 1.6 km/h
1991 20-04-2020 21:50:00 12.6 C 4.98 g/m*3 12.6 C 11.3 km/h
1992 20-04-2020 21:55:00 12.7 C 4.9 g/m*3 12.7 C 4.8 km/h
1993 20-04-2020 22:00:00 12.7 C 5.23 g/m*3 12.7 C 1.6 km/h
1994 20-04-2020 22:05:00 12.6 C 4.98 g/m*3 12.6 C 4.8 km/h
1995 20-04-2020 22:10:00 12.6 C 4.98 g/m*3 12.6 C 4.8 km/h
1996 20-04-2020 22:15:00 12.5 C 5.28 g/m*3 12.5 C 4.8 km/h
1997 20-04-2020 22:20:00 12.3 C 5.1 g/m*3 12.3 C 11.3 km/h
1998 20-04-2020 22:25:00 12.4 C 4.92 g/m*3 12.4 C 11.3 km/h
1999 20-04-2020 22:30:00 12.4 C 4.92 g/m*3 12.4 C 4.8 km/h
2000 20-04-2020 22:35:00 12.4 C 5.03 g/m*3 12.4 C 3.2 km/h
Sensor: Nr:Datum:Temp:Abs-Feuchte:Windchill:Wind:
Aussen-T/F 2001 20-04-2020 22:40:00 12.4 C 4.92 g/m*3 12.4 C 8.1 km/h
2002 20-04-2020 22:45:00 12.4 C 5.03 g/m*3 12.4 C 1.6 km/h
2003 20-04-2020 22:50:00 12.2 C 5.07 g/m*3 12.2 C 4.8 km/h
2004 20-04-2020 22:55:00 12 C 5.01 g/m*3 12 C 8.1 km/h
2005 20-04-2020 23:00:00 11.9 C 4.87 g/m*3 11.9 C 6.4 km/h
2006 20-04-2020 23:05:00 11.8 C 4.95 g/m*3 11.8 C 6.4 km/h
2007 20-04-2020 23:10:00 11.8 C 4.84 g/m*3 11.8 C 8.1 km/h
2008 20-04-2020 23:15:00 11.7 C 4.71 g/m*3 11.7 C 0 km/h
2009 20-04-2020 23:20:00 11.8 C 5.05 g/m*3 11.8 C 1.6 km/h
2010 20-04-2020 23:25:00 11.6 C 4.89 g/m*3 11.6 C 4.8 km/h
2011 20-04-2020 23:30:00 11.6 C 4.78 g/m*3 11.6 C 8.1 km/h
2012 20-04-2020 23:35:00 11.7 C 4.81 g/m*3 11.7 C 4.8 km/h
2013 20-04-2020 23:40:00 11.7 C 4.71 g/m*3 11.7 C 4.8 km/h
2014 20-04-2020 23:45:00 11.6 C 4.68 g/m*3 11.6 C 12.9 km/h
2015 20-04-2020 23:50:00 11.6 C 4.89 g/m*3 11.6 C 3.2 km/h
2016 20-04-2020 23:55:00 11.5 C 4.75 g/m*3 11.5 C 9.7 km/h
2017 21-04-2020 00:00:00 11.4 C 4.82 g/m*3 11.4 C 4.8 km/h
2018 21-04-2020 00:05:00 11.3 C 4.9 g/m*3 11.3 C 8.1 km/h
2019 21-04-2020 00:10:00 11.1 C 4.83 g/m*3 11.1 C 3.2 km/h
2020 21-04-2020 00:15:00 11.2 C 4.66 g/m*3 11.2 C 20.9 km/h
2021 21-04-2020 00:20:00 11.2 C 4.76 g/m*3 11.2 C 0 km/h
2022 21-04-2020 00:25:00 11.1 C 4.73 g/m*3 11.1 C 4.8 km/h
2023 21-04-2020 00:30:00 10.9 C 4.97 g/m*3 10.41 C 6.4 km/h
2024 21-04-2020 00:35:00 10.7 C 4.81 g/m*3 10.7 C 3.2 km/h
2025 21-04-2020 00:40:00 10.6 C 4.68 g/m*3 9.4 C 9.7 km/h
Sensor: Nr:Datum:Temp:Abs-Feuchte:Windchill:Wind:
Aussen-T/F 2026 21-04-2020 00:45:00 10.8 C 4.84 g/m*3 9.64 C 9.7 km/h
2027 21-04-2020 00:50:00 10.8 C 4.94 g/m*3 10.8 C 1.6 km/h
2028 21-04-2020 00:55:00 10.6 C 4.98 g/m*3 10.6 C 0 km/h
2029 21-04-2020 01:00:00 10.3 C 4.88 g/m*3 10.3 C 1.6 km/h
2030 21-04-2020 01:05:00 10 C 4.98 g/m*3 10 C 3.2 km/h
2031 21-04-2020 01:10:00 9.8 C 5.01 g/m*3 9.8 C 1.6 km/h
2032 21-04-2020 01:15:00 9.5 C 5.01 g/m*3 9.5 C 1.6 km/h
2033 21-04-2020 01:20:00 9.3 C 4.94 g/m*3 9.3 C 1.6 km/h
2034 21-04-2020 01:25:00 9.2 C 5 g/m*3 9.2 C 0 km/h
2035 21-04-2020 01:30:00 9.3 C 5.03 g/m*3 7.85 C 9.7 km/h
2036 21-04-2020 01:35:00 9.2 C 5 g/m*3 9.2 C 3.2 km/h
2037 21-04-2020 01:40:00 9.1 C 5.06 g/m*3 9.1 C 0 km/h
2038 21-04-2020 01:45:00 8.9 C 4.91 g/m*3 8.9 C 3.2 km/h
2039 21-04-2020 01:50:00 8.9 C 4.99 g/m*3 8.9 C 3.2 km/h
2040 21-04-2020 01:55:00 8.8 C 5.05 g/m*3 8.8 C 0 km/h
2041 21-04-2020 02:00:00 8.8 C 4.79 g/m*3 7.58 C 8.1 km/h
2042 21-04-2020 02:05:00 9.2 C 5.09 g/m*3 9.2 C 3.2 km/h
2043 21-04-2020 02:10:00 9.2 C 5.09 g/m*3 8.45 C 6.4 km/h
2044 21-04-2020 02:15:00 9.3 C 4.85 g/m*3 9.3 C 4.8 km/h
2045 21-04-2020 02:20:00 9.4 C 4.97 g/m*3 7.7 C 11.3 km/h
2046 21-04-2020 02:25:00 9.5 C 4.92 g/m*3 9.5 C 3.2 km/h
2047 21-04-2020 02:30:00 9.5 C 4.92 g/m*3 8.79 C 6.4 km/h
2048 21-04-2020 02:35:00 9.5 C 5.1 g/m*3 9.5 C 1.6 km/h
2049 21-04-2020 02:40:00 9.5 C 5.01 g/m*3 8.79 C 6.4 km/h
2050 21-04-2020 02:45:00 9.7 C 4.98 g/m*3 8.33 C 9.7 km/h
Sensor: Nr:Datum:Temp:Abs-Feuchte:Windchill:Wind:
Aussen-T/F 2051 21-04-2020 02:50:00 9.7 C 4.89 g/m*3 9.7 C 3.2 km/h
2052 21-04-2020 02:55:00 9.7 C 4.98 g/m*3 9.7 C 1.6 km/h
2053 21-04-2020 03:00:00 9.7 C 4.79 g/m*3 8.33 C 9.7 km/h
2054 21-04-2020 03:05:00 9.8 C 4.92 g/m*3 9.8 C 3.2 km/h
2055 21-04-2020 03:10:00 9.8 C 5.01 g/m*3 9.14 C 6.4 km/h
2056 21-04-2020 03:15:00 9.7 C 5.07 g/m*3 9.7 C 4.8 km/h
2057 21-04-2020 03:20:00 9.6 C 4.86 g/m*3 8.52 C 8.1 km/h
2058 21-04-2020 03:25:00 9.7 C 4.89 g/m*3 8.06 C 11.3 km/h
2059 21-04-2020 03:30:00 9.7 C 5.07 g/m*3 9.7 C 4.8 km/h
2060 21-04-2020 03:35:00 9.6 C 5.13 g/m*3 9.6 C 1.6 km/h
2061 21-04-2020 03:40:00 9.4 C 5.16 g/m*3 8.68 C 6.4 km/h
2062 21-04-2020 03:45:00 9.2 C 5 g/m*3 9.2 C 3.2 km/h
2063 21-04-2020 03:50:00 9.1 C 4.88 g/m*3 7.93 C 8.1 km/h
2064 21-04-2020 03:55:00 9.2 C 5.18 g/m*3 9.2 C 1.6 km/h
2065 21-04-2020 04:00:00 9.1 C 5.15 g/m*3 9.1 C 1.6 km/h
2066 21-04-2020 04:05:00 8.9 C 5.08 g/m*3 8.9 C 4.8 km/h
2067 21-04-2020 04:10:00 8.8 C 5.14 g/m*3 8.8 C 1.6 km/h
2068 21-04-2020 04:15:00 8.5 C 5.21 g/m*3 8.5 C 3.2 km/h
2069 21-04-2020 04:20:00 8.3 C 5.14 g/m*3 7.41 C 6.4 km/h
2070 21-04-2020 04:25:00 8.3 C 5.06 g/m*3 6.37 C 11.3 km/h
2071 21-04-2020 04:30:00 8.3 C 5.06 g/m*3 8.3 C 3.2 km/h
2072 21-04-2020 04:35:00 8.3 C 5.23 g/m*3 8.3 C 0 km/h
2073 21-04-2020 04:40:00 8.2 C 5.11 g/m*3 8.2 C 3.2 km/h
2074 21-04-2020 04:45:00 8.2 C 5.19 g/m*3 8.2 C 1.6 km/h
2075 21-04-2020 04:50:00 8.1 C 5.16 g/m*3 8.1 C 3.2 km/h
Sensor: Nr:Datum:Temp:Abs-Feuchte:Windchill:Wind:
Aussen-T/F 2076 21-04-2020 04:55:00 8.1 C 5.08 g/m*3 6.42 C 9.7 km/h
2077 21-04-2020 05:00:00 8.1 C 5.24 g/m*3 8.1 C 1.6 km/h
2078 21-04-2020 05:05:00 8.1 C 5.08 g/m*3 6.42 C 9.7 km/h
2079 21-04-2020 05:10:00 8.2 C 5.11 g/m*3 8.2 C 3.2 km/h
2080 21-04-2020 05:15:00 8.2 C 5.19 g/m*3 8.2 C 3.2 km/h
2081 21-04-2020 05:20:00 8.1 C 5.16 g/m*3 8.1 C 4.8 km/h
2082 21-04-2020 05:25:00 8.1 C 5.24 g/m*3 8.1 C 3.2 km/h
2083 21-04-2020 05:30:00 7.9 C 5.17 g/m*3 7.9 C 1.6 km/h
2084 21-04-2020 05:35:00 7.8 C 5.22 g/m*3 7.8 C 0 km/h
2085 21-04-2020 05:40:00 7.6 C 5.32 g/m*3 7.6 C 1.6 km/h
2086 21-04-2020 05:45:00 7.3 C 5.14 g/m*3 7.3 C 1.6 km/h
2087 21-04-2020 05:50:00 7.3 C 5.21 g/m*3 7.3 C 1.6 km/h
2088 21-04-2020 05:55:00 7.2 C 5.26 g/m*3 7.2 C 1.6 km/h
2089 21-04-2020 06:00:00 7.1 C 5.23 g/m*3 7.1 C 1.6 km/h
2090 21-04-2020 06:05:00 7.2 C 5.26 g/m*3 7.2 C 3.2 km/h
2091 21-04-2020 06:10:00 7.2 C 5.26 g/m*3 7.2 C 0 km/h
2092 21-04-2020 06:15:00 7.2 C 5.26 g/m*3 6.13 C 6.4 km/h
2093 21-04-2020 06:20:00 7.2 C 5.18 g/m*3 7.2 C 3.2 km/h
2094 21-04-2020 06:25:00 7.2 C 5.26 g/m*3 7.2 C 3.2 km/h
2095 21-04-2020 06:30:00 7.1 C 5.3 g/m*3 7.1 C 3.2 km/h
2096 21-04-2020 06:35:00 6.9 C 5.23 g/m*3 6.9 C 1.6 km/h
2097 21-04-2020 06:40:00 6.8 C 5.2 g/m*3 6.8 C 3.2 km/h
2098 21-04-2020 06:45:00 6.8 C 5.28 g/m*3 6.8 C 0 km/h
2099 21-04-2020 06:50:00 6.8 C 5.28 g/m*3 6.8 C 0 km/h
2100 21-04-2020 06:55:00 6.7 C 5.32 g/m*3 6.7 C 0 km/h
Sensor: Nr:Datum:Temp:Abs-Feuchte:Windchill:Wind:
Aussen-T/F 2101 21-04-2020 07:00:00 6.7 C 5.32 g/m*3 6.7 C 0 km/h
2102 21-04-2020 07:05:00 6.7 C 5.32 g/m*3 6.7 C 0 km/h
2103 21-04-2020 07:10:00 6.7 C 5.32 g/m*3 6.7 C 0 km/h
2104 21-04-2020 07:15:00 6.7 C 5.32 g/m*3 6.7 C 0 km/h
2105 21-04-2020 07:20:00 6.8 C 5.35 g/m*3 6.8 C 0 km/h
2106 21-04-2020 07:25:00 6.8 C 5.35 g/m*3 6.8 C 3.2 km/h
2107 21-04-2020 07:30:00 6.9 C 5.31 g/m*3 6.9 C 1.6 km/h
2108 21-04-2020 07:35:00 6.9 C 5.31 g/m*3 5.34 C 8.1 km/h
2109 21-04-2020 07:40:00 7.2 C 5.26 g/m*3 7.2 C 3.2 km/h
2110 21-04-2020 07:45:00 7.4 C 5.33 g/m*3 7.4 C 4.8 km/h
2111 21-04-2020 07:50:00 7.4 C 5.41 g/m*3 7.4 C 3.2 km/h
2112 21-04-2020 07:55:00 7.4 C 5.49 g/m*3 7.4 C 1.6 km/h
2113 21-04-2020 08:00:00 7.4 C 5.33 g/m*3 7.4 C 4.8 km/h
2114 21-04-2020 08:05:00 7.7 C 5.43 g/m*3 6.28 C 8.1 km/h
2115 21-04-2020 08:10:00 7.8 C 5.47 g/m*3 6.83 C 6.4 km/h
2116 21-04-2020 08:15:00 7.9 C 5.5 g/m*3 6.52 C 8.1 km/h
2117 21-04-2020 08:20:00 8.1 C 5.41 g/m*3 8.1 C 4.8 km/h
2118 21-04-2020 08:25:00 8.2 C 5.61 g/m*3 8.2 C 3.2 km/h
2119 21-04-2020 08:30:00 8.1 C 5.57 g/m*3 8.1 C 1.6 km/h
2120 21-04-2020 08:35:00 8.1 C 5.57 g/m*3 8.1 C 3.2 km/h
2121 21-04-2020 08:40:00 8.1 C 5.66 g/m*3 8.1 C 4.8 km/h
2122 21-04-2020 08:45:00 8.1 C 5.41 g/m*3 7.17 C 6.4 km/h
2123 21-04-2020 08:50:00 8.3 C 5.23 g/m*3 6.37 C 11.3 km/h
2124 21-04-2020 08:55:00 8.7 C 5.45 g/m*3 8.7 C 3.2 km/h
2125 21-04-2020 09:00:00 8.9 C 5.52 g/m*3 7.69 C 8.1 km/h
Sensor: Nr:Datum:Temp:Abs-Feuchte:Windchill:Wind:
Aussen-T/F 2126 21-04-2020 09:05:00 9.1 C 5.77 g/m*3 9.1 C 3.2 km/h
2127 21-04-2020 09:10:00 9.3 C 5.57 g/m*3 6.92 C 16.1 km/h
2128 21-04-2020 09:15:00 9.5 C 5.55 g/m*3 9.5 C 4.8 km/h
2129 21-04-2020 09:20:00 9.7 C 5.25 g/m*3 9.02 C 6.4 km/h
2130 21-04-2020 09:25:00 10 C 5.45 g/m*3 9.37 C 6.4 km/h
2131 21-04-2020 09:30:00 10.2 C 5.23 g/m*3 8.66 C 11.3 km/h
2132 21-04-2020 09:35:00 10.5 C 5.53 g/m*3 8.8 C 12.9 km/h
2133 21-04-2020 09:40:00 10.7 C 5.3 g/m*3 9.26 C 11.3 km/h
2134 21-04-2020 09:45:00 10.8 C 5.24 g/m*3 9.64 C 9.7 km/h
2135 21-04-2020 09:50:00 11.1 C 5.34 g/m*3 11.1 C 4.8 km/h
2136 21-04-2020 09:55:00 11.2 C 5.47 g/m*3 11.2 C 8.1 km/h
2137 21-04-2020 10:00:00 11.3 C 5.51 g/m*3 11.3 C 6.4 km/h
2138 21-04-2020 10:05:00 11.4 C 5.34 g/m*3 11.4 C 14.5 km/h
2139 21-04-2020 10:10:00 11.7 C 5.54 g/m*3 11.7 C 11.3 km/h
2140 21-04-2020 10:15:00 11.7 C 5.44 g/m*3 11.7 C 11.3 km/h
2141 21-04-2020 10:20:00 11.9 C 5.19 g/m*3 11.9 C 17.7 km/h
2142 21-04-2020 10:25:00 12.2 C 5.18 g/m*3 12.2 C 11.3 km/h
2143 21-04-2020 10:30:00 12.5 C 5.28 g/m*3 12.5 C 12.9 km/h
2144 21-04-2020 10:35:00 12.7 C 5.34 g/m*3 12.7 C 9.7 km/h
2145 21-04-2020 10:40:00 12.8 C 5.15 g/m*3 12.8 C 20.9 km/h
2146 21-04-2020 10:45:00 13.1 C 5.25 g/m*3 13.1 C 11.3 km/h
2147 21-04-2020 10:50:00 13.3 C 5.43 g/m*3 13.3 C 16.1 km/h
2148 21-04-2020 10:55:00 13.4 C 5.23 g/m*3 13.4 C 6.4 km/h
2149 21-04-2020 11:00:00 13.6 C 5.18 g/m*3 13.6 C 16.1 km/h
2150 21-04-2020 11:05:00 13.8 C 5.24 g/m*3 13.8 C 14.5 km/h
Sensor: Nr:Datum:Temp:Abs-Feuchte:Windchill:Wind:
Aussen-T/F 2151 21-04-2020 11:10:00 14 C 5.43 g/m*3 14 C 9.7 km/h
2152 21-04-2020 11:15:00 14.2 C 5.25 g/m*3 14.2 C 11.3 km/h
2153 21-04-2020 11:20:00 14.4 C 5.19 g/m*3 14.4 C 14.5 km/h
2154 21-04-2020 11:25:00 14.5 C 5.35 g/m*3 14.5 C 12.9 km/h
2155 21-04-2020 11:30:00 14.6 C 5.26 g/m*3 14.6 C 19.3 km/h
2156 21-04-2020 11:35:00 14.7 C 5.29 g/m*3 14.7 C 14.5 km/h
2157 21-04-2020 11:40:00 14.8 C 5.32 g/m*3 14.8 C 19.3 km/h
2158 21-04-2020 11:45:00 15 C 5.26 g/m*3 15 C 19.3 km/h
2159 21-04-2020 11:50:00 15.2 C 5.32 g/m*3 15.2 C 14.5 km/h
2160 21-04-2020 11:55:00 15.4 C 5.26 g/m*3 15.4 C 11.3 km/h
2161 21-04-2020 12:00:00 15.6 C 5.45 g/m*3 15.6 C 12.9 km/h
2162 21-04-2020 12:05:00 15.7 C 5.35 g/m*3 15.7 C 16.1 km/h
2163 21-04-2020 12:10:00 15.8 C 5.12 g/m*3 15.8 C 14.5 km/h
2164 21-04-2020 12:15:00 15.9 C 5.15 g/m*3 15.9 C 19.3 km/h
2165 21-04-2020 12:20:00 16.1 C 5.07 g/m*3 16.1 C 17.7 km/h
2166 21-04-2020 12:25:00 16.1 C 5.21 g/m*3 16.1 C 25.7 km/h
2167 21-04-2020 12:30:00 16.2 C 5.1 g/m*3 16.2 C 17.7 km/h
2168 21-04-2020 12:35:00 16.3 C 5.13 g/m*3 16.3 C 17.7 km/h
2169 21-04-2020 12:40:00 16.3 C 5.13 g/m*3 16.3 C 19.3 km/h
2170 21-04-2020 12:45:00 16.4 C 5.16 g/m*3 16.4 C 17.7 km/h
2171 21-04-2020 12:50:00 16.6 C 5.23 g/m*3 16.6 C 12.9 km/h
2172 21-04-2020 12:55:00 16.7 C 5.26 g/m*3 16.7 C 11.3 km/h
2173 21-04-2020 13:00:00 16.8 C 5.15 g/m*3 16.8 C 24.1 km/h
2174 21-04-2020 13:05:00 16.9 C 5.18 g/m*3 16.9 C 14.5 km/h
2175 21-04-2020 13:10:00 17.1 C 5.24 g/m*3 17.1 C 16.1 km/h
Sensor: Nr:Datum:Temp:Abs-Feuchte:Windchill:Wind:
Aussen-T/F 2176 21-04-2020 13:15:00 17.2 C 5.27 g/m*3 17.2 C 14.5 km/h
2177 21-04-2020 13:20:00 17.2 C 5.13 g/m*3 17.2 C 17.7 km/h
2178 21-04-2020 13:25:00 17.3 C 5.3 g/m*3 17.3 C 17.7 km/h
2179 21-04-2020 13:30:00 17.4 C 5.34 g/m*3 17.4 C 9.7 km/h
2180 21-04-2020 13:35:00 17.4 C 5.19 g/m*3 17.4 C 12.9 km/h
2181 21-04-2020 13:40:00 17.7 C 5.28 g/m*3 17.7 C 22.5 km/h
2182 21-04-2020 13:45:00 17.8 C 5.16 g/m*3 17.8 C 20.9 km/h
2183 21-04-2020 13:50:00 17.9 C 5.04 g/m*3 17.9 C 16.1 km/h
2184 21-04-2020 13:55:00 18.1 C 5.25 g/m*3 18.1 C 16.1 km/h
2185 21-04-2020 14:00:00 18.3 C 5.32 g/m*3 18.3 C 16.1 km/h
2186 21-04-2020 14:05:00 18.4 C 5.19 g/m*3 18.4 C 19.3 km/h
2187 21-04-2020 14:10:00 18.5 C 5.22 g/m*3 18.5 C 22.5 km/h
2188 21-04-2020 14:15:00 18.7 C 5.12 g/m*3 18.7 C 25.7 km/h
2189 21-04-2020 14:20:00 18.8 C 5.31 g/m*3 18.8 C 16.1 km/h
2190 21-04-2020 14:25:00 18.8 C 5.15 g/m*3 18.8 C 24.1 km/h
2191 21-04-2020 14:30:00 18.9 C 5.18 g/m*3 18.9 C 24.1 km/h
2192 21-04-2020 14:35:00 19.1 C 5.41 g/m*3 19.1 C 17.7 km/h
2193 21-04-2020 14:40:00 19.3 C 5.31 g/m*3 19.3 C 19.3 km/h
2194 21-04-2020 14:45:00 19.4 C 5.34 g/m*3 19.4 C 17.7 km/h
2195 21-04-2020 14:50:00 19.6 C 5.4 g/m*3 19.6 C 17.7 km/h
2196 21-04-2020 14:55:00 19.7 C 5.26 g/m*3 19.7 C 14.5 km/h
2197 21-04-2020 15:00:00 19.8 C 5.3 g/m*3 19.8 C 12.9 km/h
2198 21-04-2020 15:05:00 19.9 C 5.33 g/m*3 19.9 C 14.5 km/h
2199 21-04-2020 15:10:00 20 C 5.18 g/m*3 20 C 27.4 km/h
2200 21-04-2020 15:15:00 19.9 C 5.33 g/m*3 19.9 C 30.6 km/h
Sensor: Nr:Datum:Temp:Abs-Feuchte:Windchill:Wind:
Aussen-T/F 2201 21-04-2020 15:20:00 20 C 5.36 g/m*3 20 C 30.6 km/h
2202 21-04-2020 15:25:00 20.1 C 5.39 g/m*3 20.1 C 30.6 km/h
2203 21-04-2020 15:30:00 20.2 C 5.42 g/m*3 20.2 C 17.7 km/h
2204 21-04-2020 15:35:00 20.3 C 5.28 g/m*3 20.3 C 27.4 km/h
2205 21-04-2020 15:40:00 20.5 C 5.52 g/m*3 20.5 C 25.7 km/h
2206 21-04-2020 15:45:00 20.7 C 5.58 g/m*3 20.7 C 22.5 km/h
2207 21-04-2020 15:50:00 20.6 C 5.37 g/m*3 20.6 C 25.7 km/h
2208 21-04-2020 15:55:00 20.6 C 5.37 g/m*3 20.6 C 25.7 km/h
2209 21-04-2020 16:00:00 20.5 C 5.34 g/m*3 20.5 C 30.6 km/h
2210 21-04-2020 16:05:00 20.7 C 5.58 g/m*3 20.7 C 30.6 km/h
2211 21-04-2020 16:10:00 20.7 C 5.4 g/m*3 20.7 C 22.5 km/h
2212 21-04-2020 16:15:00 20.7 C 5.58 g/m*3 20.7 C 19.3 km/h
2213 21-04-2020 16:20:00 20.7 C 5.4 g/m*3 20.7 C 30.6 km/h
2214 21-04-2020 16:25:00 20.7 C 5.58 g/m*3 20.7 C 25.7 km/h
2215 21-04-2020 16:30:00 20.8 C 5.43 g/m*3 20.8 C 29 km/h
2216 21-04-2020 16:35:00 20.9 C 5.65 g/m*3 20.9 C 25.7 km/h
2217 21-04-2020 16:40:00 21 C 5.31 g/m*3 21 C 20.9 km/h
2218 21-04-2020 16:45:00 21.1 C 5.53 g/m*3 21.1 C 17.7 km/h
2219 21-04-2020 16:50:00 20.9 C 5.28 g/m*3 20.9 C 25.7 km/h
2220 21-04-2020 16:55:00 21 C 5.68 g/m*3 21 C 29 km/h
2221 21-04-2020 17:00:00 21.1 C 5.53 g/m*3 21.1 C 20.9 km/h
2222 21-04-2020 17:05:00 21.3 C 5.59 g/m*3 21.3 C 20.9 km/h
2223 21-04-2020 17:10:00 21.5 C 5.85 g/m*3 21.5 C 9.7 km/h
2224 21-04-2020 17:15:00 21.8 C 5.76 g/m*3 21.8 C 19.3 km/h
2225 21-04-2020 17:20:00 21.7 C 5.53 g/m*3 21.7 C 19.3 km/h
Sensor: Nr:Datum:Temp:Abs-Feuchte:Windchill:Wind:
Aussen-T/F 2226 21-04-2020 17:25:00 21.2 C 5.56 g/m*3 21.2 C 29 km/h
2227 21-04-2020 17:30:00 20.9 C 5.46 g/m*3 20.9 C 27.4 km/h
2228 21-04-2020 17:35:00 20.7 C 5.58 g/m*3 20.7 C 24.1 km/h
2229 21-04-2020 17:40:00 20.8 C 5.79 g/m*3 20.8 C 19.3 km/h
2230 21-04-2020 17:45:00 20.8 C 5.61 g/m*3 20.8 C 16.1 km/h
2231 21-04-2020 17:50:00 20.8 C 5.79 g/m*3 20.8 C 22.5 km/h
2232 21-04-2020 17:55:00 21.1 C 5.9 g/m*3 21.1 C 19.3 km/h
2233 21-04-2020 18:00:00 20.8 C 5.61 g/m*3 20.8 C 27.4 km/h
2234 21-04-2020 18:05:00 20.8 C 5.61 g/m*3 20.8 C 17.7 km/h
2235 21-04-2020 18:10:00 21.1 C 5.9 g/m*3 21.1 C 12.9 km/h
2236 21-04-2020 18:15:00 21.2 C 5.74 g/m*3 21.2 C 16.1 km/h
2237 21-04-2020 18:20:00 20.9 C 5.83 g/m*3 20.9 C 14.5 km/h
2238 21-04-2020 18:25:00 20.8 C 5.79 g/m*3 20.8 C 20.9 km/h
2239 21-04-2020 18:30:00 20.7 C 5.76 g/m*3 20.7 C 24.1 km/h
2240 21-04-2020 18:35:00 20.7 C 5.76 g/m*3 20.7 C 14.5 km/h
2241 21-04-2020 18:40:00 20.7 C 5.94 g/m*3 20.7 C 14.5 km/h
2242 21-04-2020 18:45:00 20.7 C 5.94 g/m*3 20.7 C 14.5 km/h
2243 21-04-2020 18:50:00 20.8 C 5.98 g/m*3 20.8 C 8.1 km/h
2244 21-04-2020 18:55:00 20.9 C 6.01 g/m*3 20.9 C 14.5 km/h
2245 21-04-2020 19:00:00 20.7 C 5.94 g/m*3 20.7 C 20.9 km/h
2246 21-04-2020 19:05:00 20.4 C 5.84 g/m*3 20.4 C 17.7 km/h
2247 21-04-2020 19:10:00 20.1 C 5.74 g/m*3 20.1 C 19.3 km/h
2248 21-04-2020 19:15:00 20 C 5.88 g/m*3 20 C 19.3 km/h
2249 21-04-2020 19:20:00 19.9 C 6.01 g/m*3 19.9 C 16.1 km/h
2250 21-04-2020 19:25:00 19.7 C 5.94 g/m*3 19.7 C 16.1 km/h
Sensor: Nr:Datum:Temp:Abs-Feuchte:Windchill:Wind:
Aussen-T/F 2251 21-04-2020 19:30:00 19.5 C 5.87 g/m*3 19.5 C 17.7 km/h
2252 21-04-2020 19:35:00 19.3 C 5.81 g/m*3 19.3 C 16.1 km/h
2253 21-04-2020 19:40:00 19.1 C 5.74 g/m*3 19.1 C 16.1 km/h
2254 21-04-2020 19:45:00 18.8 C 5.8 g/m*3 18.8 C 9.7 km/h
2255 21-04-2020 19:50:00 18.8 C 5.8 g/m*3 18.8 C 14.5 km/h
2256 21-04-2020 19:55:00 18.7 C 6.24 g/m*3 18.7 C 8.1 km/h
2257 21-04-2020 20:00:00 18.5 C 5.85 g/m*3 18.5 C 11.3 km/h
2258 21-04-2020 20:05:00 18.3 C 5.79 g/m*3 18.3 C 8.1 km/h
2259 21-04-2020 20:10:00 18.2 C 6.06 g/m*3 18.2 C 6.4 km/h
2260 21-04-2020 20:15:00 17.9 C 5.95 g/m*3 17.9 C 8.1 km/h
2261 21-04-2020 20:20:00 17.6 C 5.85 g/m*3 17.6 C 8.1 km/h
2262 21-04-2020 20:25:00 17.3 C 5.89 g/m*3 17.3 C 4.8 km/h
2263 21-04-2020 20:30:00 17.1 C 5.82 g/m*3 17.1 C 6.4 km/h
2264 21-04-2020 20:35:00 16.8 C 6.15 g/m*3 16.8 C 3.2 km/h
2265 21-04-2020 20:40:00 16.6 C 5.93 g/m*3 16.6 C 4.8 km/h
2266 21-04-2020 20:45:00 16.3 C 5.97 g/m*3 16.3 C 1.6 km/h
2267 21-04-2020 20:50:00 16 C 6.13 g/m*3 16 C 3.2 km/h
2268 21-04-2020 20:55:00 15.6 C 5.98 g/m*3 15.6 C 4.8 km/h
2269 21-04-2020 21:00:00 15.3 C 6.14 g/m*3 15.3 C 1.6 km/h
2270 21-04-2020 21:05:00 15.1 C 5.81 g/m*3 15.1 C 1.6 km/h
2271 21-04-2020 21:10:00 14.9 C 5.74 g/m*3 14.9 C 4.8 km/h
2272 21-04-2020 21:15:00 14.9 C 6.12 g/m*3 14.9 C 1.6 km/h
2273 21-04-2020 21:20:00 14.8 C 5.95 g/m*3 14.8 C 3.2 km/h
2274 21-04-2020 21:25:00 14.7 C 6.04 g/m*3 14.7 C 1.6 km/h
2275 21-04-2020 21:30:00 14.4 C 5.81 g/m*3 14.4 C 3.2 km/h
Sensor: Nr:Datum:Temp:Abs-Feuchte:Windchill:Wind:
Aussen-T/F 2276 21-04-2020 21:35:00 14.4 C 5.81 g/m*3 14.4 C 1.6 km/h
2277 21-04-2020 21:40:00 14.4 C 6.18 g/m*3 14.4 C 0 km/h
2278 21-04-2020 21:45:00 14.2 C 6.11 g/m*3 14.2 C 3.2 km/h
2279 21-04-2020 21:50:00 13.8 C 6.08 g/m*3 13.8 C 3.2 km/h
2280 21-04-2020 21:55:00 13.6 C 5.88 g/m*3 13.6 C 3.2 km/h
2281 21-04-2020 22:00:00 13.6 C 6.12 g/m*3 13.6 C 1.6 km/h
2282 21-04-2020 22:05:00 13.4 C 6.04 g/m*3 13.4 C 3.2 km/h
2283 21-04-2020 22:10:00 13.1 C 6.16 g/m*3 13.1 C 4.8 km/h
2284 21-04-2020 22:15:00 13.2 C 5.97 g/m*3 13.2 C 4.8 km/h
2285 21-04-2020 22:20:00 13.4 C 5.93 g/m*3 13.4 C 4.8 km/h
2286 21-04-2020 22:25:00 13.5 C 6.08 g/m*3 13.5 C 1.6 km/h
2287 21-04-2020 22:30:00 13.3 C 5.89 g/m*3 13.3 C 3.2 km/h
2288 21-04-2020 22:35:00 13.2 C 6.09 g/m*3 13.2 C 3.2 km/h
2289 21-04-2020 22:40:00 12.9 C 5.97 g/m*3 12.9 C 0 km/h
2290 21-04-2020 22:45:00 12.6 C 6.08 g/m*3 12.6 C 1.6 km/h
2291 21-04-2020 22:50:00 12.4 C 6.12 g/m*3 12.4 C 1.6 km/h
2292 21-04-2020 22:55:00 12.3 C 6.08 g/m*3 12.3 C 1.6 km/h
2293 21-04-2020 23:00:00 12.2 C 6.04 g/m*3 12.2 C 0 km/h
2294 21-04-2020 23:05:00 12.2 C 6.04 g/m*3 12.2 C 1.6 km/h
2295 21-04-2020 23:10:00 12.2 C 5.94 g/m*3 12.2 C 0 km/h
2296 21-04-2020 23:15:00 12.2 C 6.15 g/m*3 12.2 C 1.6 km/h
2297 21-04-2020 23:20:00 12 C 6.07 g/m*3 12 C 0 km/h
2298 21-04-2020 23:25:00 12 C 6.07 g/m*3 12 C 3.2 km/h
2299 21-04-2020 23:30:00 11.9 C 6.04 g/m*3 11.9 C 3.2 km/h
2300 21-04-2020 23:35:00 11.8 C 6 g/m*3 11.8 C 3.2 km/h
Sensor: Nr:Datum:Temp:Abs-Feuchte:Windchill:Wind:
Aussen-T/F 2301 21-04-2020 23:40:00 11.7 C 6.07 g/m*3 11.7 C 0 km/h
2302 21-04-2020 23:45:00 11.6 C 6.03 g/m*3 11.6 C 4.8 km/h
2303 21-04-2020 23:50:00 11.6 C 6.03 g/m*3 11.6 C 1.6 km/h
2304 21-04-2020 23:55:00 11.5 C 5.99 g/m*3 11.5 C 3.2 km/h
2305 22-04-2020 00:00:00 11.4 C 5.95 g/m*3 11.4 C 3.2 km/h
2306 22-04-2020 00:05:00 11.3 C 5.92 g/m*3 11.3 C 0 km/h
2307 22-04-2020 00:10:00 11.2 C 6.08 g/m*3 11.2 C 0 km/h
2308 22-04-2020 00:15:00 11.1 C 5.94 g/m*3 11.1 C 0 km/h
2309 22-04-2020 00:20:00 11 C 5.81 g/m*3 11 C 4.8 km/h
2310 22-04-2020 00:25:00 11.2 C 5.88 g/m*3 11.2 C 4.8 km/h
2311 22-04-2020 00:30:00 11.4 C 6.06 g/m*3 11.4 C 6.4 km/h
2312 22-04-2020 00:35:00 11.4 C 5.95 g/m*3 11.4 C 1.6 km/h
2313 22-04-2020 00:40:00 11.4 C 5.85 g/m*3 11.4 C 3.2 km/h
2314 22-04-2020 00:45:00 11.4 C 6.06 g/m*3 11.4 C 1.6 km/h
2315 22-04-2020 00:50:00 11.3 C 6.02 g/m*3 11.3 C 4.8 km/h
2316 22-04-2020 00:55:00 11.3 C 5.81 g/m*3 11.3 C 4.8 km/h
2317 22-04-2020 01:00:00 11.3 C 5.92 g/m*3 11.3 C 1.6 km/h
2318 22-04-2020 01:05:00 11.2 C 5.88 g/m*3 11.2 C 9.7 km/h
2319 22-04-2020 01:10:00 11.1 C 5.94 g/m*3 11.1 C 1.6 km/h
2320 22-04-2020 01:15:00 10.9 C 5.97 g/m*3 10.9 C 1.6 km/h
2321 22-04-2020 01:20:00 10.7 C 5.99 g/m*3 10.7 C 3.2 km/h
2322 22-04-2020 01:25:00 10.4 C 5.98 g/m*3 10.4 C 0 km/h
2323 22-04-2020 01:30:00 10.2 C 5.9 g/m*3 10.2 C 0 km/h
2324 22-04-2020 01:35:00 10.1 C 5.96 g/m*3 10.1 C 0 km/h
2325 22-04-2020 01:40:00 10.1 C 5.96 g/m*3 10.1 C 0 km/h
Sensor: Nr:Datum:Temp:Abs-Feuchte:Windchill:Wind:
Aussen-T/F 2326 22-04-2020 01:45:00 10.1 C 5.96 g/m*3 10.1 C 0 km/h
2327 22-04-2020 01:50:00 10.1 C 5.96 g/m*3 10.1 C 4.8 km/h
2328 22-04-2020 01:55:00 10.2 C 6 g/m*3 10.2 C 3.2 km/h
2329 22-04-2020 02:00:00 10.3 C 5.94 g/m*3 9.72 C 6.4 km/h
2330 22-04-2020 02:05:00 10.3 C 5.94 g/m*3 10.3 C 1.6 km/h
2331 22-04-2020 02:10:00 10.2 C 5.9 g/m*3 10.2 C 1.6 km/h
2332 22-04-2020 02:15:00 10.2 C 6 g/m*3 10.2 C 1.6 km/h
2333 22-04-2020 02:20:00 10.1 C 5.96 g/m*3 10.1 C 0 km/h
2334 22-04-2020 02:25:00 9.9 C 5.88 g/m*3 9.9 C 4.8 km/h
2335 22-04-2020 02:30:00 9.8 C 5.94 g/m*3 9.8 C 1.6 km/h
2336 22-04-2020 02:35:00 9.8 C 5.85 g/m*3 9.8 C 4.8 km/h
2337 22-04-2020 02:40:00 9.8 C 5.94 g/m*3 9.8 C 4.8 km/h
2338 22-04-2020 02:45:00 9.9 C 5.88 g/m*3 9.9 C 4.8 km/h
2339 22-04-2020 02:50:00 9.8 C 5.94 g/m*3 9.8 C 1.6 km/h
2340 22-04-2020 02:55:00 9.7 C 5.9 g/m*3 9.7 C 1.6 km/h
2341 22-04-2020 03:00:00 9.6 C 5.86 g/m*3 9.6 C 4.8 km/h
2342 22-04-2020 03:05:00 9.6 C 5.86 g/m*3 9.6 C 1.6 km/h
2343 22-04-2020 03:10:00 9.5 C 5.92 g/m*3 9.5 C 3.2 km/h
2344 22-04-2020 03:15:00 9.5 C 5.92 g/m*3 9.5 C 1.6 km/h
2345 22-04-2020 03:20:00 9.5 C 5.92 g/m*3 9.5 C 0 km/h
2346 22-04-2020 03:25:00 9.4 C 5.88 g/m*3 9.4 C 0 km/h
2347 22-04-2020 03:30:00 9.3 C 5.84 g/m*3 9.3 C 0 km/h
2348 22-04-2020 03:35:00 9.2 C 5.89 g/m*3 9.2 C 0 km/h
2349 22-04-2020 03:40:00 9.1 C 5.94 g/m*3 9.1 C 0 km/h
2350 22-04-2020 03:45:00 8.9 C 5.87 g/m*3 8.9 C 0 km/h
Sensor: Nr:Datum:Temp:Abs-Feuchte:Windchill:Wind:
Aussen-T/F 2351 22-04-2020 03:50:00 8.8 C 5.83 g/m*3 8.8 C 0 km/h
2352 22-04-2020 03:55:00 8.7 C 5.88 g/m*3 8.7 C 0 km/h
2353 22-04-2020 04:00:00 8.7 C 5.79 g/m*3 8.7 C 0 km/h
2354 22-04-2020 04:05:00 8.7 C 5.88 g/m*3 8.7 C 0 km/h
2355 22-04-2020 04:10:00 8.7 C 5.79 g/m*3 8.7 C 0 km/h
2356 22-04-2020 04:15:00 8.6 C 5.84 g/m*3 8.6 C 0 km/h
2357 22-04-2020 04:20:00 8.5 C 5.81 g/m*3 8.5 C 0 km/h
2358 22-04-2020 04:25:00 8.4 C 5.77 g/m*3 8.4 C 1.6 km/h
2359 22-04-2020 04:30:00 8.4 C 5.77 g/m*3 8.4 C 1.6 km/h
2360 22-04-2020 04:35:00 8.3 C 5.73 g/m*3 8.3 C 0 km/h
2361 22-04-2020 04:40:00 8.3 C 5.73 g/m*3 8.3 C 1.6 km/h
2362 22-04-2020 04:45:00 8.2 C 5.78 g/m*3 8.2 C 1.6 km/h
2363 22-04-2020 04:50:00 8.1 C 5.74 g/m*3 8.1 C 1.6 km/h
2364 22-04-2020 04:55:00 8.1 C 5.74 g/m*3 8.1 C 1.6 km/h
2365 22-04-2020 05:00:00 7.9 C 5.75 g/m*3 7.9 C 1.6 km/h
2366 22-04-2020 05:05:00 7.8 C 5.71 g/m*3 7.8 C 0 km/h
2367 22-04-2020 05:10:00 7.8 C 5.79 g/m*3 7.8 C 0 km/h
2368 22-04-2020 05:15:00 7.7 C 5.76 g/m*3 7.7 C 0 km/h
2369 22-04-2020 05:20:00 7.6 C 5.72 g/m*3 7.6 C 1.6 km/h
2370 22-04-2020 05:25:00 7.5 C 5.68 g/m*3 7.5 C 0 km/h
2371 22-04-2020 05:30:00 7.4 C 5.73 g/m*3 7.4 C 0 km/h
2372 22-04-2020 05:35:00 7.3 C 5.69 g/m*3 7.3 C 1.6 km/h
2373 22-04-2020 05:40:00 7.3 C 5.69 g/m*3 7.3 C 1.6 km/h
2374 22-04-2020 05:45:00 7.2 C 5.65 g/m*3 7.2 C 1.6 km/h
2375 22-04-2020 05:50:00 7.2 C 5.73 g/m*3 7.2 C 3.2 km/h
Sensor: Nr:Datum:Temp:Abs-Feuchte:Windchill:Wind:
Aussen-T/F 2376 22-04-2020 05:55:00 7.2 C 5.65 g/m*3 7.2 C 1.6 km/h
2377 22-04-2020 06:00:00 7.1 C 5.69 g/m*3 7.1 C 1.6 km/h
2378 22-04-2020 06:05:00 7 C 5.66 g/m*3 7 C 1.6 km/h
2379 22-04-2020 06:10:00 6.9 C 5.62 g/m*3 6.9 C 0 km/h
2380 22-04-2020 06:15:00 6.8 C 5.58 g/m*3 6.8 C 3.2 km/h
2381 22-04-2020 06:20:00 6.7 C 5.62 g/m*3 6.7 C 0 km/h
2382 22-04-2020 06:25:00 6.6 C 5.66 g/m*3 6.6 C 0 km/h
2383 22-04-2020 06:30:00 6.5 C 5.62 g/m*3 6.5 C 0 km/h
2384 22-04-2020 06:35:00 6.4 C 5.59 g/m*3 6.4 C 0 km/h
2385 22-04-2020 06:40:00 6.3 C 5.63 g/m*3 6.3 C 0 km/h
2386 22-04-2020 06:45:00 6.2 C 5.66 g/m*3 4.98 C 6.4 km/h
2387 22-04-2020 06:50:00 6.2 C 5.74 g/m*3 6.2 C 1.6 km/h
2388 22-04-2020 06:55:00 6.2 C 5.74 g/m*3 6.2 C 3.2 km/h
2389 22-04-2020 07:00:00 6.2 C 5.74 g/m*3 6.2 C 1.6 km/h
2390 22-04-2020 07:05:00 6.2 C 5.74 g/m*3 6.2 C 4.8 km/h
2391 22-04-2020 07:10:00 6.1 C 5.77 g/m*3 6.1 C 1.6 km/h
2392 22-04-2020 07:15:00 6.2 C 5.81 g/m*3 6.2 C 3.2 km/h
2393 22-04-2020 07:20:00 6.1 C 5.77 g/m*3 6.1 C 1.6 km/h
2394 22-04-2020 07:25:00 6.2 C 5.81 g/m*3 6.2 C 4.8 km/h
2395 22-04-2020 07:30:00 6.2 C 5.88 g/m*3 6.2 C 0 km/h
2396 22-04-2020 07:35:00 6.2 C 5.88 g/m*3 6.2 C 0 km/h
2397 22-04-2020 07:40:00 6.2 C 5.88 g/m*3 6.2 C 1.6 km/h
2398 22-04-2020 07:45:00 6.2 C 5.88 g/m*3 6.2 C 3.2 km/h
2399 22-04-2020 07:50:00 6.2 C 5.88 g/m*3 6.2 C 3.2 km/h
2400 22-04-2020 07:55:00 6.3 C 5.92 g/m*3 6.3 C 4.8 km/h
Sensor: Nr:Datum:Temp:Abs-Feuchte:Windchill:Wind:
Aussen-T/F 2401 22-04-2020 08:00:00 6.4 C 5.89 g/m*3 6.4 C 3.2 km/h
2402 22-04-2020 08:05:00 6.6 C 5.96 g/m*3 6.6 C 1.6 km/h
2403 22-04-2020 08:10:00 6.7 C 6 g/m*3 6.7 C 3.2 km/h
2404 22-04-2020 08:15:00 6.8 C 6.04 g/m*3 6.8 C 0 km/h
2405 22-04-2020 08:20:00 6.9 C 6.08 g/m*3 6.9 C 4.8 km/h
2406 22-04-2020 08:25:00 7.1 C 6.08 g/m*3 7.1 C 3.2 km/h
2407 22-04-2020 08:30:00 7.2 C 6.12 g/m*3 7.2 C 3.2 km/h
2408 22-04-2020 08:35:00 7.6 C 5.96 g/m*3 6.16 C 8.1 km/h
2409 22-04-2020 08:40:00 8 C 6.12 g/m*3 8 C 3.2 km/h
2410 22-04-2020 08:45:00 8.2 C 6.2 g/m*3 8.2 C 1.6 km/h
2411 22-04-2020 08:50:00 8.3 C 6.15 g/m*3 8.3 C 3.2 km/h
2412 22-04-2020 08:55:00 8.5 C 5.89 g/m*3 6.9 C 9.7 km/h
2413 22-04-2020 09:00:00 9.1 C 6.12 g/m*3 6.87 C 14.5 km/h
2414 22-04-2020 09:05:00 9.4 C 5.97 g/m*3 9.4 C 4.8 km/h
2415 22-04-2020 09:10:00 9.6 C 6.14 g/m*3 9.6 C 3.2 km/h
2416 22-04-2020 09:15:00 9.7 C 6.08 g/m*3 9.7 C 3.2 km/h
2417 22-04-2020 09:20:00 9.9 C 5.79 g/m*3 9.9 C 4.8 km/h
2418 22-04-2020 09:25:00 10.4 C 6.07 g/m*3 9.46 C 8.1 km/h
2419 22-04-2020 09:30:00 10.7 C 6.09 g/m*3 9.81 C 8.1 km/h
2420 22-04-2020 09:35:00 10.8 C 6.03 g/m*3 10.8 C 3.2 km/h
2421 22-04-2020 09:40:00 10.9 C 6.07 g/m*3 10.9 C 4.8 km/h
2422 22-04-2020 09:45:00 11.1 C 5.84 g/m*3 11.1 C 6.4 km/h
2423 22-04-2020 09:50:00 11.3 C 5.81 g/m*3 11.3 C 3.2 km/h
2424 22-04-2020 09:55:00 11.5 C 6.09 g/m*3 11.5 C 1.6 km/h
2425 22-04-2020 10:00:00 11.6 C 5.82 g/m*3 11.6 C 4.8 km/h
Sensor: Nr:Datum:Temp:Abs-Feuchte:Windchill:Wind:
Aussen-T/F 2426 22-04-2020 10:05:00 11.8 C 6.1 g/m*3 11.8 C 8.1 km/h
2427 22-04-2020 10:10:00 12.1 C 5.9 g/m*3 12.1 C 6.4 km/h
2428 22-04-2020 10:15:00 12.4 C 6.12 g/m*3 12.4 C 11.3 km/h
2429 22-04-2020 10:20:00 12.8 C 5.6 g/m*3 12.8 C 9.7 km/h
2430 22-04-2020 10:25:00 13.1 C 6.05 g/m*3 13.1 C 1.6 km/h
2431 22-04-2020 10:30:00 13.2 C 5.97 g/m*3 13.2 C 4.8 km/h
2432 22-04-2020 10:35:00 13.5 C 5.85 g/m*3 13.5 C 8.1 km/h
2433 22-04-2020 10:40:00 13.7 C 5.8 g/m*3 13.7 C 9.7 km/h
2434 22-04-2020 10:45:00 14 C 5.79 g/m*3 14 C 9.7 km/h
2435 22-04-2020 10:50:00 14.3 C 5.65 g/m*3 14.3 C 12.9 km/h
2436 22-04-2020 10:55:00 14.6 C 5.76 g/m*3 14.6 C 9.7 km/h
2437 22-04-2020 11:00:00 14.8 C 5.57 g/m*3 14.8 C 9.7 km/h
2438 22-04-2020 11:05:00 15.1 C 5.68 g/m*3 15.1 C 14.5 km/h
2439 22-04-2020 11:10:00 15.3 C 5.75 g/m*3 15.3 C 9.7 km/h
2440 22-04-2020 11:15:00 15.4 C 5.78 g/m*3 15.4 C 14.5 km/h
2441 22-04-2020 11:20:00 15.7 C 5.75 g/m*3 15.7 C 14.5 km/h
2442 22-04-2020 11:25:00 15.8 C 5.79 g/m*3 15.8 C 11.3 km/h
2443 22-04-2020 11:30:00 15.9 C 5.82 g/m*3 15.9 C 4.8 km/h
2444 22-04-2020 11:35:00 16.1 C 5.48 g/m*3 16.1 C 14.5 km/h
2445 22-04-2020 11:40:00 16.3 C 5.55 g/m*3 16.3 C 12.9 km/h
2446 22-04-2020 11:45:00 16.6 C 5.79 g/m*3 16.6 C 8.1 km/h
2447 22-04-2020 11:50:00 16.7 C 5.54 g/m*3 16.7 C 12.9 km/h
2448 22-04-2020 11:55:00 16.8 C 5.58 g/m*3 16.8 C 6.4 km/h
2449 22-04-2020 12:00:00 17 C 5.5 g/m*3 17 C 19.3 km/h
2450 22-04-2020 12:05:00 17.2 C 5.42 g/m*3 17.2 C 19.3 km/h
Sensor: Nr:Datum:Temp:Abs-Feuchte:Windchill:Wind:
Aussen-T/F 2451 22-04-2020 12:10:00 17.3 C 5.45 g/m*3 17.3 C 11.3 km/h
2452 22-04-2020 12:15:00 17.5 C 5.52 g/m*3 17.5 C 14.5 km/h
2453 22-04-2020 12:20:00 17.7 C 5.43 g/m*3 17.7 C 19.3 km/h
2454 22-04-2020 12:25:00 17.8 C 5.46 g/m*3 17.8 C 14.5 km/h
2455 22-04-2020 12:30:00 17.9 C 5.19 g/m*3 17.9 C 24.1 km/h
2456 22-04-2020 12:35:00 17.8 C 5.31 g/m*3 17.8 C 24.1 km/h
2457 22-04-2020 12:40:00 17.8 C 5.16 g/m*3 17.8 C 12.9 km/h
2458 22-04-2020 12:45:00 17.8 C 5.16 g/m*3 17.8 C 16.1 km/h
2459 22-04-2020 12:50:00 17.9 C 5.34 g/m*3 17.9 C 14.5 km/h
2460 22-04-2020 12:55:00 18.1 C 5.25 g/m*3 18.1 C 12.9 km/h
2461 22-04-2020 13:00:00 18.2 C 5.44 g/m*3 18.2 C 9.7 km/h
2462 22-04-2020 13:05:00 18.4 C 5.5 g/m*3 18.4 C 11.3 km/h
2463 22-04-2020 13:10:00 18.6 C 5.41 g/m*3 18.6 C 14.5 km/h
2464 22-04-2020 13:15:00 18.8 C 5.64 g/m*3 18.8 C 14.5 km/h
2465 22-04-2020 13:20:00 18.8 C 5.48 g/m*3 18.8 C 12.9 km/h
2466 22-04-2020 13:25:00 18.9 C 5.83 g/m*3 18.9 C 9.7 km/h
2467 22-04-2020 13:30:00 19 C 5.7 g/m*3 19 C 8.1 km/h
2468 22-04-2020 13:35:00 19.1 C 5.57 g/m*3 19.1 C 9.7 km/h
2469 22-04-2020 13:40:00 19.2 C 5.44 g/m*3 19.2 C 11.3 km/h
2470 22-04-2020 13:45:00 19.3 C 5.47 g/m*3 19.3 C 17.7 km/h
2471 22-04-2020 13:50:00 19.4 C 5.51 g/m*3 19.4 C 19.3 km/h
2472 22-04-2020 13:55:00 19.5 C 5.54 g/m*3 19.5 C 12.9 km/h
2473 22-04-2020 14:00:00 19.6 C 5.57 g/m*3 19.6 C 17.7 km/h
2474 22-04-2020 14:05:00 19.7 C 5.77 g/m*3 19.7 C 12.9 km/h
2475 22-04-2020 14:10:00 19.8 C 5.98 g/m*3 19.8 C 14.5 km/h
Sensor: Nr:Datum:Temp:Abs-Feuchte:Windchill:Wind:
Aussen-T/F 2476 22-04-2020 14:15:00 20 C 5.7 g/m*3 20 C 12.9 km/h
2477 22-04-2020 14:20:00 20 C 5.7 g/m*3 20 C 16.1 km/h
2478 22-04-2020 14:25:00 20.1 C 5.74 g/m*3 20.1 C 12.9 km/h
2479 22-04-2020 14:30:00 20.3 C 5.8 g/m*3 20.3 C 12.9 km/h
2480 22-04-2020 14:35:00 20.4 C 5.66 g/m*3 20.4 C 9.7 km/h
2481 22-04-2020 14:40:00 20.4 C 5.66 g/m*3 20.4 C 11.3 km/h
2482 22-04-2020 14:45:00 20.6 C 5.73 g/m*3 20.6 C 14.5 km/h
2483 22-04-2020 14:50:00 20.6 C 5.55 g/m*3 20.6 C 22.5 km/h
2484 22-04-2020 14:55:00 20.7 C 5.94 g/m*3 20.7 C 12.9 km/h
2485 22-04-2020 15:00:00 20.8 C 5.61 g/m*3 20.8 C 16.1 km/h
2486 22-04-2020 15:05:00 20.9 C 5.83 g/m*3 20.9 C 19.3 km/h
2487 22-04-2020 15:10:00 21.1 C 5.71 g/m*3 21.1 C 16.1 km/h
2488 22-04-2020 15:15:00 21.1 C 5.71 g/m*3 21.1 C 17.7 km/h
2489 22-04-2020 15:20:00 21.2 C 5.74 g/m*3 21.2 C 12.9 km/h
2490 22-04-2020 15:25:00 21.3 C 5.78 g/m*3 21.3 C 11.3 km/h
2491 22-04-2020 15:30:00 21.4 C 5.81 g/m*3 21.4 C 16.1 km/h
2492 22-04-2020 15:35:00 21.7 C 5.72 g/m*3 21.7 C 12.9 km/h
2493 22-04-2020 15:40:00 21.7 C 5.91 g/m*3 21.7 C 11.3 km/h
2494 22-04-2020 15:45:00 21.7 C 5.72 g/m*3 21.7 C 19.3 km/h
2495 22-04-2020 15:50:00 21.9 C 5.79 g/m*3 21.9 C 19.3 km/h
2496 22-04-2020 15:55:00 22.1 C 5.66 g/m*3 22.1 C 14.5 km/h
2497 22-04-2020 16:00:00 22.2 C 5.89 g/m*3 22.2 C 17.7 km/h
2498 22-04-2020 16:05:00 22.2 C 5.69 g/m*3 22.2 C 20.9 km/h
2499 22-04-2020 16:10:00 22.2 C 5.69 g/m*3 22.2 C 17.7 km/h
2500 22-04-2020 16:15:00 22.3 C 5.73 g/m*3 22.3 C 14.5 km/h
Sensor: Nr:Datum:Temp:Abs-Feuchte:Windchill:Wind:
Aussen-T/F 2501 22-04-2020 16:20:00 22.6 C 6.03 g/m*3 22.6 C 14.5 km/h
2502 22-04-2020 16:25:00 22.7 C 5.86 g/m*3 22.7 C 20.9 km/h
2503 22-04-2020 16:30:00 22.9 C 5.93 g/m*3 22.9 C 11.3 km/h
2504 22-04-2020 16:35:00 23.1 C 5.58 g/m*3 23.1 C 12.9 km/h
2505 22-04-2020 16:40:00 22.8 C 5.69 g/m*3 22.8 C 20.9 km/h
2506 22-04-2020 16:45:00 22.5 C 5.59 g/m*3 22.5 C 24.1 km/h
2507 22-04-2020 16:50:00 22.6 C 5.62 g/m*3 22.6 C 19.3 km/h
2508 22-04-2020 16:55:00 22.8 C 5.89 g/m*3 22.8 C 12.9 km/h
2509 22-04-2020 17:00:00 22.9 C 5.72 g/m*3 22.9 C 27.4 km/h
2510 22-04-2020 17:05:00 22.7 C 5.66 g/m*3 22.7 C 27.4 km/h
2511 22-04-2020 17:10:00 22.5 C 5.79 g/m*3 22.5 C 20.9 km/h
2512 22-04-2020 17:15:00 22.4 C 5.56 g/m*3 22.4 C 22.5 km/h
2513 22-04-2020 17:20:00 22.3 C 5.53 g/m*3 22.3 C 22.5 km/h
2514 22-04-2020 17:25:00 22.3 C 5.73 g/m*3 22.3 C 20.9 km/h
2515 22-04-2020 17:30:00 22.6 C 5.83 g/m*3 22.6 C 22.5 km/h
2516 22-04-2020 17:35:00 22.8 C 5.69 g/m*3 22.8 C 14.5 km/h
2517 22-04-2020 17:40:00 22.9 C 5.72 g/m*3 22.9 C 17.7 km/h
2518 22-04-2020 17:45:00 23 C 5.76 g/m*3 23 C 11.3 km/h
2519 22-04-2020 17:50:00 22.8 C 5.69 g/m*3 22.8 C 17.7 km/h
2520 22-04-2020 17:55:00 22.7 C 5.66 g/m*3 22.7 C 16.1 km/h
2521 22-04-2020 18:00:00 22.7 C 5.66 g/m*3 22.7 C 22.5 km/h
2522 22-04-2020 18:05:00 22.7 C 5.66 g/m*3 22.7 C 14.5 km/h
2523 22-04-2020 18:10:00 22.6 C 5.62 g/m*3 22.6 C 27.4 km/h
2524 22-04-2020 18:15:00 22.4 C 5.56 g/m*3 22.4 C 19.3 km/h
2525 22-04-2020 18:20:00 22.2 C 5.5 g/m*3 22.2 C 20.9 km/h
Sensor: Nr:Datum:Temp:Abs-Feuchte:Windchill:Wind:
Aussen-T/F 2526 22-04-2020 18:25:00 22.2 C 5.5 g/m*3 22.2 C 17.7 km/h
2527 22-04-2020 18:30:00 22.3 C 5.73 g/m*3 22.3 C 16.1 km/h
2528 22-04-2020 18:35:00 22.3 C 5.53 g/m*3 22.3 C 16.1 km/h
2529 22-04-2020 18:40:00 22.3 C 5.73 g/m*3 22.3 C 17.7 km/h
2530 22-04-2020 18:45:00 22.4 C 5.56 g/m*3 22.4 C 17.7 km/h
2531 22-04-2020 18:50:00 22.3 C 5.53 g/m*3 22.3 C 16.1 km/h
2532 22-04-2020 18:55:00 22.2 C 5.5 g/m*3 22.2 C 16.1 km/h
2533 22-04-2020 19:00:00 22.2 C 5.5 g/m*3 22.2 C 17.7 km/h
2534 22-04-2020 19:05:00 21.8 C 5.76 g/m*3 21.8 C 17.7 km/h
2535 22-04-2020 19:10:00 21.8 C 5.76 g/m*3 21.8 C 14.5 km/h
2536 22-04-2020 19:15:00 21.8 C 5.56 g/m*3 21.8 C 9.7 km/h
2537 22-04-2020 19:20:00 21.7 C 5.53 g/m*3 21.7 C 16.1 km/h
2538 22-04-2020 19:25:00 21.4 C 5.62 g/m*3 21.4 C 8.1 km/h
2539 22-04-2020 19:30:00 21.2 C 5.56 g/m*3 21.2 C 14.5 km/h
2540 22-04-2020 19:35:00 20.9 C 5.46 g/m*3 20.9 C 11.3 km/h
2541 22-04-2020 19:40:00 20.8 C 5.43 g/m*3 20.8 C 6.4 km/h
2542 22-04-2020 19:45:00 20.7 C 5.58 g/m*3 20.7 C 11.3 km/h
2543 22-04-2020 19:50:00 20.6 C 5.73 g/m*3 20.6 C 8.1 km/h
2544 22-04-2020 19:55:00 20.4 C 5.48 g/m*3 20.4 C 9.7 km/h
2545 22-04-2020 20:00:00 20.3 C 5.8 g/m*3 20.3 C 8.1 km/h
2546 22-04-2020 20:05:00 20.3 C 5.8 g/m*3 20.3 C 1.6 km/h
2547 22-04-2020 20:10:00 20.1 C 6.26 g/m*3 20.1 C 1.6 km/h
2548 22-04-2020 20:15:00 19.7 C 6.45 g/m*3 19.7 C 3.2 km/h
2549 22-04-2020 20:20:00 19.2 C 5.77 g/m*3 19.2 C 4.8 km/h
2550 22-04-2020 20:25:00 18.7 C 6.08 g/m*3 18.7 C 0 km/h
Sensor: Nr:Datum:Temp:Abs-Feuchte:Windchill:Wind:
Aussen-T/F 2551 22-04-2020 20:30:00 18.1 C 6.18 g/m*3 18.1 C 0 km/h
2552 22-04-2020 20:35:00 17.4 C 5.63 g/m*3 17.4 C 3.2 km/h
2553 22-04-2020 20:40:00 17.2 C 6.15 g/m*3 17.2 C 3.2 km/h
2554 22-04-2020 20:45:00 16.8 C 6.15 g/m*3 16.8 C 1.6 km/h
2555 22-04-2020 20:50:00 16.5 C 6.04 g/m*3 16.5 C 3.2 km/h
2556 22-04-2020 20:55:00 16.3 C 5.83 g/m*3 16.3 C 4.8 km/h
2557 22-04-2020 21:00:00 16.1 C 5.62 g/m*3 16.1 C 3.2 km/h
2558 22-04-2020 21:05:00 16.1 C 6.03 g/m*3 16.1 C 0 km/h
2559 22-04-2020 21:10:00 15.8 C 5.92 g/m*3 15.8 C 3.2 km/h
2560 22-04-2020 21:15:00 15.6 C 6.12 g/m*3 15.6 C 1.6 km/h
2561 22-04-2020 21:20:00 15.2 C 5.97 g/m*3 15.2 C 0 km/h
2562 22-04-2020 21:25:00 14.9 C 5.86 g/m*3 14.9 C 0 km/h
2563 22-04-2020 21:30:00 14.7 C 6.04 g/m*3 14.7 C 0 km/h
2564 22-04-2020 21:35:00 14.4 C 6.06 g/m*3 14.4 C 0 km/h
2565 22-04-2020 21:40:00 14.3 C 6.14 g/m*3 14.3 C 0 km/h
2566 22-04-2020 21:45:00 14.2 C 6.11 g/m*3 14.2 C 4.8 km/h
2567 22-04-2020 21:50:00 14.2 C 6.11 g/m*3 14.2 C 3.2 km/h
2568 22-04-2020 21:55:00 14.1 C 6.19 g/m*3 14.1 C 1.6 km/h
2569 22-04-2020 22:00:00 14 C 6.15 g/m*3 14 C 1.6 km/h
2570 22-04-2020 22:05:00 13.8 C 6.08 g/m*3 13.8 C 0 km/h
2571 22-04-2020 22:10:00 13.7 C 5.92 g/m*3 13.7 C 1.6 km/h
2572 22-04-2020 22:15:00 13.7 C 6.16 g/m*3 13.7 C 1.6 km/h
2573 22-04-2020 22:20:00 13.7 C 6.04 g/m*3 13.7 C 4.8 km/h
2574 22-04-2020 22:25:00 13.8 C 6.08 g/m*3 13.8 C 4.8 km/h
2575 22-04-2020 22:30:00 13.9 C 6.23 g/m*3 13.9 C 3.2 km/h
Sensor: Nr:Datum:Temp:Abs-Feuchte:Windchill:Wind:
Aussen-T/F 2576 22-04-2020 22:35:00 13.9 C 6.23 g/m*3 13.9 C 0 km/h
2577 22-04-2020 22:40:00 13.8 C 5.84 g/m*3 13.8 C 3.2 km/h
2578 22-04-2020 22:45:00 13.8 C 6.08 g/m*3 13.8 C 1.6 km/h
2579 22-04-2020 22:50:00 13.8 C 6.08 g/m*3 13.8 C 3.2 km/h
2580 22-04-2020 22:55:00 13.9 C 6.11 g/m*3 13.9 C 3.2 km/h
2581 22-04-2020 23:00:00 13.8 C 6.2 g/m*3 13.8 C 1.6 km/h
2582 22-04-2020 23:05:00 13.8 C 6.08 g/m*3 13.8 C 4.8 km/h
2583 22-04-2020 23:10:00 14 C 6.27 g/m*3 14 C 6.4 km/h
2584 22-04-2020 23:15:00 13.9 C 5.87 g/m*3 13.9 C 3.2 km/h
2585 22-04-2020 23:20:00 14 C 6.15 g/m*3 14 C 4.8 km/h
2586 22-04-2020 23:25:00 13.9 C 6.11 g/m*3 13.9 C 1.6 km/h
2587 22-04-2020 23:30:00 13.8 C 6.08 g/m*3 13.8 C 1.6 km/h
2588 22-04-2020 23:35:00 13.7 C 6.04 g/m*3 13.7 C 6.4 km/h
2589 22-04-2020 23:40:00 13.6 C 6.24 g/m*3 13.6 C 3.2 km/h
2590 22-04-2020 23:45:00 13.6 C 6 g/m*3 13.6 C 3.2 km/h
2591 22-04-2020 23:50:00 13.5 C 6.08 g/m*3 13.5 C 3.2 km/h
2592 22-04-2020 23:55:00 13.3 C 6.12 g/m*3 13.3 C 0 km/h
2593 23-04-2020 00:00:00 13.1 C 6.05 g/m*3 13.1 C 4.8 km/h
2594 23-04-2020 00:05:00 13 C 6.24 g/m*3 13 C 3.2 km/h
2595 23-04-2020 00:10:00 12.9 C 6.2 g/m*3 12.9 C 4.8 km/h
2596 23-04-2020 00:15:00 12.9 C 6.09 g/m*3 12.9 C 1.6 km/h
2597 23-04-2020 00:20:00 12.8 C 6.05 g/m*3 12.8 C 3.2 km/h
2598 23-04-2020 00:25:00 12.8 C 6.05 g/m*3 12.8 C 1.6 km/h
2599 23-04-2020 00:30:00 12.8 C 6.16 g/m*3 12.8 C 4.8 km/h
2600 23-04-2020 00:35:00 12.8 C 6.16 g/m*3 12.8 C 4.8 km/h
Sensor: Nr:Datum:Temp:Abs-Feuchte:Windchill:Wind:
Aussen-T/F 2601 23-04-2020 00:40:00 12.9 C 6.2 g/m*3 12.9 C 3.2 km/h
2602 23-04-2020 00:45:00 12.8 C 6.16 g/m*3 12.8 C 3.2 km/h
2603 23-04-2020 00:50:00 12.7 C 6.01 g/m*3 12.7 C 6.4 km/h
2604 23-04-2020 00:55:00 12.7 C 6.12 g/m*3 12.7 C 0 km/h
2605 23-04-2020 01:00:00 12.6 C 6.2 g/m*3 12.6 C 1.6 km/h
2606 23-04-2020 01:05:00 12.6 C 6.08 g/m*3 12.6 C 6.4 km/h
2607 23-04-2020 01:10:00 12.6 C 6.2 g/m*3 12.6 C 3.2 km/h
2608 23-04-2020 01:15:00 12.4 C 6.12 g/m*3 12.4 C 3.2 km/h
2609 23-04-2020 01:20:00 12.2 C 6.15 g/m*3 12.2 C 3.2 km/h
2610 23-04-2020 01:25:00 12.1 C 6.01 g/m*3 12.1 C 8.1 km/h
2611 23-04-2020 01:30:00 12.1 C 6.01 g/m*3 12.1 C 1.6 km/h
2612 23-04-2020 01:35:00 12.2 C 6.26 g/m*3 12.2 C 6.4 km/h
2613 23-04-2020 01:40:00 11.9 C 6.14 g/m*3 11.9 C 1.6 km/h
2614 23-04-2020 01:45:00 11.7 C 6.17 g/m*3 11.7 C 0 km/h
2615 23-04-2020 01:50:00 11.4 C 6.16 g/m*3 11.4 C 3.2 km/h
2616 23-04-2020 01:55:00 11.2 C 6.18 g/m*3 11.2 C 1.6 km/h
2617 23-04-2020 02:00:00 11 C 6.21 g/m*3 11 C 1.6 km/h
2618 23-04-2020 02:05:00 10.7 C 6.09 g/m*3 10.7 C 3.2 km/h
2619 23-04-2020 02:10:00 10.5 C 6.11 g/m*3 10.5 C 0 km/h
2620 23-04-2020 02:15:00 10.3 C 6.13 g/m*3 10.3 C 0 km/h
2621 23-04-2020 02:20:00 10.2 C 6.19 g/m*3 10.2 C 0 km/h
2622 23-04-2020 02:25:00 10.2 C 6.19 g/m*3 10.2 C 3.2 km/h
2623 23-04-2020 02:30:00 10.3 C 6.13 g/m*3 10.3 C 3.2 km/h
2624 23-04-2020 02:35:00 10.4 C 6.17 g/m*3 10.4 C 1.6 km/h
2625 23-04-2020 02:40:00 10.4 C 6.17 g/m*3 10.4 C 1.6 km/h
Sensor: Nr:Datum:Temp:Abs-Feuchte:Windchill:Wind:
Aussen-T/F 2626 23-04-2020 02:45:00 10.3 C 6.22 g/m*3 10.3 C 1.6 km/h
2627 23-04-2020 02:50:00 10.1 C 6.15 g/m*3 10.1 C 4.8 km/h
2628 23-04-2020 02:55:00 9.9 C 6.07 g/m*3 9.9 C 3.2 km/h
2629 23-04-2020 03:00:00 9.9 C 6.16 g/m*3 9.9 C 1.6 km/h
2630 23-04-2020 03:05:00 9.8 C 6.12 g/m*3 9.8 C 0 km/h
2631 23-04-2020 03:10:00 9.7 C 6.18 g/m*3 9.7 C 0 km/h
2632 23-04-2020 03:15:00 9.7 C 6.18 g/m*3 9.7 C 1.6 km/h
2633 23-04-2020 03:20:00 9.6 C 6.14 g/m*3 9.6 C 3.2 km/h
2634 23-04-2020 03:25:00 9.5 C 6.1 g/m*3 9.5 C 1.6 km/h
2635 23-04-2020 03:30:00 9.4 C 6.15 g/m*3 9.4 C 4.8 km/h
2636 23-04-2020 03:35:00 9.4 C 6.15 g/m*3 9.4 C 1.6 km/h
2637 23-04-2020 03:40:00 9.3 C 6.11 g/m*3 9.3 C 0 km/h
2638 23-04-2020 03:45:00 9.3 C 6.11 g/m*3 9.3 C 0 km/h
2639 23-04-2020 03:50:00 9.3 C 6.02 g/m*3 9.3 C 3.2 km/h
2640 23-04-2020 03:55:00 9.3 C 6.11 g/m*3 9.3 C 1.6 km/h
2641 23-04-2020 04:00:00 9.2 C 6.07 g/m*3 9.2 C 4.8 km/h
2642 23-04-2020 04:05:00 9.1 C 6.03 g/m*3 9.1 C 0 km/h
2643 23-04-2020 04:10:00 8.9 C 6.04 g/m*3 8.9 C 1.6 km/h
2644 23-04-2020 04:15:00 8.8 C 6.01 g/m*3 8.8 C 0 km/h
2645 23-04-2020 04:20:00 8.6 C 6.02 g/m*3 8.6 C 0 km/h
2646 23-04-2020 04:25:00 8.4 C 6.02 g/m*3 8.4 C 0 km/h
2647 23-04-2020 04:30:00 8.3 C 6.07 g/m*3 8.3 C 0 km/h
2648 23-04-2020 04:35:00 8.1 C 6.07 g/m*3 8.1 C 0 km/h
2649 23-04-2020 04:40:00 7.9 C 6 g/m*3 7.9 C 3.2 km/h
2650 23-04-2020 04:45:00 7.8 C 6.04 g/m*3 7.8 C 0 km/h
Sensor: Nr:Datum:Temp:Abs-Feuchte:Windchill:Wind:
Aussen-T/F 2651 23-04-2020 04:50:00 7.8 C 6.04 g/m*3 7.8 C 0 km/h
2652 23-04-2020 04:55:00 7.8 C 6.12 g/m*3 7.8 C 0 km/h
2653 23-04-2020 05:00:00 7.6 C 6.04 g/m*3 7.6 C 0 km/h
2654 23-04-2020 05:05:00 7.4 C 5.96 g/m*3 7.4 C 0 km/h
2655 23-04-2020 05:10:00 7.3 C 6 g/m*3 7.3 C 0 km/h
2656 23-04-2020 05:15:00 7.2 C 5.97 g/m*3 7.2 C 0 km/h
2657 23-04-2020 05:20:00 7.1 C 6.01 g/m*3 7.1 C 0 km/h
2658 23-04-2020 05:25:00 6.9 C 5.93 g/m*3 6.9 C 3.2 km/h
2659 23-04-2020 05:30:00 6.8 C 5.97 g/m*3 6.8 C 0 km/h
2660 23-04-2020 05:35:00 6.7 C 5.93 g/m*3 6.7 C 0 km/h
2661 23-04-2020 05:40:00 6.7 C 5.93 g/m*3 6.7 C 0 km/h
2662 23-04-2020 05:45:00 6.7 C 5.93 g/m*3 6.7 C 0 km/h
2663 23-04-2020 05:50:00 6.7 C 6 g/m*3 6.7 C 0 km/h
2664 23-04-2020 05:55:00 6.6 C 5.96 g/m*3 6.6 C 0 km/h
2665 23-04-2020 06:00:00 6.6 C 5.96 g/m*3 6.6 C 0 km/h
2666 23-04-2020 06:05:00 6.5 C 5.92 g/m*3 6.5 C 0 km/h
2667 23-04-2020 06:10:00 6.5 C 5.92 g/m*3 6.5 C 0 km/h
2668 23-04-2020 06:15:00 6.4 C 5.89 g/m*3 6.4 C 1.6 km/h
2669 23-04-2020 06:20:00 6.3 C 5.85 g/m*3 6.3 C 0 km/h
2670 23-04-2020 06:25:00 6.3 C 5.92 g/m*3 6.3 C 0 km/h
2671 23-04-2020 06:30:00 6.2 C 5.88 g/m*3 6.2 C 0 km/h
2672 23-04-2020 06:35:00 6.2 C 5.88 g/m*3 6.2 C 0 km/h
2673 23-04-2020 06:40:00 6.2 C 5.88 g/m*3 6.2 C 0 km/h
2674 23-04-2020 06:45:00 6.2 C 5.88 g/m*3 6.2 C 0 km/h
2675 23-04-2020 06:50:00 6.1 C 5.92 g/m*3 6.1 C 0 km/h
Sensor: Nr:Datum:Temp:Abs-Feuchte:Windchill:Wind:
Aussen-T/F 2676 23-04-2020 06:55:00 6.1 C 5.92 g/m*3 6.1 C 0 km/h
2677 23-04-2020 07:00:00 6.1 C 5.92 g/m*3 6.1 C 0 km/h
2678 23-04-2020 07:05:00 6.1 C 5.99 g/m*3 6.1 C 0 km/h
2679 23-04-2020 07:10:00 6.1 C 5.99 g/m*3 6.1 C 0 km/h
2680 23-04-2020 07:15:00 6 C 5.95 g/m*3 6 C 0 km/h
2681 23-04-2020 07:20:00 5.9 C 5.98 g/m*3 5.9 C 0 km/h
2682 23-04-2020 07:25:00 5.9 C 6.06 g/m*3 5.9 C 0 km/h
2683 23-04-2020 07:30:00 5.9 C 6.06 g/m*3 5.9 C 0 km/h
2684 23-04-2020 07:35:00 5.9 C 6.13 g/m*3 5.9 C 0 km/h
2685 23-04-2020 07:40:00 5.9 C 6.13 g/m*3 5.9 C 0 km/h
2686 23-04-2020 07:45:00 5.9 C 6.13 g/m*3 5.9 C 0 km/h
2687 23-04-2020 07:50:00 5.9 C 6.13 g/m*3 5.9 C 0 km/h
2688 23-04-2020 07:55:00 5.9 C 6.2 g/m*3 5.9 C 1.6 km/h
2689 23-04-2020 08:00:00 5.9 C 6.2 g/m*3 5.9 C 0 km/h
2690 23-04-2020 08:05:00 5.9 C 6.2 g/m*3 5.9 C 0 km/h
2691 23-04-2020 08:10:00 5.9 C 6.2 g/m*3 5.9 C 0 km/h
2692 23-04-2020 08:15:00 6 C 6.31 g/m*3 6 C 1.6 km/h
2693 23-04-2020 08:20:00 6.1 C 6.36 g/m*3 6.1 C 1.6 km/h
2694 23-04-2020 08:25:00 6.2 C 6.4 g/m*3 6.2 C 0 km/h
2695 23-04-2020 08:30:00 6.2 C 6.4 g/m*3 6.2 C 0 km/h
2696 23-04-2020 08:35:00 6.3 C 6.44 g/m*3 6.3 C 3.2 km/h
2697 23-04-2020 08:40:00 6.4 C 6.48 g/m*3 6.4 C 0 km/h
2698 23-04-2020 08:45:00 6.6 C 6.57 g/m*3 6.6 C 1.6 km/h
2699 23-04-2020 08:50:00 6.8 C 6.65 g/m*3 6.8 C 1.6 km/h
2700 23-04-2020 08:55:00 6.9 C 6.7 g/m*3 6.9 C 0 km/h
Sensor: Nr:Datum:Temp:Abs-Feuchte:Windchill:Wind:
Aussen-T/F 2701 23-04-2020 09:00:00 7.1 C 6.71 g/m*3 7.1 C 0 km/h
2702 23-04-2020 09:05:00 7.3 C 6.79 g/m*3 7.3 C 0 km/h
2703 23-04-2020 09:10:00 7.5 C 6.88 g/m*3 7.5 C 0 km/h
2704 23-04-2020 09:15:00 7.8 C 6.94 g/m*3 7.8 C 3.2 km/h
2705 23-04-2020 09:20:00 8 C 6.94 g/m*3 8 C 4.8 km/h
2706 23-04-2020 09:25:00 8.2 C 6.95 g/m*3 8.2 C 3.2 km/h
2707 23-04-2020 09:30:00 8.5 C 7.09 g/m*3 8.5 C 3.2 km/h
2708 23-04-2020 09:35:00 8.7 C 7.09 g/m*3 8.7 C 0 km/h
2709 23-04-2020 09:40:00 8.9 C 7.18 g/m*3 8.9 C 0 km/h
2710 23-04-2020 09:45:00 9.2 C 7.14 g/m*3 9.2 C 3.2 km/h
2711 23-04-2020 09:50:00 9.4 C 7.24 g/m*3 9.4 C 0 km/h
2712 23-04-2020 09:55:00 9.6 C 7.24 g/m*3 9.6 C 0 km/h
2713 23-04-2020 10:00:00 9.9 C 7.28 g/m*3 9.9 C 0 km/h
2714 23-04-2020 10:05:00 10.2 C 7.42 g/m*3 10.2 C 0 km/h
2715 23-04-2020 10:10:00 10.4 C 7.42 g/m*3 10.4 C 0 km/h
2716 23-04-2020 10:15:00 10.6 C 7.42 g/m*3 10.6 C 3.2 km/h
2717 23-04-2020 10:20:00 11 C 7.21 g/m*3 11 C 1.6 km/h
2718 23-04-2020 10:25:00 11.4 C 7.29 g/m*3 11.4 C 1.6 km/h
2719 23-04-2020 10:30:00 11.8 C 7.37 g/m*3 11.8 C 0 km/h
2720 23-04-2020 10:35:00 12.1 C 7.51 g/m*3 12.1 C 3.2 km/h
2721 23-04-2020 10:40:00 12.4 C 7.65 g/m*3 12.4 C 1.6 km/h
2722 23-04-2020 10:45:00 12.7 C 7.12 g/m*3 12.7 C 1.6 km/h
2723 23-04-2020 10:50:00 13.1 C 7.3 g/m*3 13.1 C 3.2 km/h
2724 23-04-2020 10:55:00 13.8 C 6.91 g/m*3 13.8 C 8.1 km/h
2725 23-04-2020 11:00:00 14.9 C 6.88 g/m*3 14.9 C 9.7 km/h
Sensor: Nr:Datum:Temp:Abs-Feuchte:Windchill:Wind:
Aussen-T/F 2726 23-04-2020 11:05:00 15.3 C 7.7 g/m*3 15.3 C 3.2 km/h
2727 23-04-2020 11:10:00 15.6 C 7.05 g/m*3 15.6 C 4.8 km/h
2728 23-04-2020 11:15:00 15.8 C 6.87 g/m*3 15.8 C 8.1 km/h
2729 23-04-2020 11:20:00 16.2 C 6.76 g/m*3 16.2 C 8.1 km/h
2730 23-04-2020 11:25:00 16.4 C 6.56 g/m*3 16.4 C 9.7 km/h
2731 23-04-2020 11:30:00 16.8 C 6.58 g/m*3 16.8 C 12.9 km/h
2732 23-04-2020 11:35:00 16.9 C 7.48 g/m*3 16.9 C 6.4 km/h
2733 23-04-2020 11:40:00 16.9 C 6.9 g/m*3 16.9 C 6.4 km/h
2734 23-04-2020 11:45:00 17.1 C 6.84 g/m*3 17.1 C 6.4 km/h
2735 23-04-2020 11:50:00 17.2 C 6.88 g/m*3 17.2 C 9.7 km/h
2736 23-04-2020 11:55:00 17.3 C 6.63 g/m*3 17.3 C 12.9 km/h
2737 23-04-2020 12:00:00 17.5 C 6.86 g/m*3 17.5 C 8.1 km/h
2738 23-04-2020 12:05:00 17.7 C 6.64 g/m*3 17.7 C 11.3 km/h
2739 23-04-2020 12:10:00 17.7 C 6.64 g/m*3 17.7 C 17.7 km/h
2740 23-04-2020 12:15:00 17.9 C 6.87 g/m*3 17.9 C 14.5 km/h
2741 23-04-2020 12:20:00 18 C 6.76 g/m*3 18 C 9.7 km/h
2742 23-04-2020 12:25:00 18.1 C 6.8 g/m*3 18.1 C 11.3 km/h
2743 23-04-2020 12:30:00 18.2 C 6.68 g/m*3 18.2 C 12.9 km/h
2744 23-04-2020 12:35:00 18.3 C 6.72 g/m*3 18.3 C 9.7 km/h
2745 23-04-2020 12:40:00 18.3 C 6.72 g/m*3 18.3 C 11.3 km/h
2746 23-04-2020 12:45:00 18.4 C 6.76 g/m*3 18.4 C 8.1 km/h
2747 23-04-2020 12:50:00 18.4 C 6.61 g/m*3 18.4 C 4.8 km/h
2748 23-04-2020 12:55:00 18.5 C 6.49 g/m*3 18.5 C 6.4 km/h
2749 23-04-2020 13:00:00 18.7 C 6.08 g/m*3 18.7 C 12.9 km/h
2750 23-04-2020 13:05:00 18.9 C 5.67 g/m*3 18.9 C 11.3 km/h
Sensor: Nr:Datum:Temp:Abs-Feuchte:Windchill:Wind:
Aussen-T/F 2751 23-04-2020 13:10:00 19 C 5.87 g/m*3 19 C 6.4 km/h
2752 23-04-2020 13:15:00 19.2 C 5.77 g/m*3 19.2 C 9.7 km/h
2753 23-04-2020 13:20:00 19.3 C 5.81 g/m*3 19.3 C 4.8 km/h
2754 23-04-2020 13:25:00 19.3 C 5.81 g/m*3 19.3 C 3.2 km/h
2755 23-04-2020 13:30:00 19.4 C 6.01 g/m*3 19.4 C 11.3 km/h
2756 23-04-2020 13:35:00 19.6 C 5.91 g/m*3 19.6 C 9.7 km/h
2757 23-04-2020 13:40:00 19.7 C 5.77 g/m*3 19.7 C 11.3 km/h
2758 23-04-2020 13:45:00 19.8 C 5.98 g/m*3 19.8 C 9.7 km/h
2759 23-04-2020 13:50:00 20.1 C 5.74 g/m*3 20.1 C 11.3 km/h
2760 23-04-2020 13:55:00 20.1 C 6.08 g/m*3 20.1 C 14.5 km/h
2761 23-04-2020 14:00:00 20.1 C 5.74 g/m*3 20.1 C 16.1 km/h
2762 23-04-2020 14:05:00 20.2 C 5.77 g/m*3 20.2 C 9.7 km/h
2763 23-04-2020 14:10:00 20.3 C 5.8 g/m*3 20.3 C 6.4 km/h
2764 23-04-2020 14:15:00 20.3 C 6.16 g/m*3 20.3 C 8.1 km/h
2765 23-04-2020 14:20:00 20.4 C 5.84 g/m*3 20.4 C 9.7 km/h
2766 23-04-2020 14:25:00 20.6 C 5.91 g/m*3 20.6 C 8.1 km/h
2767 23-04-2020 14:30:00 20.8 C 5.98 g/m*3 20.8 C 9.7 km/h
2768 23-04-2020 14:35:00 20.9 C 6.01 g/m*3 20.9 C 9.7 km/h
2769 23-04-2020 14:40:00 21 C 5.86 g/m*3 21 C 9.7 km/h
2770 23-04-2020 14:45:00 21 C 6.05 g/m*3 21 C 9.7 km/h
2771 23-04-2020 14:50:00 21.1 C 6.08 g/m*3 21.1 C 8.1 km/h
2772 23-04-2020 14:55:00 21.3 C 5.96 g/m*3 21.3 C 9.7 km/h
2773 23-04-2020 15:00:00 21.4 C 6.19 g/m*3 21.4 C 8.1 km/h
2774 23-04-2020 15:05:00 21.6 C 6.07 g/m*3 21.6 C 3.2 km/h
2775 23-04-2020 15:10:00 21.7 C 5.91 g/m*3 21.7 C 6.4 km/h
Sensor: Nr:Datum:Temp:Abs-Feuchte:Windchill:Wind:
Aussen-T/F 2776 23-04-2020 15:15:00 21.6 C 5.69 g/m*3 21.6 C 9.7 km/h
2777 23-04-2020 15:20:00 21.7 C 6.1 g/m*3 21.7 C 8.1 km/h
2778 23-04-2020 15:25:00 21.8 C 5.95 g/m*3 21.8 C 8.1 km/h
2779 23-04-2020 15:30:00 22.1 C 6.05 g/m*3 22.1 C 11.3 km/h
2780 23-04-2020 15:35:00 22.2 C 5.89 g/m*3 22.2 C 9.7 km/h
2781 23-04-2020 15:40:00 22.3 C 5.73 g/m*3 22.3 C 9.7 km/h
2782 23-04-2020 15:45:00 22.4 C 6.16 g/m*3 22.4 C 6.4 km/h
2783 23-04-2020 15:50:00 22.6 C 6.03 g/m*3 22.6 C 9.7 km/h
2784 23-04-2020 15:55:00 22.6 C 5.83 g/m*3 22.6 C 11.3 km/h
2785 23-04-2020 16:00:00 22.6 C 6.03 g/m*3 22.6 C 12.9 km/h
2786 23-04-2020 16:05:00 22.7 C 6.06 g/m*3 22.7 C 12.9 km/h
2787 23-04-2020 16:10:00 22.7 C 6.06 g/m*3 22.7 C 8.1 km/h
2788 23-04-2020 16:15:00 22.7 C 6.06 g/m*3 22.7 C 9.7 km/h
2789 23-04-2020 16:20:00 22.8 C 6.1 g/m*3 22.8 C 8.1 km/h
2790 23-04-2020 16:25:00 23.2 C 6.03 g/m*3 23.2 C 12.9 km/h
2791 23-04-2020 16:30:00 23.5 C 5.92 g/m*3 23.5 C 12.9 km/h
2792 23-04-2020 16:35:00 23.4 C 5.89 g/m*3 23.4 C 9.7 km/h
2793 23-04-2020 16:40:00 23.3 C 5.85 g/m*3 23.3 C 11.3 km/h
2794 23-04-2020 16:45:00 23.4 C 6.31 g/m*3 23.4 C 6.4 km/h
2795 23-04-2020 16:50:00 23.9 C 6.27 g/m*3 23.9 C 9.7 km/h
2796 23-04-2020 16:55:00 24.3 C 6.2 g/m*3 24.3 C 8.1 km/h
2797 23-04-2020 17:00:00 24.2 C 6.16 g/m*3 24.2 C 4.8 km/h
2798 23-04-2020 17:05:00 24.4 C 6.23 g/m*3 24.4 C 8.1 km/h
2799 23-04-2020 17:10:00 24.2 C 6.16 g/m*3 24.2 C 14.5 km/h
2800 23-04-2020 17:15:00 24.1 C 6.13 g/m*3 24.1 C 4.8 km/h
Sensor: Nr:Datum:Temp:Abs-Feuchte:Windchill:Wind:
Aussen-T/F 2801 23-04-2020 17:20:00 24.2 C 6.16 g/m*3 24.2 C 11.3 km/h
2802 23-04-2020 17:25:00 24.5 C 5.82 g/m*3 24.5 C 4.8 km/h
2803 23-04-2020 17:30:00 24.7 C 6.11 g/m*3 24.7 C 4.8 km/h
2804 23-04-2020 17:35:00 24.7 C 5.88 g/m*3 24.7 C 11.3 km/h
2805 23-04-2020 17:40:00 24.3 C 5.97 g/m*3 24.3 C 9.7 km/h
2806 23-04-2020 17:45:00 24.2 C 6.16 g/m*3 24.2 C 3.2 km/h
2807 23-04-2020 17:50:00 24.2 C 6.16 g/m*3 24.2 C 4.8 km/h
2808 23-04-2020 17:55:00 24.6 C 6.53 g/m*3 24.6 C 4.8 km/h
2809 23-04-2020 18:00:00 24.8 C 5.69 g/m*3 24.8 C 6.4 km/h
2810 23-04-2020 18:05:00 25.1 C 6.25 g/m*3 25.1 C 3.2 km/h
2811 23-04-2020 18:10:00 25.3 C 5.85 g/m*3 25.3 C 8.1 km/h
2812 23-04-2020 18:15:00 25.2 C 6.75 g/m*3 25.2 C 8.1 km/h
2813 23-04-2020 18:20:00 25.5 C 6.39 g/m*3 25.5 C 1.6 km/h
2814 23-04-2020 18:25:00 25.7 C 5.99 g/m*3 25.7 C 1.6 km/h
2815 23-04-2020 18:30:00 25.8 C 6.02 g/m*3 25.8 C 3.2 km/h
2816 23-04-2020 18:35:00 25.7 C 5.99 g/m*3 25.7 C 8.1 km/h
2817 23-04-2020 18:40:00 25.6 C 6.43 g/m*3 25.6 C 6.4 km/h
2818 23-04-2020 18:45:00 25.4 C 6.36 g/m*3 25.4 C 3.2 km/h
2819 23-04-2020 18:50:00 25.3 C 6.32 g/m*3 25.3 C 6.4 km/h
2820 23-04-2020 18:55:00 24.9 C 6.18 g/m*3 24.9 C 8.1 km/h
2821 23-04-2020 19:00:00 24.7 C 6.79 g/m*3 24.7 C 6.4 km/h
2822 23-04-2020 19:05:00 24.7 C 6.56 g/m*3 24.7 C 1.6 km/h
2823 23-04-2020 19:10:00 24.8 C 5.92 g/m*3 24.8 C 1.6 km/h
2824 23-04-2020 19:15:00 24.8 C 6.37 g/m*3 24.8 C 1.6 km/h
2825 23-04-2020 19:20:00 24.7 C 7.02 g/m*3 24.7 C 1.6 km/h
Sensor: Nr:Datum:Temp:Abs-Feuchte:Windchill:Wind:
Aussen-T/F 2826 23-04-2020 19:25:00 24.4 C 7.34 g/m*3 24.4 C 3.2 km/h
2827 23-04-2020 19:30:00 24.2 C 7.92 g/m*3 24.2 C 3.2 km/h
2828 23-04-2020 19:35:00 22.9 C 11.85 g/m*3 22.9 C 4.8 km/h
2829 23-04-2020 19:40:00 20.8 C 11.05 g/m*3 20.8 C 4.8 km/h
2830 23-04-2020 19:45:00 19 C 10.92 g/m*3 19 C 4.8 km/h
2831 23-04-2020 19:50:00 17.6 C 10.05 g/m*3 17.6 C 4.8 km/h
2832 23-04-2020 19:55:00 16.4 C 9.21 g/m*3 16.4 C 8.1 km/h
2833 23-04-2020 20:00:00 15.7 C 8.83 g/m*3 15.7 C 8.1 km/h
2834 23-04-2020 20:05:00 15.3 C 8.62 g/m*3 15.3 C 9.7 km/h
2835 23-04-2020 20:10:00 15.2 C 8.57 g/m*3 15.2 C 8.1 km/h
2836 23-04-2020 20:15:00 14.9 C 8.28 g/m*3 14.9 C 8.1 km/h
2837 23-04-2020 20:20:00 14.8 C 8.36 g/m*3 14.8 C 8.1 km/h
2838 23-04-2020 20:25:00 14.7 C 8.44 g/m*3 14.7 C 8.1 km/h
2839 23-04-2020 20:30:00 14.6 C 8.51 g/m*3 14.6 C 8.1 km/h
2840 23-04-2020 20:35:00 14.4 C 8.53 g/m*3 14.4 C 6.4 km/h
2841 23-04-2020 20:40:00 14.3 C 8.6 g/m*3 14.3 C 4.8 km/h
2842 23-04-2020 20:45:00 14.1 C 8.37 g/m*3 14.1 C 3.2 km/h
2843 23-04-2020 20:50:00 13.9 C 7.91 g/m*3 13.9 C 4.8 km/h
2844 23-04-2020 20:55:00 13.8 C 7.86 g/m*3 13.8 C 4.8 km/h
2845 23-04-2020 21:00:00 13.6 C 7.65 g/m*3 13.6 C 4.8 km/h
2846 23-04-2020 21:05:00 13.4 C 7.44 g/m*3 13.4 C 4.8 km/h
2847 23-04-2020 21:10:00 13.4 C 7.56 g/m*3 13.4 C 4.8 km/h
2848 23-04-2020 21:15:00 13.3 C 7.63 g/m*3 13.3 C 3.2 km/h
2849 23-04-2020 21:20:00 13.2 C 7.46 g/m*3 13.2 C 1.6 km/h
2850 23-04-2020 21:25:00 13.1 C 7.42 g/m*3 13.1 C 0 km/h
Sensor: Nr:Datum:Temp:Abs-Feuchte:Windchill:Wind:
Aussen-T/F 2851 23-04-2020 21:30:00 12.9 C 7.33 g/m*3 12.9 C 0 km/h
2852 23-04-2020 21:35:00 12.8 C 7.17 g/m*3 12.8 C 0 km/h
2853 23-04-2020 21:40:00 12.7 C 7.24 g/m*3 12.7 C 0 km/h
2854 23-04-2020 21:45:00 12.6 C 7.3 g/m*3 12.6 C 0 km/h
2855 23-04-2020 21:50:00 12.4 C 7.21 g/m*3 12.4 C 0 km/h
2856 23-04-2020 21:55:00 12.3 C 7.06 g/m*3 12.3 C 0 km/h
2857 23-04-2020 22:00:00 12.2 C 7.23 g/m*3 12.2 C 0 km/h
2858 23-04-2020 22:05:00 12.1 C 7.18 g/m*3 12.1 C 0 km/h
2859 23-04-2020 22:10:00 11.9 C 7.2 g/m*3 11.9 C 0 km/h
2860 23-04-2020 22:15:00 11.7 C 7.01 g/m*3 11.7 C 0 km/h
2861 23-04-2020 22:20:00 11.7 C 7.11 g/m*3 11.7 C 0 km/h
2862 23-04-2020 22:25:00 11.6 C 6.96 g/m*3 11.6 C 0 km/h
2863 23-04-2020 22:30:00 11.4 C 6.98 g/m*3 11.4 C 0 km/h
2864 23-04-2020 22:35:00 11.3 C 6.94 g/m*3 11.3 C 0 km/h
2865 23-04-2020 22:40:00 11.2 C 6.89 g/m*3 11.2 C 0 km/h
2866 23-04-2020 22:45:00 11.2 C 6.99 g/m*3 11.2 C 0 km/h
2867 23-04-2020 22:50:00 11.1 C 6.85 g/m*3 11.1 C 0 km/h
2868 23-04-2020 22:55:00 10.9 C 6.86 g/m*3 10.9 C 0 km/h
2869 23-04-2020 23:00:00 10.8 C 6.92 g/m*3 10.8 C 0 km/h
2870 23-04-2020 23:05:00 10.7 C 6.88 g/m*3 10.7 C 0 km/h
2871 23-04-2020 23:10:00 10.6 C 6.83 g/m*3 10.6 C 0 km/h
2872 23-04-2020 23:15:00 10.4 C 6.84 g/m*3 10.4 C 0 km/h
2873 23-04-2020 23:20:00 10.3 C 6.8 g/m*3 10.3 C 0 km/h
2874 23-04-2020 23:25:00 10.1 C 6.71 g/m*3 10.1 C 0 km/h
2875 23-04-2020 23:30:00 10.1 C 6.81 g/m*3 10.1 C 0 km/h
Sensor: Nr:Datum:Temp:Abs-Feuchte:Windchill:Wind:
Aussen-T/F 2876 23-04-2020 23:35:00 10 C 6.77 g/m*3 10 C 0 km/h
2877 23-04-2020 23:40:00 9.8 C 6.68 g/m*3 9.8 C 0 km/h
2878 23-04-2020 23:45:00 9.7 C 6.64 g/m*3 9.7 C 0 km/h
2879 23-04-2020 23:50:00 9.7 C 6.64 g/m*3 9.7 C 0 km/h
2880 23-04-2020 23:55:00 9.7 C 6.64 g/m*3 9.7 C 0 km/h
2881 24-04-2020 00:00:00 9.6 C 6.6 g/m*3 9.6 C 0 km/h
2882 24-04-2020 00:05:00 9.6 C 6.6 g/m*3 9.6 C 0 km/h
2883 24-04-2020 00:10:00 9.6 C 6.69 g/m*3 9.6 C 0 km/h
2884 24-04-2020 00:15:00 9.6 C 6.78 g/m*3 9.6 C 1.6 km/h
2885 24-04-2020 00:20:00 9.6 C 6.69 g/m*3 9.6 C 0 km/h
2886 24-04-2020 00:25:00 9.5 C 6.64 g/m*3 9.5 C 0 km/h
2887 24-04-2020 00:30:00 9.4 C 6.69 g/m*3 9.4 C 0 km/h
2888 24-04-2020 00:35:00 9.3 C 6.65 g/m*3 9.3 C 0 km/h
2889 24-04-2020 00:40:00 9.1 C 6.57 g/m*3 9.1 C 1.6 km/h
2890 24-04-2020 00:45:00 9 C 6.52 g/m*3 9 C 1.6 km/h
2891 24-04-2020 00:50:00 8.9 C 6.57 g/m*3 8.9 C 0 km/h
2892 24-04-2020 00:55:00 8.8 C 6.53 g/m*3 8.8 C 0 km/h
2893 24-04-2020 01:00:00 8.8 C 6.61 g/m*3 8.8 C 0 km/h
2894 24-04-2020 01:05:00 8.7 C 6.57 g/m*3 8.7 C 0 km/h
2895 24-04-2020 01:10:00 8.7 C 6.66 g/m*3 8.7 C 1.6 km/h
2896 24-04-2020 01:15:00 8.6 C 6.62 g/m*3 8.6 C 3.2 km/h
2897 24-04-2020 01:20:00 8.6 C 6.62 g/m*3 8.6 C 0 km/h
2898 24-04-2020 01:25:00 8.5 C 6.49 g/m*3 8.5 C 0 km/h
2899 24-04-2020 01:30:00 8.4 C 6.45 g/m*3 8.4 C 0 km/h
2900 24-04-2020 01:35:00 8.4 C 6.53 g/m*3 8.4 C 3.2 km/h
Sensor: Nr:Datum:Temp:Abs-Feuchte:Windchill:Wind:
Aussen-T/F 2901 24-04-2020 01:40:00 8.4 C 6.62 g/m*3 8.4 C 0 km/h
2902 24-04-2020 01:45:00 8.4 C 6.62 g/m*3 8.4 C 0 km/h
2903 24-04-2020 01:50:00 8.3 C 6.57 g/m*3 8.3 C 0 km/h
2904 24-04-2020 01:55:00 8.2 C 6.53 g/m*3 8.2 C 1.6 km/h
2905 24-04-2020 02:00:00 8.2 C 6.53 g/m*3 8.2 C 0 km/h
2906 24-04-2020 02:05:00 8.1 C 6.57 g/m*3 8.1 C 0 km/h
2907 24-04-2020 02:10:00 7.9 C 6.41 g/m*3 7.9 C 0 km/h
2908 24-04-2020 02:15:00 7.8 C 6.37 g/m*3 7.8 C 0 km/h
2909 24-04-2020 02:20:00 7.7 C 6.41 g/m*3 7.7 C 0 km/h
2910 24-04-2020 02:25:00 7.7 C 6.49 g/m*3 7.7 C 1.6 km/h
2911 24-04-2020 02:30:00 7.7 C 6.49 g/m*3 7.7 C 1.6 km/h
2912 24-04-2020 02:35:00 7.7 C 6.57 g/m*3 7.7 C 0 km/h
2913 24-04-2020 02:40:00 7.6 C 6.44 g/m*3 7.6 C 0 km/h
2914 24-04-2020 02:45:00 7.4 C 6.36 g/m*3 7.4 C 1.6 km/h
2915 24-04-2020 02:50:00 7.4 C 6.44 g/m*3 7.4 C 0 km/h
2916 24-04-2020 02:55:00 7.3 C 6.48 g/m*3 7.3 C 0 km/h
2917 24-04-2020 03:00:00 7.3 C 6.48 g/m*3 7.3 C 1.6 km/h
2918 24-04-2020 03:05:00 7.3 C 6.48 g/m*3 7.3 C 1.6 km/h
2919 24-04-2020 03:10:00 7.3 C 6.48 g/m*3 7.3 C 0 km/h
2920 24-04-2020 03:15:00 7.2 C 6.44 g/m*3 7.2 C 0 km/h
2921 24-04-2020 03:20:00 7.1 C 6.4 g/m*3 7.1 C 0 km/h
2922 24-04-2020 03:25:00 6.9 C 6.39 g/m*3 6.9 C 0 km/h
2923 24-04-2020 03:30:00 6.9 C 6.39 g/m*3 6.9 C 0 km/h
2924 24-04-2020 03:35:00 6.8 C 6.35 g/m*3 6.8 C 0 km/h
2925 24-04-2020 03:40:00 6.8 C 6.42 g/m*3 6.8 C 0 km/h
Sensor: Nr:Datum:Temp:Abs-Feuchte:Windchill:Wind:
Aussen-T/F 2926 24-04-2020 03:45:00 6.7 C 6.38 g/m*3 6.7 C 1.6 km/h
2927 24-04-2020 03:50:00 6.7 C 6.38 g/m*3 6.7 C 0 km/h
2928 24-04-2020 03:55:00 6.7 C 6.38 g/m*3 6.7 C 0 km/h
2929 24-04-2020 04:00:00 6.7 C 6.38 g/m*3 6.7 C 0 km/h
2930 24-04-2020 04:05:00 6.6 C 6.34 g/m*3 6.6 C 0 km/h
2931 24-04-2020 04:10:00 6.5 C 6.37 g/m*3 6.5 C 0 km/h
2932 24-04-2020 04:15:00 6.5 C 6.37 g/m*3 6.5 C 0 km/h
2933 24-04-2020 04:20:00 6.4 C 6.33 g/m*3 6.4 C 0 km/h
2934 24-04-2020 04:25:00 6.3 C 6.29 g/m*3 6.3 C 1.6 km/h
2935 24-04-2020 04:30:00 6.3 C 6.29 g/m*3 6.3 C 0 km/h
2936 24-04-2020 04:35:00 6.3 C 6.37 g/m*3 6.3 C 1.6 km/h
2937 24-04-2020 04:40:00 6.5 C 6.45 g/m*3 6.5 C 1.6 km/h
2938 24-04-2020 04:45:00 6.6 C 6.49 g/m*3 6.6 C 1.6 km/h
2939 24-04-2020 04:50:00 6.7 C 6.53 g/m*3 6.7 C 0 km/h
2940 24-04-2020 04:55:00 6.7 C 6.46 g/m*3 6.7 C 0 km/h
2941 24-04-2020 05:00:00 6.7 C 6.46 g/m*3 6.7 C 1.6 km/h
2942 24-04-2020 05:05:00 6.6 C 6.42 g/m*3 6.6 C 0 km/h
2943 24-04-2020 05:10:00 6.5 C 6.37 g/m*3 6.5 C 1.6 km/h
2944 24-04-2020 05:15:00 6.4 C 6.33 g/m*3 6.4 C 0 km/h
2945 24-04-2020 05:20:00 6.3 C 6.37 g/m*3 6.3 C 0 km/h
2946 24-04-2020 05:25:00 6.3 C 6.37 g/m*3 6.3 C 1.6 km/h
2947 24-04-2020 05:30:00 6.3 C 6.44 g/m*3 6.3 C 0 km/h
2948 24-04-2020 05:35:00 6.3 C 6.44 g/m*3 6.3 C 0 km/h
2949 24-04-2020 05:40:00 6.4 C 6.48 g/m*3 6.4 C 0 km/h
2950 24-04-2020 05:45:00 6.4 C 6.48 g/m*3 6.4 C 0 km/h
Sensor: Nr:Datum:Temp:Abs-Feuchte:Windchill:Wind:
Aussen-T/F 2951 24-04-2020 05:50:00 6.4 C 6.48 g/m*3 6.4 C 0 km/h
2952 24-04-2020 05:55:00 6.4 C 6.48 g/m*3 6.4 C 0 km/h
2953 24-04-2020 06:00:00 6.4 C 6.48 g/m*3 6.4 C 0 km/h
2954 24-04-2020 06:05:00 6.4 C 6.48 g/m*3 6.4 C 0 km/h
2955 24-04-2020 06:10:00 6.3 C 6.44 g/m*3 6.3 C 3.2 km/h
2956 24-04-2020 06:15:00 6.3 C 6.44 g/m*3 6.3 C 1.6 km/h
2957 24-04-2020 06:20:00 6.3 C 6.44 g/m*3 6.3 C 1.6 km/h
2958 24-04-2020 06:25:00 6.4 C 6.48 g/m*3 6.4 C 1.6 km/h
2959 24-04-2020 06:30:00 6.4 C 6.48 g/m*3 6.4 C 0 km/h
2960 24-04-2020 06:35:00 6.4 C 6.48 g/m*3 6.4 C 0 km/h
2961 24-04-2020 06:40:00 6.3 C 6.44 g/m*3 6.3 C 0 km/h
2962 24-04-2020 06:45:00 6.4 C 6.48 g/m*3 6.4 C 0 km/h
2963 24-04-2020 06:50:00 6.4 C 6.48 g/m*3 6.4 C 0 km/h
2964 24-04-2020 06:55:00 6.4 C 6.48 g/m*3 6.4 C 0 km/h
2965 24-04-2020 07:00:00 6.4 C 6.48 g/m*3 6.4 C 0 km/h
2966 24-04-2020 07:05:00 6.4 C 6.48 g/m*3 6.4 C 0 km/h
2967 24-04-2020 07:10:00 6.5 C 6.6 g/m*3 6.5 C 0 km/h
2968 24-04-2020 07:15:00 6.5 C 6.6 g/m*3 6.5 C 0 km/h
2969 24-04-2020 07:20:00 6.6 C 6.64 g/m*3 6.6 C 0 km/h
2970 24-04-2020 07:25:00 6.6 C 6.64 g/m*3 6.6 C 0 km/h
2971 24-04-2020 07:30:00 6.6 C 6.64 g/m*3 6.6 C 0 km/h
2972 24-04-2020 07:35:00 6.6 C 6.64 g/m*3 6.6 C 1.6 km/h
2973 24-04-2020 07:40:00 6.6 C 6.64 g/m*3 6.6 C 0 km/h
2974 24-04-2020 07:45:00 6.7 C 6.69 g/m*3 6.7 C 0 km/h
2975 24-04-2020 07:50:00 6.8 C 6.73 g/m*3 6.8 C 0 km/h
Sensor: Nr:Datum:Temp:Abs-Feuchte:Windchill:Wind:
Aussen-T/F 2976 24-04-2020 07:55:00 6.8 C 6.73 g/m*3 6.8 C 0 km/h
2977 24-04-2020 08:00:00 6.9 C 6.77 g/m*3 6.9 C 0 km/h
2978 24-04-2020 08:05:00 6.9 C 6.77 g/m*3 6.9 C 0 km/h
2979 24-04-2020 08:10:00 7.1 C 6.86 g/m*3 7.1 C 0 km/h
2980 24-04-2020 08:15:00 7.2 C 6.91 g/m*3 7.2 C 0 km/h
2981 24-04-2020 08:20:00 7.3 C 6.87 g/m*3 7.3 C 1.6 km/h
2982 24-04-2020 08:25:00 7.6 C 7.01 g/m*3 7.6 C 1.6 km/h
2983 24-04-2020 08:30:00 7.8 C 7.02 g/m*3 7.8 C 0 km/h
2984 24-04-2020 08:35:00 8.1 C 7.07 g/m*3 8.1 C 0 km/h
2985 24-04-2020 08:40:00 8.3 C 7.16 g/m*3 8.3 C 0 km/h
2986 24-04-2020 08:45:00 8.7 C 7.35 g/m*3 8.7 C 1.6 km/h
2987 24-04-2020 08:50:00 8.9 C 7.27 g/m*3 8.9 C 0 km/h
2988 24-04-2020 08:55:00 9.2 C 7.41 g/m*3 9.2 C 0 km/h
2989 24-04-2020 09:00:00 9.4 C 7.42 g/m*3 9.4 C 0 km/h
2990 24-04-2020 09:05:00 9.6 C 7.33 g/m*3 9.6 C 0 km/h
2991 24-04-2020 09:10:00 9.9 C 7.38 g/m*3 9.9 C 1.6 km/h
2992 24-04-2020 09:15:00 10.1 C 7.38 g/m*3 10.1 C 0 km/h
2993 24-04-2020 09:20:00 10.3 C 7.57 g/m*3 10.3 C 0 km/h
2994 24-04-2020 09:25:00 10.6 C 7.61 g/m*3 10.6 C 0 km/h
2995 24-04-2020 09:30:00 10.8 C 7.61 g/m*3 10.8 C 0 km/h
2996 24-04-2020 09:35:00 11.1 C 7.76 g/m*3 11.1 C 0 km/h
2997 24-04-2020 09:40:00 11.3 C 7.75 g/m*3 11.3 C 1.6 km/h
2998 24-04-2020 09:45:00 11.4 C 7.7 g/m*3 11.4 C 0 km/h
2999 24-04-2020 09:50:00 11.7 C 7.84 g/m*3 11.7 C 0 km/h
3000 24-04-2020 09:55:00 11.8 C 7.89 g/m*3 11.8 C 0 km/h
Sensor: Nr:Datum:Temp:Abs-Feuchte:Windchill:Wind:
Aussen-T/F 3001 24-04-2020 10:00:00 12.1 C 7.94 g/m*3 12.1 C 1.6 km/h
3002 24-04-2020 10:05:00 12.2 C 7.88 g/m*3 12.2 C 1.6 km/h
3003 24-04-2020 10:10:00 12.3 C 7.93 g/m*3 12.3 C 1.6 km/h
3004 24-04-2020 10:15:00 12.3 C 7.82 g/m*3 12.3 C 0 km/h
3005 24-04-2020 10:20:00 12.5 C 7.92 g/m*3 12.5 C 0 km/h
3006 24-04-2020 10:25:00 12.7 C 8.01 g/m*3 12.7 C 0 km/h
3007 24-04-2020 10:30:00 12.9 C 8.11 g/m*3 12.9 C 1.6 km/h
3008 24-04-2020 10:35:00 13.2 C 8.15 g/m*3 13.2 C 4.8 km/h
3009 24-04-2020 10:40:00 13.6 C 8.36 g/m*3 13.6 C 4.8 km/h
3010 24-04-2020 10:45:00 13.8 C 8.22 g/m*3 13.8 C 4.8 km/h
3011 24-04-2020 10:50:00 13.9 C 8.39 g/m*3 13.9 C 1.6 km/h
3012 24-04-2020 10:55:00 14.2 C 8.3 g/m*3 14.2 C 3.2 km/h
3013 24-04-2020 11:00:00 14.3 C 8.23 g/m*3 14.3 C 1.6 km/h
3014 24-04-2020 11:05:00 14.6 C 8.38 g/m*3 14.6 C 0 km/h
3015 24-04-2020 11:10:00 14.7 C 8.31 g/m*3 14.7 C 3.2 km/h
3016 24-04-2020 11:15:00 14.8 C 8.49 g/m*3 14.8 C 1.6 km/h
3017 24-04-2020 11:20:00 15 C 8.33 g/m*3 15 C 3.2 km/h
3018 24-04-2020 11:25:00 15.2 C 8.44 g/m*3 15.2 C 1.6 km/h
3019 24-04-2020 11:30:00 15.3 C 8.36 g/m*3 15.3 C 3.2 km/h
3020 24-04-2020 11:35:00 15.4 C 8.28 g/m*3 15.4 C 0 km/h
3021 24-04-2020 11:40:00 15.6 C 8.51 g/m*3 15.6 C 1.6 km/h
3022 24-04-2020 11:45:00 15.7 C 8.43 g/m*3 15.7 C 1.6 km/h
3023 24-04-2020 11:50:00 15.9 C 8.4 g/m*3 15.9 C 0 km/h
3024 24-04-2020 11:55:00 16.1 C 8.5 g/m*3 16.1 C 0 km/h
3025 24-04-2020 12:00:00 16.2 C 8.55 g/m*3 16.2 C 4.8 km/h
Sensor: Nr:Datum:Temp:Abs-Feuchte:Windchill:Wind:
Aussen-T/F 3026 24-04-2020 12:05:00 16.4 C 8.79 g/m*3 16.4 C 1.6 km/h
3027 24-04-2020 12:10:00 16.6 C 8.76 g/m*3 16.6 C 1.6 km/h
3028 24-04-2020 12:15:00 16.9 C 8.63 g/m*3 16.9 C 1.6 km/h
3029 24-04-2020 12:20:00 17.3 C 9.28 g/m*3 17.3 C 0 km/h
3030 24-04-2020 12:25:00 17.7 C 8.75 g/m*3 17.7 C 6.4 km/h
3031 24-04-2020 12:30:00 17.9 C 8.4 g/m*3 17.9 C 3.2 km/h
3032 24-04-2020 12:35:00 18.1 C 8.65 g/m*3 18.1 C 9.7 km/h
3033 24-04-2020 12:40:00 18.2 C 8.55 g/m*3 18.2 C 9.7 km/h
3034 24-04-2020 12:45:00 18.3 C 7.97 g/m*3 18.3 C 8.1 km/h
3035 24-04-2020 12:50:00 18.6 C 8.28 g/m*3 18.6 C 6.4 km/h
3036 24-04-2020 12:55:00 18.8 C 7.89 g/m*3 18.8 C 8.1 km/h
3037 24-04-2020 13:00:00 19.2 C 7.75 g/m*3 19.2 C 8.1 km/h
3038 24-04-2020 13:05:00 19.3 C 7.96 g/m*3 19.3 C 8.1 km/h
3039 24-04-2020 13:10:00 19.4 C 7.67 g/m*3 19.4 C 6.4 km/h
3040 24-04-2020 13:15:00 19.7 C 7.47 g/m*3 19.7 C 9.7 km/h
3041 24-04-2020 13:20:00 20 C 7.26 g/m*3 20 C 14.5 km/h
3042 24-04-2020 13:25:00 20.1 C 6.78 g/m*3 20.1 C 9.7 km/h
3043 24-04-2020 13:30:00 20.2 C 6.64 g/m*3 20.2 C 9.7 km/h
3044 24-04-2020 13:35:00 20.2 C 6.99 g/m*3 20.2 C 9.7 km/h
3045 24-04-2020 13:40:00 20.3 C 6.86 g/m*3 20.3 C 9.7 km/h
3046 24-04-2020 13:45:00 20.5 C 6.76 g/m*3 20.5 C 11.3 km/h
3047 24-04-2020 13:50:00 20.7 C 6.84 g/m*3 20.7 C 12.9 km/h
3048 24-04-2020 13:55:00 20.7 C 7.02 g/m*3 20.7 C 8.1 km/h
3049 24-04-2020 14:00:00 20.8 C 7.24 g/m*3 20.8 C 12.9 km/h
3050 24-04-2020 14:05:00 21.1 C 7.55 g/m*3 21.1 C 8.1 km/h
Sensor: Nr:Datum:Temp:Abs-Feuchte:Windchill:Wind:
Aussen-T/F 3051 24-04-2020 14:10:00 21.1 C 7.37 g/m*3 21.1 C 9.7 km/h
3052 24-04-2020 14:15:00 21.1 C 7.37 g/m*3 21.1 C 8.1 km/h
3053 24-04-2020 14:20:00 21.2 C 7.6 g/m*3 21.2 C 11.3 km/h
3054 24-04-2020 14:25:00 21.4 C 7.69 g/m*3 21.4 C 9.7 km/h
3055 24-04-2020 14:30:00 21.4 C 7.69 g/m*3 21.4 C 8.1 km/h
3056 24-04-2020 14:35:00 21.4 C 7.87 g/m*3 21.4 C 8.1 km/h
3057 24-04-2020 14:40:00 21.5 C 7.92 g/m*3 21.5 C 14.5 km/h
3058 24-04-2020 14:45:00 21.6 C 7.97 g/m*3 21.6 C 9.7 km/h
3059 24-04-2020 14:50:00 21.6 C 7.97 g/m*3 21.6 C 8.1 km/h
3060 24-04-2020 14:55:00 21.7 C 7.82 g/m*3 21.7 C 14.5 km/h
3061 24-04-2020 15:00:00 21.7 C 8.01 g/m*3 21.7 C 14.5 km/h
3062 24-04-2020 15:05:00 21.8 C 7.67 g/m*3 21.8 C 11.3 km/h
3063 24-04-2020 15:10:00 21.9 C 7.91 g/m*3 21.9 C 8.1 km/h
3064 24-04-2020 15:15:00 21.9 C 7.53 g/m*3 21.9 C 8.1 km/h
3065 24-04-2020 15:20:00 22 C 7.57 g/m*3 22 C 8.1 km/h
3066 24-04-2020 15:25:00 21.9 C 7.33 g/m*3 21.9 C 14.5 km/h
3067 24-04-2020 15:30:00 22 C 7.18 g/m*3 22 C 12.9 km/h
3068 24-04-2020 15:35:00 22.1 C 7.03 g/m*3 22.1 C 11.3 km/h
3069 24-04-2020 15:40:00 22.2 C 7.07 g/m*3 22.2 C 9.7 km/h
3070 24-04-2020 15:45:00 22.3 C 7.11 g/m*3 22.3 C 9.7 km/h
3071 24-04-2020 15:50:00 22.4 C 6.95 g/m*3 22.4 C 11.3 km/h
3072 24-04-2020 15:55:00 22.6 C 6.83 g/m*3 22.6 C 12.9 km/h
3073 24-04-2020 16:00:00 22.6 C 6.83 g/m*3 22.6 C 12.9 km/h
3074 24-04-2020 16:05:00 22.5 C 6.99 g/m*3 22.5 C 8.1 km/h
3075 24-04-2020 16:10:00 22.6 C 6.83 g/m*3 22.6 C 12.9 km/h
Sensor: Nr:Datum:Temp:Abs-Feuchte:Windchill:Wind:
Aussen-T/F 3076 24-04-2020 16:15:00 22.7 C 6.67 g/m*3 22.7 C 14.5 km/h
3077 24-04-2020 16:20:00 22.8 C 6.71 g/m*3 22.8 C 11.3 km/h
3078 24-04-2020 16:25:00 22.8 C 6.3 g/m*3 22.8 C 12.9 km/h
3079 24-04-2020 16:30:00 22.9 C 6.13 g/m*3 22.9 C 11.3 km/h
3080 24-04-2020 16:35:00 23.1 C 6.61 g/m*3 23.1 C 4.8 km/h
3081 24-04-2020 16:40:00 23.2 C 6.24 g/m*3 23.2 C 16.1 km/h
3082 24-04-2020 16:45:00 23.1 C 5.99 g/m*3 23.1 C 12.9 km/h
3083 24-04-2020 16:50:00 22.9 C 6.34 g/m*3 22.9 C 9.7 km/h
3084 24-04-2020 16:55:00 22.9 C 6.13 g/m*3 22.9 C 12.9 km/h
3085 24-04-2020 17:00:00 22.8 C 6.3 g/m*3 22.8 C 14.5 km/h
3086 24-04-2020 17:05:00 22.6 C 6.23 g/m*3 22.6 C 11.3 km/h
3087 24-04-2020 17:10:00 22.6 C 6.43 g/m*3 22.6 C 14.5 km/h
3088 24-04-2020 17:15:00 22.6 C 6.03 g/m*3 22.6 C 16.1 km/h
3089 24-04-2020 17:20:00 22.6 C 5.83 g/m*3 22.6 C 16.1 km/h
3090 24-04-2020 17:25:00 22.7 C 5.86 g/m*3 22.7 C 12.9 km/h
3091 24-04-2020 17:30:00 22.8 C 5.89 g/m*3 22.8 C 14.5 km/h
3092 24-04-2020 17:35:00 22.7 C 5.66 g/m*3 22.7 C 14.5 km/h
3093 24-04-2020 17:40:00 22.4 C 5.76 g/m*3 22.4 C 12.9 km/h
3094 24-04-2020 17:45:00 22.2 C 5.89 g/m*3 22.2 C 14.5 km/h
3095 24-04-2020 17:50:00 22.2 C 5.89 g/m*3 22.2 C 14.5 km/h
3096 24-04-2020 17:55:00 22.4 C 5.96 g/m*3 22.4 C 16.1 km/h
3097 24-04-2020 18:00:00 22.4 C 6.16 g/m*3 22.4 C 9.7 km/h
3098 24-04-2020 18:05:00 22.1 C 6.05 g/m*3 22.1 C 19.3 km/h
3099 24-04-2020 18:10:00 21.9 C 5.98 g/m*3 21.9 C 14.5 km/h
3100 24-04-2020 18:15:00 21.7 C 6.29 g/m*3 21.7 C 14.5 km/h
Sensor: Nr:Datum:Temp:Abs-Feuchte:Windchill:Wind:
Aussen-T/F 3101 24-04-2020 18:20:00 21.4 C 6.37 g/m*3 21.4 C 14.5 km/h
3102 24-04-2020 18:25:00 21.4 C 6.56 g/m*3 21.4 C 16.1 km/h
3103 24-04-2020 18:30:00 21.6 C 7.02 g/m*3 21.6 C 14.5 km/h
3104 24-04-2020 18:35:00 21.6 C 7.02 g/m*3 21.6 C 11.3 km/h
3105 24-04-2020 18:40:00 21.4 C 7.12 g/m*3 21.4 C 14.5 km/h
3106 24-04-2020 18:45:00 21.3 C 7.08 g/m*3 21.3 C 16.1 km/h
3107 24-04-2020 18:50:00 21.2 C 7.23 g/m*3 21.2 C 12.9 km/h
3108 24-04-2020 18:55:00 21.1 C 7.19 g/m*3 21.1 C 12.9 km/h
3109 24-04-2020 19:00:00 21.1 C 7.19 g/m*3 21.1 C 16.1 km/h
3110 24-04-2020 19:05:00 20.9 C 7.1 g/m*3 20.9 C 17.7 km/h
3111 24-04-2020 19:10:00 20.8 C 7.06 g/m*3 20.8 C 12.9 km/h
3112 24-04-2020 19:15:00 20.7 C 7.2 g/m*3 20.7 C 12.9 km/h
3113 24-04-2020 19:20:00 20.5 C 7.12 g/m*3 20.5 C 17.7 km/h
3114 24-04-2020 19:25:00 20.4 C 7.25 g/m*3 20.4 C 8.1 km/h
3115 24-04-2020 19:30:00 20.3 C 7.21 g/m*3 20.3 C 11.3 km/h
3116 24-04-2020 19:35:00 20.1 C 7.3 g/m*3 20.1 C 12.9 km/h
3117 24-04-2020 19:40:00 19.9 C 7.39 g/m*3 19.9 C 8.1 km/h
3118 24-04-2020 19:45:00 19.8 C 7.34 g/m*3 19.8 C 12.9 km/h
3119 24-04-2020 19:50:00 19.7 C 7.3 g/m*3 19.7 C 11.3 km/h
3120 24-04-2020 19:55:00 19.6 C 7.43 g/m*3 19.6 C 12.9 km/h
3121 24-04-2020 20:00:00 19.4 C 7.51 g/m*3 19.4 C 9.7 km/h
3122 24-04-2020 20:05:00 19.2 C 7.42 g/m*3 19.2 C 9.7 km/h
3123 24-04-2020 20:10:00 19.1 C 7.21 g/m*3 19.1 C 9.7 km/h
3124 24-04-2020 20:15:00 18.9 C 7.45 g/m*3 18.9 C 8.1 km/h
3125 24-04-2020 20:20:00 18.7 C 7.52 g/m*3 18.7 C 0 km/h
Sensor: Nr:Datum:Temp:Abs-Feuchte:Windchill:Wind:
Aussen-T/F 3126 24-04-2020 20:25:00 18.3 C 7.35 g/m*3 18.3 C 9.7 km/h
3127 24-04-2020 20:30:00 18.2 C 7.46 g/m*3 18.2 C 3.2 km/h
3128 24-04-2020 20:35:00 17.8 C 7.59 g/m*3 17.8 C 1.6 km/h
3129 24-04-2020 20:40:00 17.5 C 7.45 g/m*3 17.5 C 4.8 km/h
3130 24-04-2020 20:45:00 17.2 C 7.32 g/m*3 17.2 C 6.4 km/h
3131 24-04-2020 20:50:00 16.9 C 7.34 g/m*3 16.9 C 1.6 km/h
3132 24-04-2020 20:55:00 16.7 C 7.39 g/m*3 16.7 C 1.6 km/h
3133 24-04-2020 21:00:00 16.4 C 7.26 g/m*3 16.4 C 6.4 km/h
3134 24-04-2020 21:05:00 16.3 C 7.35 g/m*3 16.3 C 1.6 km/h
3135 24-04-2020 21:10:00 16.2 C 7.31 g/m*3 16.2 C 6.4 km/h
3136 24-04-2020 21:15:00 16 C 7.08 g/m*3 16 C 1.6 km/h
3137 24-04-2020 21:20:00 15.8 C 7.13 g/m*3 15.8 C 3.2 km/h
3138 24-04-2020 21:25:00 15.7 C 7.23 g/m*3 15.7 C 3.2 km/h
3139 24-04-2020 21:30:00 15.6 C 7.05 g/m*3 15.6 C 4.8 km/h
3140 24-04-2020 21:35:00 15.6 C 7.18 g/m*3 15.6 C 6.4 km/h
3141 24-04-2020 21:40:00 15.7 C 7.23 g/m*3 15.7 C 3.2 km/h
3142 24-04-2020 21:45:00 15.6 C 7.05 g/m*3 15.6 C 0 km/h
3143 24-04-2020 21:50:00 15.5 C 7.27 g/m*3 15.5 C 0 km/h
3144 24-04-2020 21:55:00 15.3 C 7.18 g/m*3 15.3 C 1.6 km/h
3145 24-04-2020 22:00:00 15.2 C 7.14 g/m*3 15.2 C 3.2 km/h
3146 24-04-2020 22:05:00 15.1 C 7.1 g/m*3 15.1 C 3.2 km/h
3147 24-04-2020 22:10:00 15 C 7.18 g/m*3 15 C 8.1 km/h
3148 24-04-2020 22:15:00 14.8 C 7.09 g/m*3 14.8 C 1.6 km/h
3149 24-04-2020 22:20:00 14.7 C 7.18 g/m*3 14.7 C 4.8 km/h
3150 24-04-2020 22:25:00 14.6 C 6.76 g/m*3 14.6 C 6.4 km/h
Sensor: Nr:Datum:Temp:Abs-Feuchte:Windchill:Wind:
Aussen-T/F 3151 24-04-2020 22:30:00 14.6 C 7.01 g/m*3 14.6 C 1.6 km/h
3152 24-04-2020 22:35:00 14.6 C 6.88 g/m*3 14.6 C 0 km/h
3153 24-04-2020 22:40:00 14.6 C 7.01 g/m*3 14.6 C 0 km/h
3154 24-04-2020 22:45:00 14.4 C 6.92 g/m*3 14.4 C 3.2 km/h
3155 24-04-2020 22:50:00 14.2 C 6.84 g/m*3 14.2 C 3.2 km/h
3156 24-04-2020 22:55:00 13.9 C 6.83 g/m*3 13.9 C 3.2 km/h
3157 24-04-2020 23:00:00 13.7 C 6.63 g/m*3 13.7 C 3.2 km/h
3158 24-04-2020 23:05:00 13.5 C 6.67 g/m*3 13.5 C 1.6 km/h
3159 24-04-2020 23:10:00 13.3 C 6.12 g/m*3 13.3 C 4.8 km/h
3160 24-04-2020 23:15:00 13.3 C 6.47 g/m*3 13.3 C 3.2 km/h
3161 24-04-2020 23:20:00 13.2 C 5.97 g/m*3 13.2 C 0 km/h
3162 24-04-2020 23:25:00 13.1 C 6.05 g/m*3 13.1 C 0 km/h
3163 24-04-2020 23:30:00 12.9 C 5.86 g/m*3 12.9 C 1.6 km/h
3164 24-04-2020 23:35:00 12.8 C 5.6 g/m*3 12.8 C 8.1 km/h
3165 24-04-2020 23:40:00 12.9 C 5.75 g/m*3 12.9 C 3.2 km/h
3166 24-04-2020 23:45:00 12.9 C 5.75 g/m*3 12.9 C 3.2 km/h
3167 24-04-2020 23:50:00 12.9 C 5.97 g/m*3 12.9 C 0 km/h
3168 24-04-2020 23:55:00 12.8 C 5.6 g/m*3 12.8 C 3.2 km/h
3169 25-04-2020 00:00:00 12.8 C 5.71 g/m*3 12.8 C 6.4 km/h
3170 25-04-2020 00:05:00 12.8 C 5.94 g/m*3 12.8 C 4.8 km/h
3171 25-04-2020 00:10:00 13.1 C 5.82 g/m*3 13.1 C 8.1 km/h
3172 25-04-2020 00:15:00 13.1 C 5.82 g/m*3 13.1 C 4.8 km/h
3173 25-04-2020 00:20:00 13.2 C 5.97 g/m*3 13.2 C 6.4 km/h
3174 25-04-2020 00:25:00 13.1 C 5.93 g/m*3 13.1 C 6.4 km/h
3175 25-04-2020 00:30:00 13.1 C 6.05 g/m*3 13.1 C 8.1 km/h
Sensor: Nr:Datum:Temp:Abs-Feuchte:Windchill:Wind:
Aussen-T/F 3176 25-04-2020 00:35:00 13.1 C 6.05 g/m*3 13.1 C 4.8 km/h
3177 25-04-2020 00:40:00 12.9 C 6.2 g/m*3 12.9 C 4.8 km/h
3178 25-04-2020 00:45:00 12.7 C 6.23 g/m*3 12.7 C 8.1 km/h
3179 25-04-2020 00:50:00 12.4 C 6.23 g/m*3 12.4 C 3.2 km/h
3180 25-04-2020 00:55:00 12.3 C 6.41 g/m*3 12.3 C 4.8 km/h
3181 25-04-2020 01:00:00 12.1 C 6.43 g/m*3 12.1 C 4.8 km/h
3182 25-04-2020 01:05:00 11.9 C 6.46 g/m*3 11.9 C 3.2 km/h
3183 25-04-2020 01:10:00 11.9 C 6.35 g/m*3 11.9 C 11.3 km/h
3184 25-04-2020 01:15:00 12 C 6.5 g/m*3 12 C 6.4 km/h
3185 25-04-2020 01:20:00 11.9 C 6.46 g/m*3 11.9 C 1.6 km/h
3186 25-04-2020 01:25:00 11.8 C 6.53 g/m*3 11.8 C 6.4 km/h
3187 25-04-2020 01:30:00 11.7 C 6.59 g/m*3 11.7 C 6.4 km/h
3188 25-04-2020 01:35:00 11.6 C 6.55 g/m*3 11.6 C 6.4 km/h
3189 25-04-2020 01:40:00 11.5 C 6.61 g/m*3 11.5 C 8.1 km/h
3190 25-04-2020 01:45:00 11.4 C 6.57 g/m*3 11.4 C 4.8 km/h
3191 25-04-2020 01:50:00 11.4 C 6.57 g/m*3 11.4 C 4.8 km/h
3192 25-04-2020 01:55:00 11.5 C 6.71 g/m*3 11.5 C 3.2 km/h
3193 25-04-2020 02:00:00 11.4 C 6.67 g/m*3 11.4 C 4.8 km/h
3194 25-04-2020 02:05:00 11.2 C 6.59 g/m*3 11.2 C 4.8 km/h
3195 25-04-2020 02:10:00 11.1 C 6.65 g/m*3 11.1 C 4.8 km/h
3196 25-04-2020 02:15:00 10.9 C 6.56 g/m*3 10.9 C 1.6 km/h
3197 25-04-2020 02:20:00 10.8 C 6.62 g/m*3 10.8 C 1.6 km/h
3198 25-04-2020 02:25:00 10.5 C 6.6 g/m*3 10.5 C 0 km/h
3199 25-04-2020 02:30:00 10.3 C 6.61 g/m*3 10.3 C 4.8 km/h
3200 25-04-2020 02:35:00 10.2 C 6.66 g/m*3 10.2 C 1.6 km/h
Sensor: Nr:Datum:Temp:Abs-Feuchte:Windchill:Wind:
Aussen-T/F 3201 25-04-2020 02:40:00 10.1 C 6.62 g/m*3 10.1 C 4.8 km/h
3202 25-04-2020 02:45:00 10 C 6.58 g/m*3 10 C 3.2 km/h
3203 25-04-2020 02:50:00 9.9 C 6.54 g/m*3 9.25 C 6.4 km/h
3204 25-04-2020 02:55:00 10 C 6.67 g/m*3 8.99 C 8.1 km/h
3205 25-04-2020 03:00:00 10.1 C 6.62 g/m*3 9.1 C 8.1 km/h
3206 25-04-2020 03:05:00 10.3 C 6.7 g/m*3 9.72 C 6.4 km/h
3207 25-04-2020 03:10:00 10.4 C 6.65 g/m*3 10.4 C 4.8 km/h
3208 25-04-2020 03:15:00 10.5 C 6.69 g/m*3 9.95 C 6.4 km/h
3209 25-04-2020 03:20:00 10.6 C 6.73 g/m*3 9.4 C 9.7 km/h
3210 25-04-2020 03:25:00 10.5 C 6.69 g/m*3 9.28 C 9.7 km/h
3211 25-04-2020 03:30:00 10.4 C 6.65 g/m*3 10.4 C 1.6 km/h
3212 25-04-2020 03:35:00 10.3 C 6.7 g/m*3 9.04 C 9.7 km/h
3213 25-04-2020 03:40:00 10.1 C 6.62 g/m*3 10.1 C 1.6 km/h
3214 25-04-2020 03:45:00 9.9 C 6.63 g/m*3 9.9 C 1.6 km/h
3215 25-04-2020 03:50:00 9.7 C 6.55 g/m*3 9.7 C 4.8 km/h
3216 25-04-2020 03:55:00 9.7 C 6.45 g/m*3 9.02 C 6.4 km/h
3217 25-04-2020 04:00:00 9.7 C 6.45 g/m*3 9.02 C 6.4 km/h
3218 25-04-2020 04:05:00 9.7 C 6.45 g/m*3 9.7 C 3.2 km/h
3219 25-04-2020 04:10:00 9.6 C 6.5 g/m*3 8.91 C 6.4 km/h
3220 25-04-2020 04:15:00 9.5 C